[[{"header":{"parameterUnit":"m.s-1","parameterCategory":1,"la1":30.6,"la2":29.2853,"lo1":-89.7004,"lo2":-87.6739,"dy":0.0162,"dx":0.0183,"nx":112,"ny":82,"refTime":"2024-03-23T06:00:00:Z","depth":0,"parameterNumber":2,"parameterNumberName":"U-component_of_WINDS"},"data":[0.0,0.0,0.0,0.0,0.0,0.0,0.0,0.0,0.0,0.0,0.0,0.0,0.0,0.0,0.0,0.0,0.0,0.0,0.0,0.0,0.0,0.0,0.0,0.0,0.0,0.0,0.0,0.0,0.0,0.0,0.0,0.0,0.0,0.0,0.0,0.0,0.0,0.0,0.0,0.0,0.0,0.0,0.0,0.0,0.0,0.0,0.0,0.0,0.0,0.0,0.0,0.0,0.0,0.0,0.0,0.0,0.0,0.0,0.0,0.0,0.0,0.0,0.0,0.0,0.0,0.0,0.0,0.0,0.0,0.0,0.0,0.0,0.0,0.0,0.0,0.0,0.0,0.0,0.0,0.0,0.0,0.0,0.0,0.0,0.0,0.0,0.0,0.0,0.0,0.0,0.0,5.5724,5.5703,5.5703,5.5703,5.5703,5.5745,5.5885,0.0,0.0,0.0,0.0,0.0,0.0,0.0,0.0,0.0,0.0,0.0,0.0,0.0,0.0,0.0,0.0,0.0,0.0,0.0,0.0,0.0,0.0,0.0,0.0,0.0,0.0,0.0,0.0,0.0,0.0,0.0,0.0,0.0,0.0,0.0,0.0,0.0,0.0,0.0,0.0,0.0,0.0,0.0,0.0,0.0,0.0,0.0,0.0,0.0,0.0,0.0,0.0,0.0,0.0,0.0,0.0,0.0,0.0,0.0,0.0,0.0,0.0,0.0,0.0,0.0,0.0,0.0,0.0,0.0,0.0,0.0,0.0,0.0,0.0,0.0,0.0,0.0,0.0,0.0,0.0,0.0,0.0,0.0,0.0,0.0,0.0,0.0,0.0,0.0,0.0,0.0,0.0,0.0,0.0,0.0,0.0,0.0,0.0,0.0,0.0,0.0,0.0,0.0,0.0,5.5924,5.5806,5.5745,5.5703,5.5703,5.5703,5.5724,5.5826,0.0,0.0,0.0,0.0,0.0,0.0,0.0,0.0,0.0,0.0,0.0,0.0,0.0,0.0,0.0,0.0,0.0,0.0,0.0,0.0,0.0,0.0,0.0,0.0,0.0,0.0,0.0,0.0,0.0,0.0,0.0,0.0,0.0,0.0,0.0,0.0,0.0,0.0,0.0,0.0,0.0,0.0,0.0,0.0,0.0,0.0,0.0,0.0,0.0,0.0,0.0,0.0,0.0,0.0,0.0,0.0,0.0,0.0,0.0,0.0,0.0,0.0,0.0,0.0,0.0,0.0,0.0,0.0,0.0,0.0,0.0,0.0,0.0,0.0,0.0,0.0,0.0,0.0,0.0,0.0,0.0,0.0,0.0,0.0,0.0,0.0,0.0,0.0,0.0,0.0,0.0,0.0,0.0,0.0,0.0,0.0,0.0,0.0,0.0,0.0,0.0,0.0,0.0,5.5943,5.5924,5.5846,5.5826,5.5806,5.5806,5.5806,5.5826,5.5905,5.5943,0.0,0.0,0.0,0.0,0.0,0.0,0.0,0.0,0.0,0.0,0.0,0.0,0.0,0.0,0.0,0.0,0.0,0.0,0.0,0.0,0.0,0.0,0.0,0.0,0.0,0.0,0.0,0.0,0.0,0.0,0.0,0.0,0.0,0.0,0.0,0.0,0.0,0.0,0.0,0.0,0.0,0.0,0.0,0.0,0.0,0.0,0.0,0.0,0.0,0.0,0.0,0.0,0.0,0.0,0.0,0.0,0.0,0.0,0.0,0.0,0.0,0.0,0.0,0.0,0.0,0.0,0.0,0.0,0.0,0.0,0.0,0.0,0.0,0.0,0.0,0.0,0.0,0.0,0.0,0.0,0.0,0.0,0.0,0.0,0.0,0.0,0.0,0.0,0.0,0.0,0.0,0.0,0.0,0.0,0.0,0.0,0.0,0.0,0.0,0.0,0.0,0.0,5.5962,5.5905,5.5924,5.5905,5.5905,5.5905,5.5905,5.5943,5.5999,5.5999,0.0,0.0,0.0,0.0,0.0,0.0,0.0,0.0,0.0,0.0,0.0,0.0,0.0,0.0,0.0,0.0,0.0,0.0,0.0,0.0,0.0,0.0,0.0,0.0,0.0,0.0,0.0,0.0,0.0,0.0,0.0,0.0,0.0,0.0,0.0,0.0,0.0,0.0,0.0,0.0,0.0,0.0,0.0,0.0,0.0,0.0,0.0,0.0,0.0,0.0,0.0,0.0,0.0,0.0,0.0,0.0,0.0,0.0,0.0,0.0,0.0,0.0,0.0,0.0,0.0,0.0,0.0,0.0,0.0,0.0,0.0,0.0,0.0,0.0,0.0,0.0,0.0,0.0,0.0,0.0,0.0,0.0,0.0,0.0,0.0,0.0,0.0,0.0,0.0,0.0,0.0,0.0,0.0,0.0,0.0,0.0,0.0,0.0,0.0,0.0,0.0,0.0,5.6019,5.5924,5.5981,5.5943,5.5905,5.5905,5.5905,5.5943,5.5999,5.5999,0.0,0.0,0.0,0.0,0.0,0.0,0.0,0.0,0.0,0.0,0.0,0.0,0.0,0.0,0.0,0.0,0.0,0.0,0.0,0.0,0.0,0.0,0.0,0.0,0.0,0.0,0.0,0.0,0.0,0.0,0.0,0.0,0.0,0.0,0.0,0.0,0.0,0.0,0.0,0.0,0.0,0.0,0.0,0.0,0.0,0.0,0.0,0.0,0.0,0.0,0.0,0.0,0.0,0.0,0.0,0.0,0.0,0.0,0.0,0.0,0.0,0.0,0.0,0.0,0.0,0.0,0.0,0.0,0.0,0.0,0.0,0.0,0.0,0.0,0.0,0.0,0.0,0.0,0.0,0.0,0.0,0.0,0.0,0.0,0.0,0.0,0.0,0.0,0.0,0.0,0.0,0.0,0.0,0.0,0.0,0.0,0.0,0.0,0.0,0.0,0.0,0.0,5.619,5.6133,0.0,5.6151,5.6133,5.6094,5.6094,5.6056,5.5996,0.0,0.0,0.0,0.0,0.0,0.0,0.0,0.0,0.0,0.0,0.0,0.0,0.0,0.0,0.0,0.0,0.0,0.0,0.0,0.0,0.0,0.0,0.0,0.0,0.0,0.0,0.0,0.0,0.0,0.0,0.0,0.0,0.0,0.0,0.0,0.0,0.0,0.0,0.0,0.0,0.0,0.0,0.0,0.0,0.0,0.0,0.0,0.0,0.0,0.0,0.0,0.0,0.0,0.0,0.0,0.0,0.0,0.0,0.0,0.0,0.0,0.0,0.0,0.0,0.0,0.0,0.0,0.0,0.0,0.0,0.0,0.0,0.0,0.0,0.0,0.0,0.0,0.0,0.0,0.0,0.0,0.0,0.0,0.0,0.0,0.0,0.0,0.0,0.0,0.0,0.0,0.0,0.0,0.0,0.0,0.0,0.0,0.0,0.0,0.0,0.0,0.0,5.6386,5.6315,5.6295,0.0,5.6267,5.6267,5.6228,5.6233,5.6186,5.607,0.0,0.0,0.0,0.0,0.0,0.0,0.0,0.0,0.0,0.0,0.0,0.0,0.0,0.0,0.0,0.0,0.0,0.0,0.0,0.0,0.0,0.0,0.0,0.0,0.0,0.0,0.0,0.0,0.0,0.0,0.0,0.0,0.0,0.0,0.0,0.0,0.0,0.0,0.0,0.0,0.0,0.0,0.0,0.0,0.0,0.0,0.0,0.0,0.0,0.0,0.0,0.0,0.0,0.0,0.0,0.0,0.0,0.0,0.0,0.0,0.0,0.0,0.0,0.0,0.0,0.0,0.0,0.0,0.0,0.0,0.0,0.0,0.0,0.0,0.0,0.0,0.0,0.0,0.0,0.0,0.0,0.0,0.0,0.0,0.0,0.0,0.0,0.0,0.0,0.0,0.0,0.0,0.0,0.0,0.0,0.0,0.0,0.0,0.0,0.0,0.0,0.0,5.6504,5.6378,5.6311,5.6309,5.6288,5.6297,5.6297,5.629,5.628,0.0,0.0,0.0,0.0,0.0,0.0,0.0,0.0,0.0,0.0,0.0,0.0,0.0,0.0,0.0,0.0,0.0,0.0,0.0,0.0,0.0,0.0,0.0,0.0,0.0,0.0,0.0,0.0,0.0,0.0,0.0,0.0,0.0,0.0,0.0,0.0,0.0,0.0,0.0,0.0,0.0,0.0,0.0,0.0,0.0,0.0,0.0,0.0,0.0,0.0,0.0,0.0,0.0,0.0,0.0,0.0,0.0,0.0,0.0,0.0,0.0,0.0,0.0,0.0,0.0,0.0,0.0,0.0,0.0,0.0,0.0,0.0,0.0,0.0,0.0,0.0,0.0,0.0,0.0,0.0,0.0,0.0,0.0,0.0,0.0,0.0,0.0,0.0,0.0,0.0,0.0,0.0,0.0,0.0,0.0,0.0,0.0,0.0,0.0,0.0,0.0,0.0,0.0,5.6504,5.6507,5.6496,5.6451,5.6484,5.6493,5.6454,5.6434,5.6359,5.6214,0.0,0.0,0.0,0.0,0.0,0.0,0.0,0.0,0.0,0.0,0.0,0.0,0.0,0.0,0.0,0.0,0.0,0.0,0.0,0.0,0.0,0.0,0.0,0.0,0.0,0.0,0.0,0.0,0.0,0.0,0.0,0.0,0.0,0.0,0.0,0.0,0.0,0.0,0.0,0.0,0.0,0.0,0.0,0.0,0.0,0.0,0.0,0.0,0.0,0.0,0.0,0.0,0.0,0.0,0.0,0.0,0.0,0.0,0.0,0.0,0.0,0.0,0.0,0.0,0.0,0.0,0.0,0.0,0.0,0.0,0.0,0.0,0.0,0.0,0.0,0.0,0.0,0.0,0.0,0.0,0.0,0.0,0.0,0.0,0.0,0.0,0.0,0.0,0.0,0.0,0.0,0.0,0.0,0.0,0.0,0.0,0.0,0.0,0.0,0.0,0.0,0.0,5.6543,5.6582,5.6588,5.6544,5.6883,5.7109,5.7051,5.7383,5.7493,5.7324,0.0,0.0,0.0,0.0,0.0,0.0,0.0,0.0,0.0,0.0,0.0,0.0,0.0,0.0,0.0,0.0,0.0,0.0,0.0,0.0,0.0,0.0,0.0,0.0,0.0,0.0,0.0,0.0,0.0,0.0,0.0,0.0,0.0,0.0,0.0,0.0,0.0,0.0,0.0,0.0,0.0,0.0,0.0,0.0,0.0,0.0,0.0,0.0,0.0,0.0,0.0,0.0,0.0,0.0,0.0,0.0,0.0,0.0,0.0,0.0,0.0,0.0,0.0,0.0,0.0,0.0,0.0,0.0,0.0,0.0,0.0,0.0,0.0,0.0,0.0,0.0,0.0,0.0,0.0,0.0,0.0,0.0,0.0,0.0,0.0,0.0,0.0,0.0,0.0,0.0,0.0,0.0,0.0,0.0,0.0,0.0,0.0,0.0,0.0,0.0,0.0,0.0,5.6601,5.668,5.6719,5.6719,5.75,5.8027,5.8027,5.875,5.914,5.9004,0.0,0.0,0.0,0.0,0.0,0.0,0.0,0.0,0.0,0.0,0.0,0.0,0.0,0.0,0.0,0.0,0.0,0.0,0.0,0.0,0.0,0.0,0.0,0.0,0.0,0.0,0.0,0.0,0.0,0.0,0.0,0.0,0.0,0.0,0.0,0.0,0.0,0.0,0.0,0.0,0.0,0.0,0.0,0.0,0.0,0.0,0.0,0.0,0.0,0.0,0.0,0.0,0.0,0.0,0.0,0.0,0.0,0.0,0.0,0.0,5.4568,0.0,0.0,0.0,0.0,0.0,0.0,0.0,0.0,0.0,0.0,0.0,0.0,0.0,0.0,0.0,0.0,0.0,0.0,0.0,0.0,0.0,0.0,0.0,0.0,0.0,0.0,0.0,0.0,0.0,0.0,0.0,0.0,0.0,0.0,0.0,0.0,0.0,0.0,0.0,0.0,0.0,5.6601,5.7207,5.7617,5.7617,5.8398,5.8926,5.8926,5.9082,5.914,5.9004,5.8992,0.0,0.0,0.0,0.0,0.0,0.0,0.0,0.0,0.0,0.0,0.0,0.0,0.0,0.0,0.0,0.0,0.0,0.0,0.0,0.0,0.0,0.0,0.0,0.0,0.0,0.0,0.0,0.0,0.0,0.0,0.0,0.0,0.0,0.0,0.0,0.0,0.0,0.0,0.0,0.0,0.0,0.0,0.0,0.0,0.0,0.0,0.0,0.0,0.0,0.0,0.0,0.0,0.0,0.0,0.0,0.0,0.0,0.0,0.0,0.0,5.5254,0.0,0.0,0.0,0.0,0.0,0.0,0.0,0.0,0.0,0.0,0.0,0.0,0.0,0.0,0.0,0.0,0.0,0.0,0.0,0.0,0.0,0.0,0.0,0.0,0.0,0.0,0.0,0.0,0.0,0.0,0.0,0.0,0.0,0.0,0.0,0.0,0.0,0.0,0.0,0.0,5.7168,5.7617,5.8066,5.8476,5.9277,5.9785,5.9785,6.0156,6.0371,6.0293,6.0273,0.0,0.0,0.0,0.0,0.0,0.0,0.0,0.0,0.0,0.0,0.0,0.0,0.0,0.0,0.0,0.0,0.0,0.0,0.0,0.0,0.0,0.0,0.0,0.0,0.0,0.0,0.0,0.0,0.0,0.0,0.0,0.0,0.0,0.0,0.0,0.0,0.0,0.0,0.0,0.0,0.0,0.0,0.0,0.0,0.0,0.0,0.0,0.0,0.0,0.0,0.0,0.0,0.0,5.5527,5.5898,5.6601,5.6601,5.6601,5.6601,5.6601,5.6601,5.6601,0.0,0.0,0.0,0.0,0.0,0.0,0.0,0.0,0.0,0.0,0.0,0.0,0.0,0.0,0.0,0.0,0.0,0.0,0.0,0.0,0.0,0.0,0.0,0.0,0.0,5.6601,5.6601,0.0,0.0,0.0,0.0,0.0,0.0,0.0,0.0,0.0,0.0,0.0,0.0,5.8008,5.8242,5.8613,5.9336,6.0137,6.0625,6.0625,6.1289,6.1699,6.1699,6.164,6.1621,0.0,0.0,0.0,0.0,0.0,0.0,0.0,0.0,0.0,0.0,0.0,0.0,0.0,0.0,0.0,0.0,0.0,0.0,0.0,0.0,0.0,0.0,0.0,0.0,0.0,0.0,0.0,0.0,0.0,0.0,0.0,0.0,5.3652,5.3652,0.0,0.0,0.0,0.0,0.0,0.0,0.0,0.0,0.0,0.0,0.0,0.0,0.0,5.5424,5.625,5.6269,5.6308,5.6426,5.6426,5.6484,5.6601,5.6601,5.6601,5.6601,5.6601,0.0,5.6601,5.6601,0.0,0.0,0.0,0.0,0.0,0.0,0.0,0.0,0.0,0.0,0.0,0.0,0.0,0.0,0.0,0.0,0.0,0.0,0.0,0.0,0.0,0.0,5.6601,5.6601,5.6601,5.6601,0.0,5.6601,5.6601,5.6601,5.6601,0.0,0.0,0.0,0.0,0.0,0.0,0.0,5.8926,5.9648,6.0117,6.0234,6.1015,6.1523,6.1523,6.1621,6.1699,6.1699,6.1699,6.1699,6.1699,6.1617,0.0,0.0,0.0,0.0,0.0,0.0,0.0,0.0,0.0,0.0,0.0,0.0,0.0,0.0,0.0,0.0,0.0,0.0,0.0,0.0,0.0,0.0,0.0,0.0,0.0,0.0,0.0,0.0,0.0,5.3769,5.4004,5.4004,5.3981,5.4113,0.0,0.0,0.0,0.0,0.0,0.0,0.0,0.0,0.0,5.6015,5.5996,5.6172,5.6601,5.6601,5.6601,5.6601,5.6601,5.6601,5.6601,5.6601,5.6601,5.6601,5.6601,5.6601,5.6601,5.6601,5.6601,5.6601,0.0,0.0,0.0,0.0,5.6601,5.6601,5.6601,5.6601,0.0,5.6601,0.0,0.0,0.0,0.0,0.0,0.0,0.0,0.0,0.0,0.0,0.0,5.6601,5.6601,5.6601,5.6601,5.6601,5.6601,0.0,5.6601,5.6758,5.7246,0.0,0.0,0.0,0.0,5.8926,5.9765,6.0176,6.0586,6.1074,6.1465,6.1699,6.1699,6.1699,6.1699,6.1699,6.1699,6.1699,6.1699,6.164,6.157,0.0,0.0,0.0,0.0,0.0,0.0,0.0,0.0,0.0,0.0,0.0,0.0,0.0,0.0,0.0,0.0,0.0,0.0,0.0,0.0,0.0,0.0,0.0,0.0,0.0,0.0,0.0,0.0,5.4512,5.4668,5.4668,5.4617,5.4846,0.0,0.0,0.0,0.0,0.0,0.0,5.6495,5.6534,5.6552,5.6601,5.6601,5.6601,5.6601,5.6601,5.6601,5.6601,5.6601,5.6601,5.6601,5.6601,5.6601,5.6601,5.6601,5.6601,5.6601,5.6601,5.6601,5.6601,5.6601,5.6601,5.6601,5.6601,5.6601,5.6601,5.6601,5.6601,5.6601,5.6601,0.0,5.6601,5.6601,0.0,0.0,0.0,0.0,5.6601,5.6601,5.6601,5.6601,5.6601,5.6601,5.6601,5.6601,5.6777,5.6875,0.0,5.6777,5.7148,5.7793,0.0,0.0,0.0,0.0,5.9805,6.0625,6.0723,6.0976,6.1621,6.1699,6.1699,6.1699,6.1699,6.1699,6.1699,6.1699,6.1699,6.1699,6.164,6.1621,6.1601,0.0,0.0,0.0,0.0,0.0,0.0,0.0,0.0,0.0,0.0,0.0,0.0,0.0,0.0,0.0,0.0,0.0,0.0,0.0,0.0,0.0,0.0,0.0,0.0,0.0,0.0,0.0,0.0,0.0,5.6465,5.6464,0.0,0.0,0.0,0.0,5.63,5.6432,5.6495,5.6495,5.6556,5.6601,5.6601,5.6601,5.6601,5.6601,5.6601,5.6601,5.6601,5.6601,5.6601,5.6601,5.6601,5.6601,5.6601,5.6601,5.6601,5.6601,5.6601,5.6601,5.6601,5.6601,5.6601,5.6601,5.6601,5.6601,5.6601,5.6601,5.6601,5.6601,5.6601,5.6601,5.6601,5.6601,5.6601,0.0,0.0,5.6601,5.6601,5.6601,5.6601,5.6601,5.6601,5.6601,5.6601,5.6601,5.7246,5.7598,0.0,5.7265,5.7851,5.789,0.0,5.9414,6.0215,6.0332,6.0644,6.1523,6.1621,6.164,6.1699,6.1699,6.1699,6.1699,6.1699,6.1699,6.1699,6.1699,6.1699,6.1699,6.1699,6.168,6.1601,6.1596,0.0,0.0,0.0,0.0,0.0,0.0,0.0,0.0,0.0,0.0,0.0,0.0,0.0,0.0,0.0,0.0,0.0,0.0,0.0,0.0,0.0,0.0,0.0,0.0,0.0,0.0,0.0,0.0,5.6601,5.6562,0.0,5.6503,5.6505,5.6469,5.6437,5.6504,5.655,5.655,5.6593,5.6601,5.6601,5.6601,5.6601,5.6601,5.6601,5.6601,5.6601,5.6601,5.6601,5.6601,5.6601,5.6601,5.6601,5.6601,5.6601,5.6601,5.6601,5.6601,5.6601,5.6601,5.6601,5.6601,5.6601,5.6601,5.6601,5.6601,5.6601,5.6601,5.6601,5.6601,5.6601,5.6601,5.6601,5.6601,5.6601,5.6601,5.6601,5.6601,5.6601,5.6601,5.6601,5.7031,5.7441,5.7441,5.8125,5.8633,5.832,5.8515,5.8906,5.9414,5.9765,6.0254,6.1113,6.123,6.1348,6.166,6.1699,6.1699,6.1699,6.1699,6.1699,6.1699,6.1699,6.1699,6.1699,6.1699,6.1699,6.1699,6.1699,6.1699,6.166,6.1654,6.1569,0.0,0.0,0.0,0.0,0.0,0.0,0.0,0.0,0.0,0.0,0.0,0.0,0.0,0.0,0.0,0.0,0.0,0.0,0.0,0.0,0.0,0.0,0.0,0.0,0.0,0.0,5.6601,5.6601,5.6562,5.6523,5.6523,5.653,5.6539,5.6539,5.6567,5.6601,5.6601,5.6601,5.6601,5.6601,5.6601,5.6601,5.6601,5.6601,5.6601,5.6601,5.6601,5.6601,5.6601,5.6601,5.6601,5.6601,5.6601,5.6601,5.6601,5.6601,5.6601,5.6601,5.6601,5.6601,5.6601,5.6601,5.6601,5.6601,5.6601,5.6601,5.6601,5.6601,5.6601,5.6601,5.6601,5.6601,5.6601,5.6601,5.6601,5.6601,5.6601,5.6816,5.7031,5.7031,5.7695,5.834,5.834,5.9004,5.9609,5.9609,5.9609,5.9765,6.0312,6.0644,6.1035,6.1601,6.1699,6.1699,6.1699,6.1699,6.1699,6.1699,6.1699,6.1699,6.1699,6.1973,6.2012,6.1719,6.1973,6.2012,6.1719,6.1697,6.1694,6.1694,6.1691,6.1586,6.1369,0.0,0.0,0.0,0.0,0.0,0.0,0.0,0.0,0.0,0.0,0.0,0.0,0.0,0.0,0.0,0.0,0.0,0.0,0.0,0.0,0.0,0.0,0.0,5.6601,5.6601,5.6601,5.6601,5.6601,5.6601,5.6601,5.6601,5.6601,5.6601,5.6601,5.6601,5.6601,5.6601,5.6601,5.6601,5.6601,5.6601,5.6601,5.6601,5.6601,5.6601,5.6601,5.6601,5.6601,5.6601,5.6601,5.6601,5.6601,5.6601,5.6601,5.6601,5.6601,5.6601,5.6601,5.6601,5.6601,5.6601,5.6601,5.6601,5.6601,5.6601,5.6601,5.6601,5.6601,5.6601,5.6601,5.6601,5.6601,5.6601,5.6621,5.664,5.664,5.7285,5.7949,5.7949,5.8594,5.9238,5.9238,5.9863,6.0449,6.0449,6.0449,6.0449,6.0449,6.1133,6.1699,6.1699,6.1699,0.0,6.1699,6.1699,6.1719,6.1738,6.1738,6.1758,6.1777,6.2558,6.2676,6.1836,6.2578,6.2656,6.1777,6.1743,6.172,6.1701,6.1701,6.1634,6.1492,0.0,0.0,0.0,0.0,0.0,0.0,0.0,0.0,0.0,0.0,0.0,0.0,0.0,0.0,0.0,0.0,0.0,0.0,0.0,0.0,0.0,0.0,5.6601,5.6601,5.6601,5.6601,5.6601,5.6601,5.6601,5.6601,5.6601,5.6601,5.6601,5.6601,5.6601,5.6601,5.6601,5.6601,5.6601,5.6601,5.6601,5.6601,5.6601,5.6601,5.6601,5.6601,5.6601,5.6601,5.6601,5.6601,5.6601,5.6601,5.6601,5.6601,5.6601,5.6601,5.6601,5.6601,5.6601,5.6601,5.6601,5.6601,5.6601,5.6601,5.6601,5.6601,5.6601,5.6601,5.6601,5.6601,5.6601,5.6601,5.6601,5.7051,5.7539,5.7539,5.8183,5.8848,5.8848,5.9473,6.0078,6.0078,6.0742,6.1348,6.1348,6.1348,6.1348,6.1348,6.1543,6.1699,6.1699,6.1699,0.0,6.1699,6.1699,6.1933,6.2578,6.2637,6.289,6.3535,6.3808,6.3848,6.3594,6.3808,6.3555,6.2676,6.2635,6.2354,6.172,6.1603,6.1553,0.0,0.0,0.0,0.0,0.0,0.0,0.0,0.0,0.0,0.0,0.0,0.0,0.0,0.0,0.0,0.0,0.0,0.0,0.0,0.0,0.0,0.0,5.6601,5.6601,5.6601,5.6601,5.6601,5.6601,5.6601,5.6601,5.6601,5.6601,5.6601,5.6601,5.6601,5.6601,5.6601,5.6601,5.6601,5.6601,5.6601,5.6601,5.6601,5.6601,5.6601,5.6601,5.6601,5.6601,5.6601,5.6601,5.6601,0.0,5.6601,5.6601,5.6601,5.6601,5.6601,0.0,0.0,0.0,0.0,0.0,5.6601,5.6601,5.6601,5.6601,5.6601,5.6601,5.6601,5.6601,5.6601,5.6855,5.7148,5.7148,5.7773,5.8437,5.8437,5.9062,5.9707,5.9707,6.0332,6.0937,6.0937,6.1348,6.1699,6.1699,6.1699,0.0,6.1699,6.1699,6.1699,6.1699,6.1699,6.1699,6.1699,6.2012,6.2441,6.2949,6.332,6.375,6.4258,6.4629,0.0,0.0,0.0,6.4453,6.3574,6.3535,0.0,0.0,0.0,6.2697,6.2735,0.0,0.0,0.0,6.1157,6.0901,0.0,0.0,0.0,0.0,0.0,0.0,0.0,0.0,0.0,0.0,0.0,0.0,0.0,0.0,0.0,0.0,5.6601,5.6601,5.6601,5.6601,5.6601,5.6601,5.6601,5.6601,5.6601,5.6601,5.6601,5.6601,5.6601,5.6601,5.6601,0.0,0.0,0.0,0.0,5.6601,5.6601,5.6601,5.6601,5.6601,5.6601,5.6601,5.6601,5.6601,5.6601,5.6601,5.6601,5.6601,5.6601,5.6601,5.6601,5.6601,5.6601,5.6601,5.6601,5.6601,5.6601,5.6601,5.6601,0.0,0.0,5.6601,5.668,5.6758,5.6758,5.7363,5.8047,5.8047,5.8672,5.9336,5.9336,5.9941,6.0547,6.0547,6.1133,6.1699,6.1699,6.1699,6.1699,6.1699,6.1699,6.1699,6.1699,6.1699,6.1699,6.1699,6.1699,6.1738,6.1836,6.2519,6.3086,6.3262,0.0,0.0,6.457,6.5293,6.543,6.4648,6.5234,6.5254,6.4473,6.4355,6.4297,6.4297,6.4293,6.4301,6.4301,6.3491,6.2976,6.2679,6.1428,6.088,0.0,0.0,0.0,0.0,0.0,0.0,0.0,0.0,0.0,0.0,0.0,0.0,0.0,0.0,0.0,5.6601,5.6601,5.6601,5.6601,5.6601,5.6601,5.6601,5.6601,5.6601,5.6601,5.6601,5.6601,5.6601,5.6601,5.6601,5.6601,5.6601,5.6601,5.6601,5.6601,5.6601,5.6601,5.6601,5.6601,5.6601,0.0,0.0,5.6601,5.6601,5.6601,5.6601,5.6601,5.6601,5.6601,5.6601,5.6601,5.6601,5.6601,5.6601,5.6601,5.6601,5.6601,5.6601,5.6601,5.6601,5.6601,5.6601,5.707,5.7656,5.7656,5.8262,0.0,5.8945,5.9531,6.0176,6.0176,6.0801,6.1445,6.1445,6.1582,6.1699,6.1699,6.1699,6.1699,6.1699,6.1699,6.1699,6.1699,6.1699,6.1699,6.1699,6.1699,6.1953,6.2656,6.289,6.3535,6.4941,6.5254,6.5625,6.6348,6.6543,6.6582,6.6406,6.5898,6.5527,6.5351,6.4668,6.4297,6.4297,6.4291,6.4304,6.4301,6.3969,6.3862,6.3911,6.1998,6.1019,0.0,0.0,0.0,0.0,0.0,0.0,0.0,0.0,0.0,0.0,0.0,5.6601,5.6601,0.0,5.6601,5.6601,5.6601,5.6601,5.6601,5.6601,5.6601,5.6601,5.6601,5.6601,5.6601,5.6601,5.6601,5.6601,5.6601,5.6601,5.6601,5.6601,5.6601,5.6601,5.6601,5.6601,5.6601,5.6601,5.6601,5.6601,5.6601,5.6601,5.6601,5.6601,5.6601,5.6601,5.6601,5.6601,5.6621,5.707,5.7519,5.789,5.789,5.7363,5.6601,5.6601,5.6601,5.6601,5.6601,5.6601,5.668,5.7109,5.7558,5.7988,5.8418,5.914,5.9805,5.9805,6.039,6.1055,6.1055,6.1367,6.1699,6.1699,6.1699,6.1699,6.1699,6.1699,6.1699,6.1699,6.1699,6.1699,6.1699,6.1699,6.1699,6.1699,6.207,6.2519,6.2949,6.3769,6.4629,6.5508,6.5996,6.6426,6.6855,6.6894,6.6894,6.6894,6.6484,6.625,6.625,6.582,6.5604,6.5595,6.5606,6.5583,6.5544,6.5055,6.4794,6.4755,6.3302,6.2488,0.0,0.0,0.0,0.0,0.0,0.0,0.0,0.0,5.6601,5.6601,5.6601,5.6601,5.6601,5.6601,5.6601,5.6601,5.6601,5.6601,5.6601,5.6601,5.6601,5.6601,5.6601,5.6601,5.6601,5.6601,5.6601,5.6601,5.6601,5.6601,5.6601,5.6601,5.6601,5.6601,5.6601,5.6601,5.6601,5.6601,5.6699,5.6855,5.6855,5.6933,5.7109,5.7109,5.7109,5.7109,5.7109,5.7109,5.7168,5.7851,5.8574,5.9199,5.9199,5.834,5.7109,5.7109,5.7109,5.7109,5.7109,5.7109,5.7226,5.793,5.8262,5.8515,5.9219,6.0,6.0644,6.0644,6.1152,6.1699,6.1699,6.1699,6.1699,6.1699,6.1699,6.1699,6.1699,6.1699,6.1699,6.1699,6.1699,6.1699,6.1699,6.1836,6.1953,6.1953,6.2558,6.3125,6.3457,6.4726,6.5664,6.582,6.6484,6.6894,6.6894,6.6894,6.6894,6.6894,6.6894,6.6894,6.6894,6.6894,6.6906,6.6893,6.6893,6.6854,6.6795,6.6151,6.5758,6.5561,6.4879,6.4285,5.6601,5.6601,5.6601,5.6601,5.6601,5.6601,0.0,0.0,5.6601,5.6601,5.6601,5.6601,5.6601,5.6601,5.6601,5.6601,5.6601,5.6601,5.6601,5.6601,5.6601,5.6601,5.6601,5.6601,5.6601,5.6601,5.6601,5.6601,5.6601,5.6601,5.6601,5.6601,5.6601,5.6601,5.6601,5.6601,5.6601,5.6601,5.6992,5.7754,5.7754,5.8164,5.8906,5.8906,5.8906,5.8906,5.8906,5.8906,5.8926,5.9004,5.9101,5.9199,5.9199,5.9082,5.8906,5.8906,5.8906,5.8906,5.8906,5.8906,5.8926,5.9023,5.9531,6.0137,6.0234,6.0879,6.1543,6.1543,6.1621,6.1699,6.1699,6.1699,6.1699,6.1699,6.1699,6.1699,6.1699,6.1699,6.1699,6.1699,6.1699,6.1699,6.1699,6.2344,6.2851,6.2851,6.2949,6.3555,6.5117,6.5488,6.5898,6.668,6.6836,6.6894,6.6894,6.6894,6.6894,6.6894,6.6894,6.6894,6.6894,6.6901,6.6898,6.6893,6.6834,6.6815,6.6795,6.6717,6.6658,6.6634,6.6536,6.5522,5.6601,5.6601,5.6601,5.6601,5.6601,5.6601,5.6601,5.6601,5.6601,5.6601,5.6601,5.6601,5.6601,5.6601,5.6601,0.0,5.6601,5.6601,5.6601,5.6601,5.6601,5.6601,5.6601,5.6601,5.6601,5.6601,5.6601,5.6601,5.6601,5.6601,5.6601,5.6601,5.6601,5.6601,5.709,5.7363,5.7363,5.7851,5.8301,5.8652,5.8652,5.8848,5.9199,5.9199,5.9199,5.9199,5.9199,5.9473,5.9902,5.9902,6.0195,6.0644,6.0644,6.0644,6.0547,5.9551,5.9199,5.9199,5.9199,5.9199,5.9277,5.9746,6.0137,6.0488,6.0996,6.1406,6.1699,6.1699,6.1699,6.1699,6.1699,6.1699,6.1699,6.1699,6.1699,6.1699,6.1699,6.1699,6.1699,6.1699,6.1699,6.1699,6.1699,6.2422,6.3164,6.3672,6.4199,6.4785,6.5508,6.6035,6.6504,6.6855,6.6894,6.6894,6.6894,6.6894,6.6894,6.6894,6.6894,6.6894,6.6894,6.6898,6.6893,6.6893,6.6834,6.6795,6.6795,6.6795,6.6795,6.6795,6.6795,6.6343,5.6601,5.6601,5.6601,5.6601,5.6601,5.6601,5.6601,5.6601,5.6601,5.6601,5.6601,5.6601,5.6601,5.6601,5.6601,5.6601,5.6601,5.6601,5.6601,5.6601,5.6601,5.6601,5.6601,5.6601,5.6601,5.6601,5.6601,5.6601,5.6601,5.6601,5.6601,5.6836,5.6953,5.6953,5.7793,5.8262,5.8262,5.8887,5.9316,5.9531,5.9531,5.9668,5.9883,5.9883,5.9883,5.9883,5.9883,6.0215,6.0762,6.0762,6.1133,6.1699,6.1699,6.1699,6.1543,6.0332,5.9883,5.9883,5.9883,5.9883,5.998,6.0566,6.0762,6.0879,6.1504,6.1699,6.1699,6.1699,6.1699,6.1699,6.1699,6.1699,6.1699,6.1699,6.1699,6.1699,6.1699,6.1699,6.1699,6.1699,6.1699,6.1777,6.2012,6.2773,6.3652,6.4531,6.539,6.5957,6.5957,6.6504,6.6894,6.6894,6.6894,6.6894,6.6894,6.6894,6.6894,6.6894,6.6894,6.6894,6.6892,6.6898,6.6883,6.6873,6.6815,6.6795,6.6795,6.6795,6.6795,6.6795,6.6795,6.6795,5.6601,5.6601,5.6601,5.6601,5.6601,5.6601,5.6601,5.6601,5.6601,5.6601,5.6601,5.6601,5.6601,5.6601,5.6601,5.6601,5.6601,5.6601,5.6601,5.6601,5.6601,5.6601,5.6601,5.6601,0.0,5.6601,5.6601,5.6601,5.6601,5.6601,5.6601,5.7402,5.7851,5.7851,5.8711,5.916,5.916,5.9199,5.959,6.0351,6.0351,6.0801,6.1621,6.1621,6.1621,6.1621,6.1621,6.164,6.166,6.166,6.168,6.1699,6.1699,6.1699,6.1699,6.164,6.1621,6.1621,6.1621,6.1621,6.1621,6.164,6.166,6.168,6.1699,6.1699,6.1699,6.1699,6.1699,6.1699,6.1699,6.1699,6.1699,6.1699,6.1699,6.1699,6.1699,6.1699,6.1699,6.1699,6.1699,6.1973,6.2812,6.3672,6.4551,6.543,6.6308,6.6855,6.6855,6.6875,6.6894,6.6894,6.6894,6.6894,6.6894,6.6894,6.6894,6.6894,6.6894,6.689,6.6898,6.6895,6.6875,6.6795,6.6795,6.6795,6.6795,6.6795,6.6795,6.6795,6.6795,6.6795,5.6601,5.6601,5.6601,5.6601,5.6601,5.6601,5.6601,5.6601,5.6601,5.6601,5.6601,5.6601,5.6601,5.6601,5.6601,5.6601,5.6601,5.6601,5.6601,5.6601,5.6601,5.6601,5.6601,0.0,0.0,0.0,0.0,5.6601,5.6601,5.6855,5.7422,5.7734,5.8164,5.873,5.9551,6.0,6.0,6.0566,6.0996,6.1269,6.1269,6.1426,6.1699,6.1699,6.1699,6.1699,6.1699,6.1699,6.1699,6.1699,6.1699,6.1699,6.1699,6.1699,6.1699,6.1699,6.1699,6.1699,6.1699,6.1699,6.1699,6.1699,6.1699,6.1699,6.1699,6.1699,6.1699,6.1699,6.1699,6.1699,6.1699,6.1699,6.1699,6.1699,6.1699,6.1699,6.1699,6.1699,6.1699,6.1699,6.1699,6.1973,6.2851,6.3711,6.4785,6.623,6.6719,6.6894,6.6894,6.6894,6.6894,6.6894,6.6894,6.6894,6.6894,6.6894,6.6894,6.6894,6.6894,6.689,6.6898,6.6902,6.6863,6.6795,6.6795,6.6795,6.6795,6.6795,6.6795,6.6795,6.6795,6.6795,5.6601,5.6601,5.6601,5.6601,5.6601,5.6601,5.6601,5.6601,5.6601,5.6601,5.6601,5.6601,5.6598,5.66,5.6601,5.66,5.6598,5.6599,5.6601,5.6601,5.6601,5.6601,5.6601,5.6601,0.0,0.0,0.0,5.6601,5.6894,5.7305,5.7871,5.8476,5.9043,5.9609,6.043,6.0859,6.0859,6.1426,6.1699,6.1699,6.1699,6.1699,6.1699,6.1699,6.1699,6.1699,6.1699,6.1699,6.1699,6.1699,6.1699,6.1699,6.1699,6.1699,6.1699,6.1699,6.1699,6.1699,6.1699,6.1699,6.1699,6.1699,6.1699,6.1699,6.1699,6.1699,6.1699,6.1699,6.1699,6.1699,6.1699,6.1699,6.1699,6.1699,6.1699,6.1699,6.1699,6.1699,6.1699,6.1699,6.1699,6.207,6.3262,6.4453,6.5605,6.6738,6.6894,6.6894,6.6894,6.6894,6.6894,6.6894,6.6894,6.6894,6.6894,6.6894,6.6894,6.6894,6.6892,6.6904,6.6907,6.6878,6.6834,6.6795,6.6795,6.6795,6.6795,6.6795,6.6795,6.6795,6.6795,6.6795,5.6601,5.6601,5.6601,5.6601,5.6601,5.6601,5.6601,5.6601,5.6601,5.6601,5.6601,5.66,5.6595,0.0,5.6601,5.6595,5.6598,5.6598,5.6601,5.6601,5.6601,0.0,0.0,0.0,0.0,0.0,0.0,5.666,0.0,5.793,5.7969,5.9512,6.043,6.0469,6.1269,6.1699,6.1699,6.1699,6.1699,6.1699,6.1699,6.1699,6.1699,6.1699,6.1699,6.1699,6.1699,6.1699,6.1699,6.1699,6.1699,6.1699,6.1699,6.1699,6.1699,6.1699,6.1738,6.1777,6.1777,6.1738,6.1719,6.1758,6.1777,6.1777,6.1816,6.1836,6.1836,6.1836,6.1836,6.1836,6.1836,6.1836,6.1836,6.1836,6.1836,6.1836,6.1836,6.1836,6.1836,6.1836,6.1875,6.2422,6.4082,6.5781,6.6894,6.6894,6.6894,6.6894,6.6894,6.6894,6.6894,6.6894,6.6894,6.6894,6.6894,6.6894,6.6894,6.6894,6.6898,6.6902,6.6901,6.6828,6.6795,6.6795,6.6795,6.6795,6.6795,6.6795,6.6815,6.6873,6.6873,6.6893,5.6601,5.6601,5.6601,5.6601,5.6601,5.6601,5.6601,5.6601,5.6601,5.6601,5.6601,5.66,5.6595,5.6595,0.0,5.6591,5.6598,0.0,5.6602,5.6598,0.0,5.6601,0.0,5.6601,5.6601,5.6601,0.0,0.0,5.7773,5.8183,5.8828,5.9844,6.0703,6.1348,6.1582,6.1699,6.1699,6.1699,6.1699,6.1699,6.1699,6.1699,6.1699,6.1699,6.1697,6.1697,6.1697,6.1704,6.1694,6.1694,6.1694,6.1694,6.1694,6.1694,6.1694,6.1694,6.2104,6.2668,6.2668,6.2244,6.1816,6.2461,6.2676,6.2793,6.3437,6.3633,6.3633,6.3633,6.3633,6.3633,6.3633,6.3633,6.3633,6.3633,6.3633,6.3633,6.3633,6.3633,6.3633,6.3633,6.416,6.4746,6.5195,6.6172,6.6894,6.6894,6.6894,6.6894,6.6894,6.6894,6.6894,6.6894,6.6894,6.6894,6.6894,6.6894,6.6893,6.6895,6.6902,6.6878,6.6824,6.682,6.6795,6.6795,6.6795,6.6795,6.6795,6.6795,6.7127,6.7771,6.7771,6.8122,5.6601,5.6601,5.6601,5.6601,5.6601,5.6601,5.6601,5.6601,5.6601,5.6601,5.6599,5.6593,5.6602,5.6591,5.661,5.6602,0.0,0.0,5.6598,5.6595,5.66,0.0,5.6601,0.0,5.6601,5.6601,5.6953,0.0,5.8242,5.8848,5.9687,6.0527,6.1191,6.168,6.1699,6.1699,6.1699,6.1699,6.1699,6.1699,6.1699,6.1698,6.1692,6.1692,6.1707,6.1694,0.0,6.1705,6.1697,6.1697,6.1932,6.2264,6.2264,6.2498,6.283,6.283,6.3142,6.3572,6.3572,6.3247,6.2922,6.3417,6.3574,6.3652,6.414,6.4297,6.4297,6.4297,6.4297,6.4297,6.4297,6.4297,6.4297,6.4297,6.4297,6.4297,6.4297,6.4297,6.4297,6.4297,6.5,6.5605,6.5605,6.6328,6.6894,6.6894,6.6894,6.6894,6.6894,6.6894,6.6894,6.6894,6.6894,6.6894,6.6894,6.6894,6.689,6.6898,6.6893,6.6873,6.6795,6.6795,6.6795,6.6795,6.7185,6.7361,6.7361,6.7752,6.8181,6.8669,6.8669,6.8923,5.6601,5.6601,5.6601,5.6601,5.6601,5.6601,5.6601,5.6601,5.6601,5.6601,5.6591,5.6591,5.6607,5.6598,5.6606,5.6606,5.6606,5.6591,5.6607,5.6593,5.6597,5.6601,5.6601,5.6601,5.6601,5.6601,5.7012,5.8008,5.8769,5.9551,6.0351,6.123,6.1698,6.1698,6.1699,6.1699,6.1699,6.1699,6.1699,6.1699,6.1699,6.1694,6.1705,6.1701,6.169,6.1704,6.1709,0.0,6.1876,6.1876,6.2384,6.3164,6.3164,6.3633,6.4297,6.4297,6.4375,6.4472,6.4472,6.455,6.4614,6.4508,6.4472,6.4492,6.4609,6.4648,6.4648,6.4648,6.4648,6.4648,6.4648,6.4648,6.4648,6.4648,6.4648,6.4648,6.4648,6.4648,6.4648,6.4648,6.5254,6.5762,6.5762,6.6406,6.6894,6.6894,6.6894,6.6894,6.6894,6.6894,6.6894,6.6894,6.6894,6.6894,6.6894,6.6894,6.6908,6.6902,6.6898,6.6854,6.6795,6.6795,6.6854,6.6971,6.7712,6.8161,6.8279,6.902,6.945,6.9567,6.9567,6.9625,5.6601,5.6601,5.6601,5.6601,5.6601,5.6601,5.6601,5.6601,5.6601,5.6601,5.6591,5.6606,5.6591,5.6606,5.6606,5.6606,5.6606,5.6606,5.6591,5.6595,5.66,5.6597,5.66,5.6601,5.6601,5.6601,0.0,0.0,0.0,5.9551,6.0351,6.1238,6.169,6.169,6.1707,6.1692,6.1692,6.1692,6.1692,6.1692,6.1692,6.169,6.1704,6.1709,6.1701,6.1705,6.1701,0.0,6.2774,6.2774,6.3282,6.4062,6.4062,6.416,6.4297,6.4297,6.4765,6.537,6.537,6.5819,6.6249,6.5594,6.5363,6.5508,6.623,6.6445,6.6445,6.6445,6.6445,6.6445,6.6445,6.6445,6.6445,6.6445,6.6445,6.6445,6.6445,6.6445,6.6445,6.6445,6.6562,6.668,6.668,6.6797,6.6894,6.6894,6.6894,6.6894,6.6894,6.6894,6.6894,6.6894,6.6894,6.6894,6.6894,6.6904,6.6891,6.6898,6.6848,6.6815,6.6795,6.6795,6.7146,6.7869,6.8025,6.8454,6.9176,6.9333,6.9762,7.0465,7.0465,7.0855,5.6601,5.6601,5.6601,5.6601,5.6601,5.6601,5.6601,5.6601,5.6601,5.6595,5.6607,5.6598,5.6606,5.6606,5.6606,5.6606,5.6606,5.6606,5.6606,5.6602,5.6593,5.6593,5.6593,5.6595,5.6599,5.6599,5.7302,5.9021,0.0,5.9702,6.1006,6.1467,6.1694,6.1701,6.169,6.1697,6.1697,6.1697,6.1697,6.1697,6.1697,6.1697,6.1694,6.1705,6.1954,6.2384,6.2384,0.0,6.3672,6.3672,6.4179,6.498,6.498,6.5234,6.5604,6.5604,6.5878,6.6229,6.6229,6.6483,6.6737,6.6346,6.6211,6.6303,6.6754,6.6894,6.6894,6.6894,6.6894,6.6894,6.6894,6.6894,6.6894,6.6894,6.6894,6.6894,6.6894,6.6894,6.6894,6.6894,6.6894,6.6894,6.6894,6.6894,6.6894,6.6894,6.6894,6.6894,6.6894,6.6894,6.6894,6.6894,6.6894,6.6894,6.6894,6.6898,6.6898,6.6911,6.6844,6.6795,6.6795,6.7244,6.7673,6.8083,6.8981,6.9664,7.0074,7.0523,7.0972,7.1382,7.1382,7.1597,5.6601,5.6601,5.6601,5.6601,5.6601,5.6601,5.6601,5.6601,5.66,5.6595,5.6598,5.6605,5.661,5.6558,5.6528,5.6528,5.6528,5.6528,5.6528,5.6577,5.6591,5.6607,5.6595,5.6591,5.6607,5.6607,0.0,5.897,0.0,0.0,6.1622,6.1697,6.1697,6.1701,6.1701,6.1701,6.1701,6.1701,6.1701,6.1701,6.1701,6.1701,6.1701,6.1701,6.2189,6.3008,6.3008,0.0,0.0,6.457,6.5077,6.5858,6.5858,6.6249,6.6795,6.6795,6.6795,6.6795,6.6795,6.6795,6.6795,6.6795,6.6805,6.6813,6.6878,6.6906,6.6893,6.6894,6.6894,6.6894,6.6894,6.6894,6.6894,6.6894,6.6894,6.6894,6.6894,6.6894,6.6894,6.6894,6.6894,6.6894,6.6894,6.6894,6.6894,6.6894,6.6894,6.6893,6.6894,6.6894,6.6894,6.6893,6.6893,6.6893,6.6893,6.6895,6.6873,6.6873,6.6834,6.6873,6.7068,6.7732,6.8279,6.8649,6.9996,7.0797,7.0972,7.1675,7.2007,7.2007,7.2007,7.2007,5.6601,5.6601,5.6601,5.6601,5.6601,5.6601,5.6601,5.6601,5.66,5.6595,5.6606,5.6606,5.6606,5.6446,5.6324,5.6324,5.6324,5.6324,5.6324,5.6478,5.6606,5.6606,5.6606,5.6606,5.661,5.661,5.7293,5.8968,0.0,0.0,6.1701,6.1701,6.1701,6.1701,6.1701,6.1701,6.1701,6.1701,6.1701,6.1701,6.1701,6.1701,6.1701,6.1701,6.2189,6.3008,6.3008,0.0,0.0,6.5487,6.5956,6.6697,6.6697,6.6737,6.6795,6.6795,6.6795,6.6795,6.6795,6.6795,6.6795,6.6795,6.6795,6.682,6.6878,6.6898,6.6907,6.6901,6.6906,6.6906,6.6906,6.6906,6.6908,6.6894,6.6892,6.6908,6.6894,6.6894,6.6894,6.6894,6.6894,6.6894,6.6894,6.6894,6.6894,6.6894,6.6904,6.6895,6.6894,6.6892,6.6901,6.6902,6.6902,6.6902,6.6902,6.6839,6.6815,6.6815,6.6795,6.7146,6.7947,6.8064,6.8845,7.0426,7.0621,7.1089,7.187,7.1968,7.2007,7.2007,7.2007,7.2007,5.6601,5.6601,5.6601,5.6601,5.6601,5.6601,5.6601,5.6601,5.6601,5.6607,5.6595,5.6606,5.6606,5.6439,5.6288,5.6288,5.6222,5.6169,5.6169,5.6327,5.6432,5.6469,5.6562,5.6606,0.0,0.0,5.7309,0.0,0.0,0.0,6.1701,6.1701,6.1701,6.1701,6.1701,6.1701,6.1701,6.1701,6.1701,6.1701,6.1701,6.1701,6.172,6.2247,6.2969,6.3809,6.4336,0.0,0.0,6.6327,6.6502,6.6795,6.6795,6.6795,6.6795,6.6795,6.6795,6.6795,6.6795,6.6795,6.6795,6.6795,6.6795,6.6795,6.6834,6.6834,6.6839,6.6848,6.6867,6.6907,6.6907,6.6907,6.6891,6.6898,6.6901,6.6904,6.6901,6.6906,6.689,6.689,6.689,6.689,6.689,6.689,6.689,6.689,6.6901,6.6895,6.6898,6.6901,6.6898,6.6898,6.6907,6.6911,6.6898,6.6834,6.6795,6.6795,6.6795,6.7185,6.8064,6.8591,6.9469,7.0679,7.1226,7.1655,7.2007,7.2007,7.2007,7.2007,7.2007,7.2007,5.6601,5.6601,5.6601,5.6601,5.6601,5.6601,5.6599,5.6598,5.6597,5.6607,5.6595,5.6582,5.6528,5.6371,5.6232,5.6181,5.6097,5.6029,5.6029,5.6181,5.6318,5.6359,5.6504,5.6606,0.0,5.7055,0.0,0.0,0.0,0.0,6.1701,6.1701,6.1701,6.1701,6.1701,6.1701,6.1701,6.1701,6.1701,6.1701,6.1701,6.1701,6.174,6.2598,6.3477,6.4355,6.5214,0.0,0.0,6.6795,6.6795,6.6795,6.6795,6.6795,6.6795,6.6795,6.6795,6.6795,6.6795,6.6795,6.6795,6.6795,6.6795,6.6795,6.6795,6.6795,6.6795,6.6795,6.6834,6.6873,6.6873,6.6873,6.6873,6.6873,6.6867,6.6875,6.6898,6.6887,6.6878,6.6898,6.6898,6.6898,6.6898,6.6898,6.6898,6.6898,6.6878,6.6871,6.6898,6.6887,6.6871,6.6878,6.6867,6.6871,6.6878,6.6834,6.6795,6.6795,6.7049,6.7576,6.8454,6.9313,7.0191,7.107,7.1694,7.2007,7.2007,7.2007,7.2007,7.2007,7.2007,7.2007,5.6601,5.6601,5.6601,5.6601,5.6601,5.66,5.6595,5.6606,5.6606,5.6606,5.6606,5.6533,5.6344,5.6191,5.6057,5.593,5.5896,5.5896,5.5896,5.6135,5.6288,5.6288,5.6472,5.6606,5.6606,5.8109,0.0,0.0,0.0,0.0,6.1701,6.1701,6.1701,6.1701,6.1701,6.1701,6.1701,6.1701,6.1701,6.1701,6.1701,6.1701,6.174,6.2598,6.3477,6.4355,0.0,0.0,0.0,6.6795,6.6795,6.6795,6.6795,6.6795,6.6795,6.6795,6.6795,6.6795,6.6795,6.6795,6.6795,6.6795,6.6795,6.6795,6.6795,6.6795,6.6795,6.6795,6.6795,6.6795,6.6795,6.6795,6.6795,6.6795,6.6795,6.6815,6.6893,6.6854,6.6815,6.6893,6.6893,6.6893,6.6893,6.6893,6.6893,6.6893,6.6834,6.6834,6.6893,6.6834,6.6795,6.6795,6.6795,6.6795,6.6795,6.6795,6.6795,6.6795,6.7615,6.8474,6.9352,7.0211,7.1109,7.1968,7.2007,7.2007,7.2007,7.2007,7.2007,7.2007,7.2007,7.2007,5.6591,5.6597,5.6601,5.6598,5.6593,5.6605,5.6605,5.6595,5.6606,5.6606,5.6606,5.6533,5.6344,5.6181,5.6063,5.5913,5.5827,5.5768,5.5768,5.5913,5.6029,5.6032,5.6207,5.6314,0.0,0.0,0.0,0.0,0.0,0.0,6.1681,6.1701,6.1701,6.1701,6.1701,6.1701,6.1701,6.1701,6.1701,6.1701,6.1701,6.1701,6.1759,6.3223,6.4043,0.0,0.0,0.0,0.0,6.6795,6.6795,6.6795,6.6795,6.6795,6.6795,6.6795,6.6795,6.6795,6.6795,6.6795,6.6795,6.6795,6.6795,6.6795,6.6795,6.6795,6.6795,6.6795,6.6795,6.6795,6.6795,6.6795,6.6795,6.6795,6.6795,6.6815,6.6834,6.6815,6.6815,6.6834,6.6834,6.6834,6.6834,6.6834,6.6834,6.6834,6.6815,6.6815,6.6834,6.6815,6.6795,6.6795,6.6795,6.6795,6.6795,6.6795,6.6795,6.6795,6.7615,6.8493,6.9352,7.025,7.1109,7.1987,7.2007,7.2007,7.2007,7.2007,7.2007,7.2007,7.2007,7.2007,5.6575,5.6607,5.6597,5.6593,5.6602,5.661,5.6602,5.6595,5.6582,5.6503,5.6497,5.6425,5.62,5.6071,5.5975,5.5864,5.5748,5.5703,5.5703,5.5827,5.591,5.5981,0.0,0.0,0.0,0.0,0.0,0.0,0.0,0.0,6.1589,6.1541,6.1506,6.1506,6.164,6.1701,6.1701,6.1701,6.1701,6.1701,6.1701,6.1701,6.1759,6.3516,6.4297,0.0,0.0,0.0,0.0,6.6795,6.6795,6.6795,6.6795,6.6795,6.6795,6.6795,6.6795,6.6795,6.6795,6.6795,6.6795,6.6795,6.6795,6.6795,6.6795,6.6795,6.6795,6.6795,6.6795,6.6795,6.6795,6.6795,6.6795,6.6795,6.6795,6.6795,6.6795,6.6795,6.6795,6.6795,6.6795,6.6795,6.6795,6.6795,6.6795,6.6795,6.6795,6.6795,6.6795,6.6795,6.6795,6.6795,6.6795,6.6795,6.6795,6.6795,6.6932,6.7264,6.8103,6.8981,6.984,7.0738,7.1441,7.1987,7.2007,7.2007,7.2007,7.2007,7.2007,7.2007,7.2007,7.2007,0.0,5.6571,5.6563,5.6563,5.6571,5.6572,5.6572,5.6558,0.0,5.6316,5.6279,5.6222,5.5962,5.5915,5.5864,5.5726,5.5703,5.5703,5.5703,5.5808,0.0,0.0,5.6071,0.0,0.0,0.0,0.0,0.0,0.0,0.0,6.1413,6.1304,6.1206,6.1206,6.1498,6.1666,6.1666,6.1666,6.1666,6.1666,6.1666,6.1666,6.1724,6.3413,6.4213,0.0,0.0,0.0,0.0,6.6795,6.6795,6.6795,6.6795,6.6795,6.6795,6.6795,6.6795,6.6795,6.6795,6.6795,6.6795,6.6795,6.6795,6.6795,6.6795,6.6795,6.6795,6.6795,6.6795,6.6795,6.6795,6.6795,6.6795,6.6795,6.6795,6.6795,6.6795,6.6795,6.6795,6.6795,6.6795,6.6795,6.6795,6.6795,6.6795,6.6795,6.6795,6.6795,6.6795,6.6795,6.6795,6.6795,6.6795,6.6795,6.6795,6.6795,6.7166,6.8044,6.8923,6.9782,7.066,7.1538,7.2007,7.2007,7.2007,7.2007,7.2007,7.2007,7.2007,7.2007,7.2007,7.2007,5.6158,0.0,5.6289,5.6222,5.6263,5.6285,0.0,5.622,5.62,5.6146,5.6146,5.6097,5.593,5.5915,5.5864,5.5726,5.5703,5.5703,5.5703,5.5726,0.0,5.5789,0.0,0.0,0.0,0.0,0.0,0.0,0.0,5.9665,6.1201,6.1233,6.1206,6.1206,6.1272,6.1328,6.1328,6.1328,6.1328,6.1328,6.1328,6.1328,6.1367,6.2591,6.3494,0.0,0.0,0.0,6.6795,6.6795,6.6795,6.6795,6.6795,6.6795,6.6795,6.6795,6.6795,6.6795,6.6795,6.6795,6.6795,6.6795,6.6795,6.6795,6.6795,6.6795,6.6795,6.6795,6.6795,6.6795,6.6795,6.6795,6.6795,6.6795,6.6795,6.6795,6.6795,6.6795,6.6795,6.6795,6.6795,6.6795,6.6795,6.6795,6.6795,6.6795,6.6795,6.6795,6.6795,6.6795,6.6795,6.6795,6.6795,6.6795,6.6795,6.6795,6.7166,6.8044,6.8923,6.9782,7.066,7.1538,7.2007,7.2007,7.2007,7.2007,7.2007,7.2007,7.2007,7.2007,7.2007,7.2007,5.5975,5.6082,5.6155,5.6117,5.6135,5.6126,5.6104,5.6097,5.6084,5.6035,5.6005,5.5959,5.5845,5.5827,5.5789,5.5705,5.5703,5.5703,5.5703,0.0,5.5703,5.5703,0.0,0.0,0.0,0.0,0.0,0.0,0.0,5.9102,6.048,6.0842,6.1001,6.1001,6.1001,6.107,6.1206,6.1206,6.1206,6.1206,6.1206,6.1206,6.1239,6.2307,6.3234,0.0,0.0,0.0,6.6795,6.6795,6.6795,6.6795,6.6795,6.6795,6.6795,6.6795,6.6795,6.6795,6.6795,6.6795,6.6795,6.6795,6.6795,6.6795,6.6795,6.6795,6.6795,6.6795,6.6795,6.6795,6.6795,6.6795,6.6795,6.6795,6.6795,6.6795,6.6795,6.6795,6.6795,6.6795,6.6795,6.6795,6.6795,6.6795,6.6795,6.6795,6.6795,6.6795,6.6795,6.6795,6.6795,6.6795,6.6795,6.6795,6.6795,6.7166,6.7771,6.8649,6.9508,7.0387,7.1265,7.1753,7.2007,7.2007,7.2007,7.2007,7.2007,7.2007,7.2007,7.2007,7.2007,7.2007,5.5845,5.5943,5.6029,5.6029,5.6029,5.6029,5.6029,5.6029,5.6005,5.5879,5.5863,5.5845,5.5726,5.5703,5.5684,5.5724,5.5703,5.5703,5.5703,5.5703,5.5703,5.5703,0.0,0.0,0.0,0.0,0.0,0.0,0.0,5.8734,5.9689,6.0412,6.08,6.08,6.08,6.0922,6.1132,6.1132,6.1132,6.1132,6.1132,6.1132,6.1167,6.2094,6.298,6.3838,0.0,0.0,6.6619,6.6756,6.6795,6.6795,6.6795,6.6795,6.6795,6.6795,6.6795,6.6795,6.6795,6.6795,6.6795,6.6795,6.6795,6.6795,6.6795,6.6795,6.6795,6.6795,6.6795,6.6795,6.6795,6.6795,6.6795,6.6795,6.6795,6.6795,6.6795,6.6795,6.6795,6.6795,6.6795,6.6795,6.6795,6.6795,6.6795,6.6795,6.6795,6.6795,6.6795,6.6795,6.6795,6.6795,6.6795,6.6795,6.6795,6.7712,6.861,6.9352,7.0211,7.1089,7.1968,7.2007,7.2007,7.2007,7.2007,7.2007,7.2007,7.2007,7.2007,7.2007,7.2007,7.2065,5.5726,5.5748,5.5768,5.5768,5.5768,5.5768,5.5768,5.5768,5.5768,5.5728,5.5747,5.5747,5.5787,5.5745,5.5724,0.0,0.0,5.5703,0.0,0.0,0.0,0.0,0.0,0.0,0.0,0.0,0.0,0.0,0.0,5.8668,5.9499,6.0342,6.08,6.08,6.08,6.0827,6.0856,6.0856,6.0856,6.0856,6.0856,6.0856,6.0856,6.1157,6.1814,6.2795,0.0,6.4833,6.5839,6.6522,6.6795,6.6795,6.6795,6.6795,6.6795,6.6795,6.6795,6.6795,6.6795,6.6795,6.6795,6.6795,6.6795,6.6795,6.6795,6.6795,6.6795,6.6795,6.6795,6.6795,6.6795,6.6795,6.6795,6.6795,6.6795,6.6795,6.6795,6.6795,6.6795,6.6795,6.6795,6.6795,6.6795,6.6795,6.6795,6.6795,6.6795,6.6795,6.6795,6.6795,6.6795,6.6795,6.6795,6.6795,6.6795,6.8279,6.9255,6.9391,7.0211,7.1089,7.1968,7.2007,7.2007,7.2007,7.2007,7.2007,7.2007,7.2007,7.2007,7.2007,7.2007,7.2397,5.5703,5.5703,5.5703,5.5703,5.5724,5.5745,5.5745,5.5766,5.5806,5.5766,5.5745,5.5745,5.5745,0.0,5.5724,5.5745,0.0,0.0,0.0,0.0,0.0,0.0,0.0,0.0,0.0,0.0,0.0,0.0,0.0,0.0,5.8838,6.0089,6.08,6.08,6.08,6.08,6.08,6.08,6.08,6.08,6.08,6.08,6.0804,6.0943,6.1502,6.2458,0.0,6.449,6.5496,6.6346,6.6727,6.6795,6.6795,6.6795,6.6795,6.6795,6.6795,6.6795,6.6795,6.6795,6.6795,6.6795,6.6795,6.6795,6.6795,6.6795,6.6795,6.6795,6.6795,6.6795,6.6795,6.6795,6.6795,6.6795,6.6795,6.6795,6.6795,6.6795,6.6795,6.6795,6.6795,6.6795,6.6795,6.6795,6.6795,6.6795,6.6795,6.6795,6.6795,6.6795,6.6795,6.6795,6.6795,6.699,6.7459,6.8669,6.9801,7.0757,7.1187,7.1577,7.1987,7.2007,7.2007,7.2007,7.2007,7.2007,7.2007,7.2007,7.2007,7.2007,7.2007,7.2475,5.5703,5.5703,5.5703,5.5703,5.5745,5.5766,5.5766,5.5826,5.5846,5.5826,5.5787,5.5787,5.5745,5.5724,0.0,5.5703,0.0,0.0,0.0,0.0,0.0,0.0,0.0,0.0,0.0,0.0,0.0,0.0,0.0,0.0,5.83,5.9704,6.0589,6.0781,6.08,6.08,6.08,6.08,6.08,6.08,6.08,6.08,6.0781,6.0901,6.1331,6.2046,6.3233,6.4234,6.5085,6.6166,6.667,6.6795,6.6795,6.6795,6.6795,6.6795,6.6795,6.6795,6.6795,6.6795,6.6795,6.6795,6.6795,6.6795,6.6795,6.6795,6.6795,6.6795,6.6795,6.6795,6.6795,6.6795,6.6795,6.6795,6.6795,6.6795,6.6795,6.6795,6.6795,6.6795,6.6795,6.6795,6.6795,6.6795,6.6795,6.6795,6.6795,6.6795,6.6795,6.6795,6.6795,6.6795,6.6795,6.7244,6.8318,6.9196,7.0367,7.189,7.2007,7.2007,7.2007,7.2007,7.2007,7.2007,7.2007,7.2007,7.2007,7.2007,7.2007,7.2007,7.2202,7.2768,5.5703,5.5703,5.5703,5.5703,5.5684,5.5703,5.5703,5.5766,5.5806,5.5787,5.5787,5.5826,5.5885,5.5826,5.5766,5.5724,0.0,0.0,0.0,0.0,0.0,0.0,0.0,0.0,0.0,0.0,0.0,0.0,0.0,0.0,5.8261,5.9127,5.9954,6.0762,6.08,6.08,6.08,6.08,6.08,6.08,6.08,6.08,6.08,6.0804,6.0918,6.1195,6.2878,6.3798,6.4228,6.5913,6.667,6.6795,6.6795,6.6795,6.6795,6.6795,6.6795,6.6795,6.6795,6.6795,6.6795,6.6795,6.6795,6.6795,6.6795,6.6795,6.6795,6.6795,6.6795,6.6795,6.6795,6.6795,6.6795,6.6795,6.6795,6.6795,6.6795,6.6795,6.6795,6.6795,6.6795,6.6795,6.6795,6.6795,6.6795,6.6795,6.6795,6.6795,6.6795,6.6795,6.6795,6.6795,6.6795,6.7478,6.9157,7.0113,7.1011,7.1948,7.2007,7.2007,7.2007,7.2007,7.2007,7.2007,7.2007,7.2007,7.2007,7.2007,7.2007,7.2026,7.2827,7.3646,5.5703,5.5703,5.5703,5.5703,5.5703,5.5724,5.5745,5.5846,5.5905,5.5826,5.5826,0.0,0.0,0.0,5.5766,0.0,0.0,0.0,0.0,0.0,0.0,0.0,0.0,0.0,0.0,0.0,0.0,0.0,0.0,0.0,5.8261,5.9069,5.9896,6.0762,6.08,6.08,6.08,6.08,6.08,6.08,6.08,6.08,6.08,6.08,6.0827,6.0935,6.222,6.3195,6.3994,6.5258,6.6182,6.6795,6.6795,6.6795,6.6795,6.6795,6.6795,6.6795,6.6795,6.6795,6.6795,6.6795,6.6795,6.6795,6.6795,6.6795,6.6795,6.6795,6.6795,6.6795,6.6795,6.6795,6.6795,6.6795,6.6795,6.6795,6.6795,6.6795,6.6795,6.6795,6.6795,6.6795,6.6795,6.6795,6.6795,6.6795,6.6795,6.6795,6.6795,6.6795,6.6795,6.6795,6.7771,6.8903,7.0113,7.1011,7.1655,7.1987,7.2007,7.2007,7.2007,7.2007,7.2007,7.2007,7.2007,7.2007,7.2007,7.2007,7.228,7.2827,7.3158,7.4017,5.5703,5.5703,5.5703,5.5703,5.5703,5.5724,5.5766,5.5846,5.5905,5.5826,5.5846,5.5826,5.5724,0.0,0.0,0.0,0.0,0.0,0.0,0.0,0.0,0.0,0.0,0.0,0.0,0.0,0.0,0.0,0.0,0.0,0.0,5.8665,5.9511,6.0358,6.0666,6.08,6.08,6.08,6.08,6.08,6.08,6.08,6.08,6.08,6.08,6.0862,6.1827,6.2837,6.3876,6.483,6.5844,6.6795,6.6795,6.6795,6.6795,6.6795,6.6795,6.6795,6.6795,6.6795,6.6795,6.6795,6.6795,6.6795,6.6795,6.6795,6.6795,6.6795,6.6795,6.6795,6.6795,6.6795,6.6795,6.6795,6.6795,6.6795,6.6795,6.6795,6.6795,6.6795,6.6795,6.6795,6.6795,6.6795,6.6795,6.6795,6.6795,6.6795,6.6795,6.6795,6.6912,6.7185,6.8513,6.9742,7.064,7.1499,7.2007,7.2007,7.2007,7.2007,7.2007,7.2007,7.2007,7.2007,7.2007,7.2007,7.2007,7.2007,7.2456,7.3315,7.3568,7.4447,5.5703,5.5703,5.5703,5.5703,5.5703,5.5703,5.5703,5.5745,5.5787,5.5787,5.5787,5.5766,5.5724,5.5703,0.0,0.0,0.0,0.0,0.0,0.0,0.0,0.0,0.0,0.0,0.0,0.0,0.0,0.0,0.0,0.0,0.0,5.786,5.8665,5.9473,6.0339,6.08,6.08,6.08,6.08,6.08,6.08,6.08,6.08,6.08,6.08,6.0839,6.1704,6.2742,6.3862,6.4736,6.5765,6.6795,6.6795,6.6795,6.6795,6.6795,6.6795,6.6795,6.6795,6.6795,6.6795,6.6795,6.6795,6.6795,6.6795,6.6795,6.6795,6.6795,6.6795,6.6795,6.6795,6.6795,6.6795,6.6795,6.6795,6.6795,6.6795,6.6795,6.6795,6.6795,6.6795,6.6795,6.6795,6.6795,6.6795,6.6795,6.6795,6.6795,6.6795,6.6815,6.7146,6.8025,6.8884,6.9762,7.064,7.1499,7.2007,7.2007,7.2007,7.2007,7.2007,7.2007,7.2007,7.2007,7.2007,7.2007,7.2007,7.2007,7.2456,7.3334,7.4134,7.4974,5.5703,5.5703,0.0,5.5703,5.5703,5.5703,5.5703,5.5745,5.5787,5.5787,5.5787,5.5766,5.5724,0.0,0.0,0.0,0.0,0.0,0.0,0.0,0.0,0.0,0.0,0.0,0.0,0.0,0.0,0.0,0.0,0.0,0.0,5.786,5.8665,5.9473,6.0339,6.08,6.08,6.08,6.08,6.08,6.08,6.08,6.08,6.08,6.08,6.0823,6.1171,6.1908,6.3021,6.4734,6.5978,6.6795,6.6795,6.6795,6.6795,6.6795,6.6795,6.6795,6.6795,6.6795,6.6795,6.6795,6.6795,6.6795,6.6795,6.6795,6.6795,6.6795,6.6795,6.6795,6.6795,6.6795,6.6795,6.6795,6.6795,6.6795,6.6795,6.6795,6.6795,6.6795,6.6795,6.6795,6.6795,6.6795,6.6795,6.6795,6.6795,6.6795,6.6795,6.7342,6.8044,6.8923,6.9782,7.0679,7.1538,7.1851,7.2007,7.2007,7.2007,7.2007,7.2007,7.2007,7.2007,7.2007,7.2007,7.2007,7.2007,7.2007,7.2748,7.4154,7.4388,7.5305,5.5703,5.5703,0.0,5.5703,5.5703,5.5703,5.5703,0.0,0.0,0.0,5.5766,5.5745,5.5703,0.0,0.0,0.0,0.0,0.0,0.0,0.0,0.0,0.0,0.0,0.0,0.0,0.0,0.0,0.0,0.0,0.0,0.0,5.7403,5.8187,5.8992,5.9838,6.0454,6.08,6.08,6.08,6.08,6.08,6.08,6.08,6.08,6.08,6.0823,6.135,6.2141,6.3151,6.4891,6.6073,6.6795,6.6795,6.6795,6.6795,6.6795,6.6795,6.6795,6.6795,6.6795,6.6795,6.6795,6.6795,6.6795,6.6795,6.6795,6.6795,6.6795,6.6795,6.6795,6.6795,6.6795,6.6795,6.6795,6.6795,6.6795,6.6795,6.6795,6.6795,6.6795,6.6795,6.6795,6.6795,6.6795,6.6795,6.6795,6.6795,6.6795,6.6795,6.7556,6.8435,6.9313,7.0172,7.105,7.1929,7.2007,7.2007,7.2007,7.2007,7.2007,7.2007,7.2007,7.2007,7.2007,7.2007,7.2007,7.2007,7.2358,7.3197,7.4505,7.4857,7.5754,5.5703,5.5703,5.5703,5.5703,5.5703,0.0,5.5703,5.5703,5.5703,5.5703,0.0,5.5703,5.5703,0.0,0.0,0.0,0.0,0.0,0.0,0.0,0.0,0.0,0.0,0.0,0.0,0.0,0.0,0.0,0.0,0.0,5.5905,5.6674,5.748,5.8261,5.9069,5.9915,6.0781,6.08,6.08,6.08,6.08,6.08,6.08,6.08,6.08,6.0843,6.192,6.289,6.3773,6.4989,6.5956,6.6697,6.6776,6.6795,6.6795,6.6795,6.6795,6.6795,6.6795,6.6795,6.6795,6.6795,6.6795,6.6795,6.6795,6.6795,6.6795,6.6795,6.6795,6.6795,6.6795,6.6795,6.6795,6.6795,6.6795,6.6795,6.6795,6.6795,6.6795,6.6795,6.6795,6.6795,6.6795,6.6795,6.6795,6.6795,6.6795,6.6834,6.6912,6.7673,6.8552,6.943,7.0309,7.1148,7.1929,7.2007,7.2007,7.2007,7.2007,7.2007,7.2007,7.2007,7.2007,7.2007,7.2007,7.2007,7.2007,7.2866,7.3705,7.4525,7.5384,7.6262,5.5703,5.5703,5.5703,5.5703,5.5703,5.5703,5.5703,5.5703,5.5703,5.5703,5.5703,5.5703,5.5703,0.0,0.0,0.0,0.0,0.0,0.0,0.0,0.0,0.0,0.0,0.0,0.0,0.0,0.0,0.0,5.5923,5.5924,5.5981,5.6694,5.7461,5.8269,5.9072,5.9915,6.0781,6.08,6.08,6.08,6.08,6.08,6.08,6.08,6.08,6.0823,6.1281,6.1963,6.2866,6.4092,6.5077,6.5917,6.6541,6.6795,6.6795,6.6795,6.6795,6.6795,6.6795,6.6795,6.6795,6.6795,6.6795,6.6795,6.6795,6.6795,6.6795,6.6795,6.6795,6.6795,6.6795,6.6795,6.6795,6.6795,6.6795,6.6795,6.6795,6.6795,6.6795,6.6795,6.6795,6.6795,6.6795,6.6795,6.6795,6.6795,6.6795,6.7049,6.7732,6.8571,6.945,7.0328,7.1206,7.1792,7.1987,7.2007,7.2007,7.2007,7.2007,7.2007,7.2007,7.2007,7.2007,7.2007,7.2007,7.2007,7.2007,7.2866,7.3705,7.4525,7.5384,7.6262,5.5527,5.5596,5.5703,5.5703,5.5703,5.5703,5.5703,5.5703,5.5703,5.5703,5.5703,5.5703,5.5703,0.0,0.0,0.0,0.0,0.0,0.0,0.0,0.0,0.0,0.0,5.5724,5.5806,5.5826,5.5885,5.596,5.596,5.596,5.5999,5.6368,5.6926,5.7713,5.8498,5.9323,6.0165,6.0589,6.08,6.08,6.08,6.08,6.08,6.08,6.08,6.0804,6.1087,6.1691,6.2593,6.3799,6.4804,6.5682,6.6483,6.6795,6.6795,6.6795,6.6795,6.6795,6.6795,6.6795,6.6795,6.6795,6.6795,6.6795,6.6795,6.6795,6.6795,6.6795,6.6795,6.6795,6.6795,6.6795,6.6795,6.6795,6.6795,6.6795,6.6795,6.6795,6.6795,6.6795,6.6795,6.6795,6.6795,6.6795,6.6795,6.6795,6.6795,6.7107,6.7986,6.8864,6.9723,7.0601,7.148,7.2007,7.2007,7.2007,7.2007,7.2007,7.2007,7.2007,7.2007,7.2007,7.2007,7.2007,7.2007,7.2007,7.2007,7.3256,7.4095,7.4525,7.5813,7.6672,5.5288,5.5504,5.5703,5.5703,5.5703,5.5703,5.5703,5.5703,5.5703,5.5703,5.5703,5.5703,5.5703,0.0,0.0,0.0,0.0,0.0,0.0,0.0,5.5703,5.5703,5.5703,5.5724,5.5724,5.5826,5.5905,5.5924,5.5959,5.5995,5.6017,5.5999,5.6348,5.7079,5.7752,5.8558,5.9515,6.0204,6.0646,6.08,6.08,6.08,6.08,6.08,6.08,6.0804,6.1053,6.1599,6.236,6.355,6.4565,6.5468,6.6268,6.6678,6.6795,6.6795,6.6795,6.6795,6.6795,6.6795,6.6795,6.6795,6.6795,6.6795,6.6795,6.6795,6.6795,6.6795,6.6795,6.6795,6.6795,6.6795,6.6795,6.6795,6.6795,6.6795,6.6795,6.6795,6.6795,6.6795,6.6795,6.6795,6.6795,6.6795,6.6795,6.6795,6.6795,6.7166,6.8181,6.8942,6.9782,7.0816,7.1577,7.2007,7.2007,7.2007,7.2007,7.2007,7.2007,7.2007,7.2007,7.2007,7.2007,7.2007,7.2007,7.2007,7.2007,7.3685,7.4505,7.4544,7.6281,7.7101,5.5217,5.5504,5.5703,5.5703,5.5703,5.5703,5.5703,5.5703,5.5703,0.0,5.5703,5.5703,5.5703,5.5703,5.5703,5.5703,5.5703,5.5703,5.5703,5.5703,5.5703,5.5703,5.5703,5.5745,5.5846,5.5885,5.5923,5.5977,5.5975,5.6012,5.5995,5.5998,5.6348,5.7159,5.7234,5.8021,5.956,5.963,6.005,6.08,6.08,6.08,6.08,6.08,6.08,6.0823,6.0964,6.1145,6.1453,6.2562,6.3584,6.455,6.5429,6.619,6.6795,6.6795,6.6795,6.6795,6.6795,6.6795,6.6795,6.6795,6.6795,6.6795,6.6795,6.6795,6.6795,6.6795,6.6795,6.6795,6.6795,6.6795,6.6795,6.6795,6.6795,6.6795,6.6795,6.6795,6.6795,6.6795,6.6795,6.6795,6.6795,6.6795,6.6795,6.6795,6.6795,6.7381,6.902,6.9333,7.0016,7.1655,7.1929,7.2007,7.2007,7.2007,7.2007,7.2007,7.2007,7.2007,7.2007,7.2007,7.2007,7.2007,7.2007,7.2007,7.2007,7.3685,7.4505,7.4544,7.6281,7.7101,5.5164,5.5389,5.5508,5.5662,5.5703,5.5703,5.5703,5.5703,5.5703,5.5703,5.5703,5.5703,5.5703,5.5703,5.5703,5.5703,5.5703,5.5703,5.5703,5.5703,5.5703,5.5703,5.5703,5.5745,5.5826,5.5885,5.5924,5.5979,5.5995,5.6012,5.6012,5.6014,5.6152,5.6521,5.6946,5.7483,5.8195,5.9053,5.9935,6.08,6.08,6.08,6.08,6.08,6.08,6.0823,6.0943,6.1037,6.1181,6.2324,6.333,6.4228,6.5223,6.6092,6.6795,6.6795,6.6795,6.6795,6.6795,6.6795,6.6795,6.6795,6.6795,6.6795,6.6795,6.6795,6.6795,6.6795,6.6795,6.6795,6.6795,6.6795,6.6795,6.6795,6.6795,6.6795,6.6795,6.6795,6.6795,6.6795,6.6795,6.6795,6.6795,6.6795,6.6795,6.6795,6.7224,6.7986,6.9235,6.9821,7.0601,7.187,7.2007,7.2007,7.2007,7.2007,7.2007,7.2007,7.2007,7.2007,7.2007,7.2007,7.2007,7.2007,7.2007,7.2007,7.2007,7.3685,7.4505,7.4544,7.6281,7.7101,5.4924,5.5164,5.5339,5.5551,5.564,5.5703,5.5703,5.5703,5.5703,0.0,5.5703,5.5703,5.5703,5.5703,5.5703,5.5703,5.5703,5.5703,5.5703,5.5703,5.5703,5.5703,5.5703,5.5724,5.5826,5.5885,5.5924,5.5998,5.6014,5.6012,5.6012,5.6012,5.5995,5.5998,5.658,5.6946,5.7098,5.8688,5.9935,6.08,6.08,6.08,6.08,6.08,6.08,6.0823,6.0901,6.0983,6.1111,6.2024,6.3069,6.4166,6.4964,6.5897,6.6795,6.6795,6.6795,6.6795,6.6795,6.6795,6.6795,6.6795,6.6795,6.6795,6.6795,6.6795,6.6795,6.6795,6.6795,6.6795,6.6795,6.6795,6.6795,6.6795,6.6795,6.6795,6.6795,6.6795,6.6795,6.6795,6.6795,6.6795,6.6795,6.6795,6.6873,6.7107,6.7673,6.8493,6.9586,7.0309,7.1031,7.1909,7.2007,7.2007,7.2007,7.2007,7.2007,7.2007,7.2007,7.2007,7.2007,7.2007,7.2007,7.2007,7.2007,7.2007,7.2007,7.3685,7.4505,7.4544,7.6281,7.7101,5.433,5.4836,5.5314,5.5314,5.5508,5.5703,5.5703,5.5703,5.5703,5.5703,5.5703,5.5703,5.5703,5.5703,5.5703,5.5703,5.5703,5.5703,5.5703,5.5703,5.5703,5.5703,5.5703,5.5745,5.5885,5.5905,5.5923,5.5995,5.6012,5.6012,5.6012,5.6012,5.6012,5.6012,5.6036,5.6406,5.7081,5.869,5.9935,6.08,6.08,6.08,6.08,6.08,6.08,6.08,6.0823,6.0964,6.1192,6.1258,6.2474,6.4297,6.4355,6.5351,6.6795,6.6795,6.6795,6.6795,6.6795,6.6795,6.6795,6.6795,6.6795,6.6795,6.6795,6.6795,6.6795,6.6795,6.6795,6.6795,6.6795,6.6795,6.6795,6.6795,6.6795,6.6795,6.6795,6.6795,6.6795,6.6795,6.6795,6.6795,6.6795,6.6795,6.7088,6.7908,6.8064,6.8708,7.0406,7.0679,7.1031,7.1909,7.2007,7.2007,7.2007,7.2007,7.2007,7.2007,7.2007,7.2007,7.2007,7.2007,7.2007,7.2007,7.2007,7.2007,7.2007,7.3685,7.4505,7.4544,7.6281,7.7101,5.4246,5.4463,5.4758,5.5191,5.5364,5.5485,5.5662,5.5703,5.5703,5.5703,5.5703,5.5703,5.5703,5.5703,5.5703,5.5703,5.5745,5.5745,5.5703,5.5766,5.5806,5.5766,5.5806,5.5846,5.5962,5.5962,5.598,5.5995,5.6012,5.6012,5.6012,5.6012,5.6012,5.6012,5.5998,5.6348,5.7101,5.8175,5.9152,6.0038,6.0554,6.08,6.08,6.08,6.08,6.08,6.08,6.0901,6.107,6.1162,6.204,6.3402,6.4052,6.4999,6.6092,6.66,6.6795,6.6795,6.6795,6.6795,6.6795,6.6795,6.6795,6.6795,6.6795,6.6795,6.6795,6.6795,6.6795,6.6795,6.6795,6.6795,6.6795,6.6795,6.6795,6.6795,6.6795,6.6795,6.6795,6.6795,6.6795,6.6971,6.7537,6.7634,6.7927,6.8806,6.9411,6.9996,7.0621,7.1187,7.1655,7.1968,7.2007,7.2007,7.2007,7.2007,7.2007,7.2007,7.2007,7.2007,7.2007,7.2007,7.2007,7.2007,7.2007,7.228,7.2846,7.3959,7.4798,7.5364,7.6555,7.7101,5.4054,5.4212,5.4397,5.4847,5.5138,5.5339,5.5527,5.564,5.5703,5.5703,5.5703,5.5703,5.5703,5.5703,5.5703,5.5703,5.5745,5.5787,5.5745,5.5826,5.5885,5.5846,5.5866,5.5943,5.5981,5.5999,5.5998,5.6012,5.6012,0.0,5.6012,5.6012,5.6012,5.6012,5.5998,5.6367,5.7139,5.7638,5.8484,5.962,6.0111,6.0512,6.08,6.08,6.08,6.08,6.08,6.0877,6.102,6.1147,6.1841,6.2912,6.3904,6.4824,6.5702,6.6502,6.6795,6.6795,6.6795,6.6795,6.6795,6.6795,6.6795,6.6795,6.6795,6.6795,6.6795,6.6795,6.6795,6.6795,6.6795,6.6795,6.6795,6.6795,6.6795,6.6795,6.6795,6.6795,6.6795,6.6795,6.6795,6.7088,6.7947,6.8103,6.8493,6.9664,7.0328,7.0816,7.1109,7.1636,7.2007,7.2007,7.2007,7.2007,7.2007,7.2007,7.2007,7.2007,7.2007,7.2007,7.2007,7.2007,7.2007,7.2007,7.2007,7.2553,7.3705,7.4232,7.4954,7.5813,7.6691,7.7101,0.0,0.0,0.0,5.4315,5.4787,5.5288,5.5288,5.5485,5.5703,5.5703,5.5703,5.5703,5.5703,5.5703,5.5703,5.5703,5.5766,5.5787,5.5787,5.5846,5.5905,5.5905,5.5905,5.5924,5.5999,5.5999,5.5998,5.6012,5.6012,5.6012,5.6012,5.6012,5.6012,5.6012,5.5998,5.6366,5.7158,5.7118,5.7925,5.9524,5.9496,5.9935,6.0762,6.0781,6.08,6.08,6.08,6.0877,6.1002,6.1132,6.1822,6.2853,6.3865,6.4785,6.5663,6.6463,6.6776,6.6795,6.6795,6.6795,6.6795,6.6795,6.6795,6.6795,6.6795,6.6795,6.6795,6.6795,6.6795,6.6795,6.6795,6.6795,6.6795,6.6795,6.6795,6.6795,6.6795,6.6795,6.6795,6.6795,6.6815,6.7127,6.7986,6.8161,6.8767,7.0484,7.0738,7.1031,7.189,7.2007,7.2007,7.2007,7.2007,7.2007,7.2007,7.2007,7.2007,7.2007,7.2007,7.2007,7.2007,7.2007,7.2007,7.2007,7.2007,7.2827,7.4505,7.4505,7.4954,7.5852,7.6711,7.7101,5.3813,0.0,0.0,0.0,0.0,0.0,5.5191,5.5364,5.5461,5.5662,5.5703,5.5703,5.5703,5.5745,5.5766,5.5766,5.5826,5.5885,5.5885,5.5942,5.5979,5.5981,5.596,5.5977,5.6014,5.6014,5.5995,0.0,5.6012,5.6012,5.6012,5.6012,5.6012,5.6012,5.5995,5.6111,5.6343,5.6889,5.7428,5.7891,5.8979,5.9627,5.9877,6.0512,6.08,6.08,6.08,6.0827,6.0856,6.1002,6.1366,6.1948,6.2871,6.3813,6.4765,6.5624,6.6307,6.6795,6.6795,6.6795,6.6795,6.6795,6.6795,6.6795,6.6795,6.6795,6.6795,6.6795,6.6795,6.6795,6.6795,6.6795,6.6795,6.6795,6.6795,6.6795,6.6795,6.6795,6.6795,6.6795,6.7303,6.8025,6.8884,6.9567,7.0367,7.146,7.1636,7.1733,7.1968,7.2007,7.2007,7.2007,7.2007,7.2007,7.2007,7.2007,7.2007,7.2007,7.2007,7.2007,7.2007,7.2007,7.2007,7.2007,7.2007,7.2846,7.4564,7.4525,7.5266,7.675,7.6984,7.7101,0.0,0.0,0.0,0.0,0.0,0.0,5.4981,5.5191,5.5389,5.5662,5.5745,5.5745,5.5785,5.5826,5.5846,5.5866,5.5924,5.5924,5.5924,5.5979,5.5995,5.6016,5.5995,5.6012,5.6012,5.6012,5.6012,5.6012,5.6012,5.6012,5.6012,5.6012,5.6012,5.6012,5.6012,5.6012,5.6012,5.6425,5.685,5.7216,5.8421,5.9184,5.9531,6.0396,6.08,6.08,6.08,6.08,6.0823,6.088,6.1057,6.1383,6.2301,6.3283,6.4281,6.5159,6.6037,6.6795,6.6795,6.6795,6.6795,6.6795,6.6795,6.6795,6.6795,6.6795,6.6795,6.6795,6.6795,6.6795,6.6795,6.6795,6.6795,6.6795,6.6795,6.6795,6.6795,6.6795,6.6795,6.6795,6.7498,6.8376,6.9255,7.0113,7.0992,7.187,7.2007,7.2007,7.2007,7.2007,7.2007,7.2007,7.2007,7.2007,7.2007,7.2007,7.2007,7.2007,7.2007,7.2007,7.2007,7.2007,7.2007,7.2007,7.2007,7.2846,7.4564,7.4525,7.5403,7.7101,7.7101,7.7101,0.0,0.0,0.0,0.0,0.0,0.0,5.4685,5.5009,5.5339,5.5662,5.5766,5.5806,5.5865,5.5885,5.5905,5.5981,5.5999,5.5999,5.5999,5.5996,5.6012,5.6012,5.6012,5.6012,5.6012,5.6012,5.6012,5.6012,5.6012,5.6012,5.6012,5.6012,5.6012,5.6012,5.6012,5.6012,5.6012,5.5923,5.629,5.7062,5.7786,5.8588,5.9396,6.0262,6.0704,6.08,6.08,6.08,6.08,6.08,6.0877,6.1098,6.1986,6.3016,6.4091,6.4871,6.5839,6.6784,6.6784,6.6784,6.6784,6.6784,6.679,6.6795,6.6795,6.6795,6.6795,6.6795,6.6795,6.6795,6.6795,6.6795,6.6795,6.6795,6.6795,6.6795,6.6795,6.6795,6.6795,6.6795,6.7576,6.8493,6.9274,7.0191,7.1109,7.187,7.2007,7.2007,7.2007,7.2007,7.2007,7.2007,7.2007,7.2007,7.2007,7.2007,7.2007,7.2007,7.2007,7.2007,7.2007,7.2007,7.2007,7.2007,7.2182,7.3061,7.4642,7.4739,7.5598,7.7101,7.7101,7.7101,0.0,0.0,0.0,0.0,0.0,0.0,5.4296,5.4654,5.4981,5.5339,5.5573,5.5724,5.5745,5.5766,5.5846,5.5905,5.5962,5.6017,5.6014,5.5995,5.6012,5.6012,5.6012,5.6012,5.6012,5.6012,5.6012,5.6012,5.6012,5.6012,5.6012,5.6012,5.6012,5.6012,5.6012,5.6012,5.6012,5.5923,5.6001,5.6175,5.6902,5.7703,5.8569,5.9377,6.0146,6.08,6.08,6.08,6.08,6.08,6.0877,6.1021,6.1213,6.2396,6.4033,6.4189,6.527,6.6644,6.6644,6.6644,6.6644,6.6644,6.6713,6.6795,6.6795,6.6795,6.6795,6.6795,6.6795,6.6795,6.6795,6.6795,6.6795,6.6795,6.6795,6.6795,6.6795,6.6795,6.6795,6.6795,6.8064,6.9196,6.9372,7.0699,7.1792,7.1968,7.2007,7.2007,7.2007,7.2007,7.2007,7.2007,7.2007,7.2007,7.2007,7.2007,7.2007,7.2007,7.2007,7.2007,7.2007,7.2007,7.2007,7.2007,7.3315,7.4525,7.554,7.6242,7.6769,7.7101,7.7101,7.7101,0.0,0.0,0.0,5.3813,0.0,0.0,0.0,5.443,5.4697,5.5198,5.5399,5.5558,5.5766,5.5826,5.5866,5.5943,5.5981,5.5998,5.5995,5.6012,5.6012,5.6012,5.6012,5.6012,5.6012,5.6012,5.6012,5.6012,5.6012,5.6012,5.6012,5.6012,5.6012,5.6012,5.6012,5.6012,5.6012,5.5923,5.5905,5.5924,5.6652,5.7453,5.8338,5.9127,5.9973,6.08,6.08,6.08,6.08,6.08,6.0831,6.0901,6.0901,6.1813,6.3201,6.3648,6.4662,6.5913,6.6438,6.6595,6.6605,6.667,6.6753,6.6795,6.6795,6.6795,6.6795,6.6795,6.6795,6.6795,6.6795,6.6795,6.6795,6.6795,6.6795,6.6795,6.6795,6.6795,6.6795,6.6795,6.82,6.9391,6.9391,7.0855,7.2007,7.2007,7.2007,7.2007,7.2007,7.2007,7.2007,7.2007,7.2007,7.2007,7.2007,7.2007,7.2007,7.2007,7.2007,7.2007,7.2007,7.2007,7.2202,7.2631,7.3861,7.4935,7.5793,7.6672,7.7101,7.7101,7.7101,7.7101,0.0,0.0,0.0,0.0,0.0,5.387,0.0,0.0,0.0,5.5061,5.5256,5.5423,5.5787,5.5865,5.5827,5.573,5.5865,5.5922,5.5782,5.5896,5.6012,5.6012,5.6012,5.6012,5.6012,5.6012,5.6012,5.6012,5.6012,5.6012,5.6012,5.6012,5.6012,5.6012,5.6012,5.6012,5.6012,5.5961,5.5905,5.5924,5.6479,5.7225,5.8088,5.8896,5.9742,6.055,6.0723,6.08,6.08,6.08,6.08,6.08,6.08,6.14,6.2413,6.3284,6.4209,6.5192,6.6185,6.6544,6.6574,6.6713,6.6784,6.6795,6.6795,6.6795,6.6795,6.6795,6.6795,6.6795,6.6795,6.6795,6.6795,6.6795,6.6795,6.6795,6.6795,6.6795,6.6795,6.6795,6.82,6.9391,6.9391,7.0855,7.2007,7.2007,7.2007,7.2007,7.2007,7.2007,7.2007,7.2007,7.2007,7.2007,7.2007,7.2007,7.2007,7.2007,7.2007,7.2007,7.2007,7.2007,7.2475,7.351,7.4173,7.5013,7.6047,7.675,7.7101,7.7101,7.7101,7.7101,0.0,0.0,0.0,0.0,5.3813,0.0,0.0,0.0,5.4397,5.4758,0.0,5.5389,5.5662,0.0,0.0,5.4805,5.5384,5.5654,5.4954,5.5511,5.6012,5.6012,5.6012,5.6012,5.6012,5.6012,5.6012,5.6012,5.6012,5.6012,5.6012,5.6012,5.6012,5.6012,5.6012,5.6012,5.6012,5.5998,5.5962,5.5905,5.5923,5.6363,5.7165,5.803,5.8877,5.9685,6.0454,6.08,6.08,6.08,6.08,6.08,6.08,6.14,6.2413,6.3284,6.4116,6.4967,6.5992,6.6344,6.6358,6.6555,6.6705,6.6795,6.6795,6.6795,6.6795,6.6795,6.6795,6.6795,6.6795,6.6795,6.6795,6.6795,6.6795,6.6795,6.6795,6.6795,6.6795,6.6795,6.82,6.9391,6.9391,7.0855,7.2007,7.2007,7.2007,7.2007,7.2007,7.2007,7.2007,7.2007,7.2007,7.2007,7.2007,7.2007,7.2007,7.2007,7.2007,7.2007,7.2007,7.2007,7.2748,7.433,7.4447,7.5305,7.6945,7.7043,7.7101,7.7101,7.7101,7.7101,0.0,0.0,0.0,0.0,0.0,0.0,0.0,0.0,5.4125,0.0,0.0,0.0,0.0,0.0,0.0,0.0,5.5576,5.575,5.5479,5.5766,5.5996,5.6012,5.6012,5.6012,5.6012,5.6012,5.6012,5.6012,5.6012,5.6012,5.6012,5.6012,5.6012,5.6012,5.6012,5.6012,5.6012,5.5998,5.5981,5.5962,5.5846,5.6249,5.7093,5.7937,5.8742,5.955,6.0416,6.08,6.08,6.08,6.08,6.08,6.08,6.1062,6.1535,6.2403,6.3232,6.4087,6.5209,6.5906,6.6358,6.6633,6.6753,6.6795,6.6795,6.6795,6.6795,6.6795,6.6795,6.6795,6.6795,6.6795,6.6795,6.6795,6.6795,6.6795,6.6795,6.6795,6.6795,6.6795,6.7791,6.8806,6.9313,7.0855,7.2007,7.2007,7.2007,7.2007,7.2007,7.2007,7.2007,7.2007,7.2007,7.2007,7.2007,7.2007,7.2007,7.2007,7.2007,7.2007,7.2007,7.2007,7.2787,7.4466,7.4505,7.5364,7.7101,7.7101,7.7101,7.7101,7.7101,7.7101,5.3981,0.0,0.0,0.0,0.0,0.0,0.0,0.0,0.0,0.0,0.0,0.0,0.0,0.0,0.0,0.0,0.0,5.5769,5.5634,5.5826,5.5998,5.5995,5.6012,5.6012,5.6012,5.6012,5.6012,5.6012,5.6012,5.6012,5.6012,5.6012,5.6012,5.6012,5.6012,5.6012,5.6012,5.5996,5.5999,5.5999,5.5866,5.6154,5.6788,5.7822,5.8627,5.9223,6.0319,6.08,6.08,6.08,6.08,6.08,6.08,6.08,6.0916,6.1781,6.2637,6.3541,6.4704,6.5692,6.6482,6.6727,6.6784,6.6753,6.6753,6.6753,6.6753,6.6753,6.6765,6.6795,6.6795,6.6795,6.6795,6.6795,6.6795,6.6795,6.6795,6.6795,6.6795,6.6795,6.7498,6.8376,6.9255,7.064,7.1714,7.1968,7.2007,7.2007,7.2007,7.2007,7.2007,7.2007,7.2007,7.2007,7.2007,7.2007,7.2007,7.2007,7.2007,7.2007,7.2007,7.2221,7.3022,7.4466,7.472,7.5598,7.7101,7.7101,7.7101,7.7101,7.7101,7.7101,0.0,0.0,0.0,5.3889,0.0,0.0,0.0,0.0,5.3907,0.0,0.0,0.0,0.0,0.0,0.0,0.0,0.0,0.0,0.0,5.5421,5.5998,5.5995,5.6012,5.6012,5.6012,5.6012,5.6012,5.6012,5.6012,5.6012,5.6012,5.6012,5.6012,5.6012,5.6012,5.6012,5.6012,5.6012,5.5996,5.5999,5.5924,5.5865,5.5902,5.7552,5.8319,5.8434,6.0089,6.08,6.08,6.08,6.08,6.08,6.08,6.08,6.0916,6.1781,6.2731,6.3748,6.4753,6.5834,6.679,6.6795,6.6713,6.6615,6.6615,6.6615,6.6615,6.6615,6.6705,6.6795,6.6795,6.6795,6.6795,6.6795,6.6795,6.6795,6.6795,6.6795,6.6795,6.6795,6.7498,6.8376,6.9255,7.0152,7.1031,7.187,7.2007,7.2007,7.2007,7.2007,7.2007,7.2007,7.2007,7.2007,7.2007,7.2007,7.2007,7.2007,7.2007,7.2007,7.2007,7.2807,7.3646,7.4486,7.5325,7.6203,7.7101,7.7101,7.7101,7.7101,7.7101,7.7101,0.0,0.0,5.4996,5.4452,0.0,0.0,0.0,0.0,0.0,0.0,0.0,0.0,0.0,0.0,0.0,0.0,0.0,0.0,0.0,5.5805,5.6014,5.6012,5.6012,5.6012,5.6012,5.6012,5.6012,5.6012,5.6012,5.6012,5.6012,5.6012,5.6012,5.6012,5.6012,5.6012,5.6012,5.6012,5.5995,5.5996,5.5943,5.5885,5.5885,5.6958,5.7742,5.8357,5.9454,6.0262,6.08,6.08,6.08,6.08,6.08,6.08,6.0839,6.1127,6.1832,6.283,6.4367,6.5692,6.6653,6.6505,6.6524,6.6574,6.6432,6.6406,6.6432,6.6555,6.6544,6.6516,6.6739,6.6727,6.6697,6.6784,6.6795,6.6795,6.6795,6.6795,6.6795,6.6795,6.7029,6.7693,6.9157,6.9645,7.0328,7.1772,7.2007,7.2007,7.2007,7.2007,7.2007,7.2007,7.2007,7.2007,7.2007,7.2007,7.2007,7.2007,7.2007,7.2007,7.2007,7.2846,7.3685,7.4486,7.5364,7.6223,7.7101,7.7101,7.7101,7.7101,7.7101,7.7101,5.5135,5.5298,0.0,5.4838,5.4791,0.0,5.4471,0.0,0.0,0.0,0.0,0.0,0.0,0.0,0.0,0.0,0.0,5.5924,0.0,5.5996,5.6012,5.6012,5.6012,5.6012,5.6012,5.6012,5.6012,5.6012,5.6012,5.6012,5.6012,5.6012,5.6012,5.6012,5.6012,5.6012,5.6012,5.6012,5.6012,5.6012,5.5961,5.5924,5.5924,5.669,5.7495,5.8338,5.9146,5.9992,6.08,6.08,6.08,6.08,6.08,6.08,6.08,6.08,6.1582,6.2849,6.4386,6.56,6.6477,6.6344,6.6363,6.6397,6.627,6.6237,6.6329,6.6752,6.6597,6.645,6.7032,6.6895,6.6644,6.6765,6.6795,6.6795,6.6795,6.6795,6.6795,6.6795,6.6795,6.7342,6.9098,6.9391,6.9996,7.1733,7.2007,7.2007,7.2007,7.2007,7.2007,7.2007,7.2007,7.2007,7.2007,7.2007,7.2007,7.2007,7.2007,7.2007,7.2007,7.3119,7.3978,7.4486,7.5657,7.6535,7.7101,7.7101,7.7101,7.7101,7.7101,7.7101]},{"header":{"parameterUnit":"m.s-1","parameterCategory":1,"la1":30.6,"la2":29.2853,"lo1":-89.7004,"lo2":-87.6739,"dy":0.0162,"dx":0.0183,"nx":112,"ny":82,"refTime":"2024-03-23T06:00:00:Z","depth":0,"parameterNumber":3,"parameterNumberName":"V-component_of_WINDS"},"data":[0.0,0.0,0.0,0.0,0.0,0.0,0.0,0.0,0.0,0.0,0.0,0.0,0.0,0.0,0.0,0.0,0.0,0.0,0.0,0.0,0.0,0.0,0.0,0.0,0.0,0.0,0.0,0.0,0.0,0.0,0.0,0.0,0.0,0.0,0.0,0.0,0.0,0.0,0.0,0.0,0.0,0.0,0.0,0.0,0.0,0.0,0.0,0.0,0.0,0.0,0.0,0.0,0.0,0.0,0.0,0.0,0.0,0.0,0.0,0.0,0.0,0.0,0.0,0.0,0.0,0.0,0.0,0.0,0.0,0.0,0.0,0.0,0.0,0.0,0.0,0.0,0.0,0.0,0.0,0.0,0.0,0.0,0.0,0.0,0.0,0.0,0.0,0.0,0.0,0.0,0.0,-0.97,-0.9822,-0.9822,-0.9822,-0.9822,-0.9579,-0.8976,0.0,0.0,0.0,0.0,0.0,0.0,0.0,0.0,0.0,0.0,0.0,0.0,0.0,0.0,0.0,0.0,0.0,0.0,0.0,0.0,0.0,0.0,0.0,0.0,0.0,0.0,0.0,0.0,0.0,0.0,0.0,0.0,0.0,0.0,0.0,0.0,0.0,0.0,0.0,0.0,0.0,0.0,0.0,0.0,0.0,0.0,0.0,0.0,0.0,0.0,0.0,0.0,0.0,0.0,0.0,0.0,0.0,0.0,0.0,0.0,0.0,0.0,0.0,0.0,0.0,0.0,0.0,0.0,0.0,0.0,0.0,0.0,0.0,0.0,0.0,0.0,0.0,0.0,0.0,0.0,0.0,0.0,0.0,0.0,0.0,0.0,0.0,0.0,0.0,0.0,0.0,0.0,0.0,0.0,0.0,0.0,0.0,0.0,0.0,0.0,0.0,0.0,0.0,0.0,-0.8732,-0.9339,-0.9579,-0.9822,-0.9822,-0.9822,-0.97,-0.9217,0.0,0.0,0.0,0.0,0.0,0.0,0.0,0.0,0.0,0.0,0.0,0.0,0.0,0.0,0.0,0.0,0.0,0.0,0.0,0.0,0.0,0.0,0.0,0.0,0.0,0.0,0.0,0.0,0.0,0.0,0.0,0.0,0.0,0.0,0.0,0.0,0.0,0.0,0.0,0.0,0.0,0.0,0.0,0.0,0.0,0.0,0.0,0.0,0.0,0.0,0.0,0.0,0.0,0.0,0.0,0.0,0.0,0.0,0.0,0.0,0.0,0.0,0.0,0.0,0.0,0.0,0.0,0.0,0.0,0.0,0.0,0.0,0.0,0.0,0.0,0.0,0.0,0.0,0.0,0.0,0.0,0.0,0.0,0.0,0.0,0.0,0.0,0.0,0.0,0.0,0.0,0.0,0.0,0.0,0.0,0.0,0.0,0.0,0.0,0.0,0.0,0.0,0.0,-0.8861,-0.8732,-0.9095,-0.9217,-0.9339,-0.9339,-0.9339,-0.9217,-0.8854,-0.8735,0.0,0.0,0.0,0.0,0.0,0.0,0.0,0.0,0.0,0.0,0.0,0.0,0.0,0.0,0.0,0.0,0.0,0.0,0.0,0.0,0.0,0.0,0.0,0.0,0.0,0.0,0.0,0.0,0.0,0.0,0.0,0.0,0.0,0.0,0.0,0.0,0.0,0.0,0.0,0.0,0.0,0.0,0.0,0.0,0.0,0.0,0.0,0.0,0.0,0.0,0.0,0.0,0.0,0.0,0.0,0.0,0.0,0.0,0.0,0.0,0.0,0.0,0.0,0.0,0.0,0.0,0.0,0.0,0.0,0.0,0.0,0.0,0.0,0.0,0.0,0.0,0.0,0.0,0.0,0.0,0.0,0.0,0.0,0.0,0.0,0.0,0.0,0.0,0.0,0.0,0.0,0.0,0.0,0.0,0.0,0.0,0.0,0.0,0.0,0.0,0.0,0.0,-0.8864,-0.8854,-0.8732,-0.8854,-0.8854,-0.8854,-0.8854,-0.8735,-0.8369,-0.8369,0.0,0.0,0.0,0.0,0.0,0.0,0.0,0.0,0.0,0.0,0.0,0.0,0.0,0.0,0.0,0.0,0.0,0.0,0.0,0.0,0.0,0.0,0.0,0.0,0.0,0.0,0.0,0.0,0.0,0.0,0.0,0.0,0.0,0.0,0.0,0.0,0.0,0.0,0.0,0.0,0.0,0.0,0.0,0.0,0.0,0.0,0.0,0.0,0.0,0.0,0.0,0.0,0.0,0.0,0.0,0.0,0.0,0.0,0.0,0.0,0.0,0.0,0.0,0.0,0.0,0.0,0.0,0.0,0.0,0.0,0.0,0.0,0.0,0.0,0.0,0.0,0.0,0.0,0.0,0.0,0.0,0.0,0.0,0.0,0.0,0.0,0.0,0.0,0.0,0.0,0.0,0.0,0.0,0.0,0.0,0.0,0.0,0.0,0.0,0.0,0.0,0.0,-0.8497,-0.8732,-0.8491,-0.8735,-0.8854,-0.8854,-0.8854,-0.8735,-0.8369,-0.8369,0.0,0.0,0.0,0.0,0.0,0.0,0.0,0.0,0.0,0.0,0.0,0.0,0.0,0.0,0.0,0.0,0.0,0.0,0.0,0.0,0.0,0.0,0.0,0.0,0.0,0.0,0.0,0.0,0.0,0.0,0.0,0.0,0.0,0.0,0.0,0.0,0.0,0.0,0.0,0.0,0.0,0.0,0.0,0.0,0.0,0.0,0.0,0.0,0.0,0.0,0.0,0.0,0.0,0.0,0.0,0.0,0.0,0.0,0.0,0.0,0.0,0.0,0.0,0.0,0.0,0.0,0.0,0.0,0.0,0.0,0.0,0.0,0.0,0.0,0.0,0.0,0.0,0.0,0.0,0.0,0.0,0.0,0.0,0.0,0.0,0.0,0.0,0.0,0.0,0.0,0.0,0.0,0.0,0.0,0.0,0.0,0.0,0.0,0.0,0.0,0.0,0.0,-0.8147,-0.8264,0.0,-0.8142,-0.8264,-0.8258,-0.8258,-0.8253,-0.8119,0.0,0.0,0.0,0.0,0.0,0.0,0.0,0.0,0.0,0.0,0.0,0.0,0.0,0.0,0.0,0.0,0.0,0.0,0.0,0.0,0.0,0.0,0.0,0.0,0.0,0.0,0.0,0.0,0.0,0.0,0.0,0.0,0.0,0.0,0.0,0.0,0.0,0.0,0.0,0.0,0.0,0.0,0.0,0.0,0.0,0.0,0.0,0.0,0.0,0.0,0.0,0.0,0.0,0.0,0.0,0.0,0.0,0.0,0.0,0.0,0.0,0.0,0.0,0.0,0.0,0.0,0.0,0.0,0.0,0.0,0.0,0.0,0.0,0.0,0.0,0.0,0.0,0.0,0.0,0.0,0.0,0.0,0.0,0.0,0.0,0.0,0.0,0.0,0.0,0.0,0.0,0.0,0.0,0.0,0.0,0.0,0.0,0.0,0.0,0.0,0.0,0.0,-0.4933,-0.6915,-0.7536,0.0,-0.666,-0.666,-0.6655,-0.7403,-0.7896,-0.788,0.0,0.0,0.0,0.0,0.0,0.0,0.0,0.0,0.0,0.0,0.0,0.0,0.0,0.0,0.0,0.0,0.0,0.0,0.0,0.0,0.0,0.0,0.0,0.0,0.0,0.0,0.0,0.0,0.0,0.0,0.0,0.0,0.0,0.0,0.0,0.0,0.0,0.0,0.0,0.0,0.0,0.0,0.0,0.0,0.0,0.0,0.0,0.0,0.0,0.0,0.0,0.0,0.0,0.0,0.0,0.0,0.0,0.0,0.0,0.0,0.0,0.0,0.0,0.0,0.0,0.0,0.0,0.0,0.0,0.0,0.0,0.0,0.0,0.0,0.0,0.0,0.0,0.0,0.0,0.0,0.0,0.0,0.0,0.0,0.0,0.0,0.0,0.0,0.0,0.0,0.0,0.0,0.0,0.0,0.0,0.0,0.0,0.0,0.0,0.0,0.0,0.0,0.0,-0.4561,-0.6789,-0.4185,-0.3936,-0.3813,-0.3813,-0.6289,-0.7785,0.0,0.0,0.0,0.0,0.0,0.0,0.0,0.0,0.0,0.0,0.0,0.0,0.0,0.0,0.0,0.0,0.0,0.0,0.0,0.0,0.0,0.0,0.0,0.0,0.0,0.0,0.0,0.0,0.0,0.0,0.0,0.0,0.0,0.0,0.0,0.0,0.0,0.0,0.0,0.0,0.0,0.0,0.0,0.0,0.0,0.0,0.0,0.0,0.0,0.0,0.0,0.0,0.0,0.0,0.0,0.0,0.0,0.0,0.0,0.0,0.0,0.0,0.0,0.0,0.0,0.0,0.0,0.0,0.0,0.0,0.0,0.0,0.0,0.0,0.0,0.0,0.0,0.0,0.0,0.0,0.0,0.0,0.0,0.0,0.0,0.0,0.0,0.0,0.0,0.0,0.0,0.0,0.0,0.0,0.0,0.0,0.0,0.0,0.0,0.0,0.0,0.0,0.0,0.0,-0.1356,-0.3455,-0.6432,-0.3331,-0.1109,-0.1109,-0.1847,-0.3447,-0.5908,0.0,0.0,0.0,0.0,0.0,0.0,0.0,0.0,0.0,0.0,0.0,0.0,0.0,0.0,0.0,0.0,0.0,0.0,0.0,0.0,0.0,0.0,0.0,0.0,0.0,0.0,0.0,0.0,0.0,0.0,0.0,0.0,0.0,0.0,0.0,0.0,0.0,0.0,0.0,0.0,0.0,0.0,0.0,0.0,0.0,0.0,0.0,0.0,0.0,0.0,0.0,0.0,0.0,0.0,0.0,0.0,0.0,0.0,0.0,0.0,0.0,0.0,0.0,0.0,0.0,0.0,0.0,0.0,0.0,0.0,0.0,0.0,0.0,0.0,0.0,0.0,0.0,0.0,0.0,0.0,0.0,0.0,0.0,0.0,0.0,0.0,0.0,0.0,0.0,0.0,0.0,0.0,0.0,0.0,0.0,0.0,0.0,0.0,0.0,0.0,0.0,0.0,0.0,0.0,-0.1235,-0.445,-0.1862,0.0,0.0,0.0,-0.0878,-0.3004,0.0,0.0,0.0,0.0,0.0,0.0,0.0,0.0,0.0,0.0,0.0,0.0,0.0,0.0,0.0,0.0,0.0,0.0,0.0,0.0,0.0,0.0,0.0,0.0,0.0,0.0,0.0,0.0,0.0,0.0,0.0,0.0,0.0,0.0,0.0,0.0,0.0,0.0,0.0,0.0,0.0,0.0,0.0,0.0,0.0,0.0,0.0,0.0,0.0,0.0,0.0,0.0,0.0,0.0,0.0,0.0,0.0,0.0,0.0,0.0,0.0,0.0,0.0,0.0,0.0,0.0,0.0,0.0,0.0,0.0,0.0,0.0,0.0,0.0,0.0,0.0,0.0,0.0,0.0,0.0,0.0,0.0,0.0,0.0,0.0,0.0,0.0,0.0,0.0,0.0,0.0,0.0,0.0,0.0,0.0,0.0,0.0,0.0,0.0,0.0,0.0,0.0,0.0,0.0,0.0,0.0,0.0,0.0,0.0,0.0,0.0,0.0,0.0,0.0,0.0,0.0,0.0,0.0,0.0,0.0,0.0,0.0,0.0,0.0,0.0,0.0,0.0,0.0,0.0,0.0,0.0,0.0,0.0,0.0,0.0,0.0,0.0,0.0,0.0,0.0,0.0,0.0,0.0,0.0,0.0,0.0,0.0,0.0,0.0,0.0,0.0,0.0,0.0,0.0,0.0,0.0,0.0,0.0,0.0,0.0,0.0,0.0,0.0,0.0,0.0,0.0,0.0,0.0,0.0,0.0,0.0,0.0,-0.1548,0.0,0.0,0.0,0.0,0.0,0.0,0.0,0.0,0.0,0.0,0.0,0.0,0.0,0.0,0.0,0.0,0.0,0.0,0.0,0.0,0.0,0.0,0.0,0.0,0.0,0.0,0.0,0.0,0.0,0.0,0.0,0.0,0.0,0.0,0.0,0.0,0.0,0.0,0.0,0.0,0.0,0.0,0.0,0.0,0.0,0.0,0.0,0.0,0.0,0.0,0.0,-0.1158,0.0,0.0,0.0,0.0,0.0,0.0,0.0,0.0,0.0,0.0,0.0,0.0,0.0,0.0,0.0,0.0,0.0,0.0,0.0,0.0,0.0,0.0,0.0,0.0,0.0,0.0,0.0,0.0,0.0,0.0,0.0,0.0,0.0,0.0,0.0,0.0,0.0,0.0,0.0,0.0,0.0,0.0,0.0,0.0,0.0,0.0,0.0,0.0,0.0,0.0,0.0,0.0,0.0,0.0,0.0,0.0,0.0,0.0,0.0,0.0,0.0,0.0,0.0,0.0,0.0,0.0,0.0,0.0,0.0,0.0,0.0,0.0,0.0,0.0,0.0,0.0,0.0,0.0,0.0,0.0,0.0,0.0,0.0,0.0,0.0,0.0,0.0,0.0,0.0,0.0,0.0,0.0,0.0,0.0,0.0,0.0,0.0,0.0,0.0,0.0,0.0,0.0,0.0,0.0,0.0,0.0,0.0,0.0,0.0,0.0,0.0,0.0,0.0,0.0,0.0,0.0,0.0,0.0,0.0,0.0,0.0,0.0,0.0,0.0,0.0,0.0,0.0,0.0,0.0,0.0,0.0,0.0,0.0,0.0,0.0,0.0,0.0,0.0,0.0,0.0,0.0,0.0,0.0,0.0,0.0,0.0,0.0,0.0,0.0,0.0,0.0,0.0,0.0,0.0,0.0,0.0,0.0,0.0,0.0,0.0,0.0,0.0,0.0,0.0,0.0,0.0,0.0,0.0,0.0,0.0,0.0,0.0,0.0,0.0,0.0,0.0,0.0,0.0,0.0,0.0,0.0,0.0,0.0,0.0,0.0,0.0,0.0,0.0,0.0,0.0,0.0,0.0,0.0,0.0,0.0,0.0,0.0,0.0,0.0,0.0,0.0,0.0,0.0,0.0,0.0,0.0,0.0,0.0,0.0,0.0,0.0,0.0,0.0,0.0,0.0,0.0,0.0,0.0,0.0,0.0,0.0,0.0,0.0,0.0,0.0,0.0,0.0,0.0,0.0,0.0,0.0,0.0,0.0,0.0,0.0,0.0,0.0,0.0,0.0,0.0,0.0,0.0,0.0,0.0,0.0,0.0,0.0,0.0,0.0,0.0,0.0,0.0,0.0,0.0,0.0,0.0,0.0,0.0,0.0,0.0,0.0,0.0,0.0,0.0,0.0,0.0,0.0,0.0,0.0,0.0,0.0,0.0,-0.424,-0.0,0.0,0.0,0.0,0.0,0.0,0.0,0.0,0.0,0.0,0.0,0.0,0.0,0.0,0.0,0.0,0.0,0.0,0.0,0.0,0.0,0.0,0.0,0.0,0.0,0.0,0.0,0.0,0.0,0.0,0.0,0.0,0.0,0.0,0.0,0.0,0.0,0.0,0.0,0.0,0.0,0.0,0.0,0.0,0.0,0.0,0.0,0.0,0.0,0.0,0.0,0.0,0.0,0.0,0.0,0.0,0.0,0.0,0.0,0.0,0.0,0.0,0.0,0.0,0.0,-0.0672,0.0,0.0,0.0,0.0,0.0,0.0,0.0,0.0,0.0,0.0,0.0,0.0,0.0,0.0,0.0,0.0,0.0,0.0,0.0,0.0,0.0,0.0,0.0,0.0,0.0,0.0,0.0,0.0,0.0,0.0,0.0,0.0,-0.2593,-0.533,0.0,0.0,0.0,0.0,0.0,0.0,0.0,0.0,0.0,-0.0122,-0.2078,-0.2084,-0.0,0.0,0.0,0.0,0.0,0.0,0.0,0.0,0.0,0.0,0.0,0.0,0.0,0.0,0.0,0.0,0.0,0.0,0.0,0.0,0.0,0.0,0.0,0.0,0.0,0.0,0.0,0.0,0.0,0.0,0.0,0.0,0.0,0.0,0.0,0.0,0.0,0.0,0.0,0.0,0.0,0.0,0.0,0.0,0.0,0.0,0.0,0.0,0.0,0.0,0.0,0.0,0.0,0.0,0.0,0.0,0.0,0.0,0.0,0.0,0.0,0.0,0.0,0.0,0.0,0.0,-0.1209,0.0,0.0,0.0,0.0,0.0,0.0,0.0,0.0,0.0,0.0,0.0,0.0,0.0,0.0,0.0,0.0,0.0,0.0,0.0,0.0,0.0,0.0,0.0,0.0,0.0,0.0,0.0,0.0,0.0,0.0,0.0,-0.346,-0.637,0.0,0.0,0.0,0.0,0.0,0.0,-0.794,-0.6566,-0.4079,-0.0123,0.0,0.0,0.0,0.0,0.0,0.0,0.0,0.0,0.0,0.0,0.0,0.0,0.0,0.0,0.0,0.0,0.0,0.0,0.0,0.0,0.0,0.0,0.0,0.0,0.0,0.0,0.0,0.0,0.0,0.0,0.0,0.0,0.0,0.0,0.0,0.0,0.0,0.0,0.0,0.0,0.0,0.0,0.0,0.0,0.0,0.0,0.0,0.0,0.0,0.0,0.0,0.0,0.0,0.0,0.0,0.0,0.0,0.0,0.0,0.0,0.0,0.0,0.0,0.0,0.0,0.0,0.0,0.0,0.0,0.0,0.0,0.0,0.0,0.0,0.0,0.0,0.0,0.0,0.0,0.0,0.0,0.0,0.0,0.0,0.0,0.0,0.0,0.0,0.0,0.0,0.0,0.0,0.0,0.0,0.0,0.0,0.0,0.0,0.0,0.0,-0.0246,0.0,0.0,0.0,0.0,-0.4307,-0.643,-0.794,-0.794,-0.3088,-0.0247,-0.0,0.0,0.0,0.0,0.0,0.0,0.0,0.0,0.0,0.0,0.0,0.0,0.0,0.0,0.0,0.0,0.0,0.0,0.0,0.0,0.0,0.0,0.0,0.0,0.0,0.0,0.0,0.0,0.0,0.0,0.0,0.0,0.0,0.0,0.0,0.0,0.0,0.0,0.0,0.0,0.0,0.0,0.0,0.0,0.0,0.0,0.0,0.0,0.0,0.0,0.0,0.0,0.0,0.0,0.0,0.0,0.0,0.0,0.0,0.0,0.0,0.0,0.0,0.0,0.0,0.0,0.0,0.0,0.0,0.0,0.0,-0.566,0.0,0.0,0.0,0.0,0.0,0.0,0.0,0.0,0.0,0.0,0.0,0.0,0.0,0.0,0.0,0.0,0.0,0.0,0.0,0.0,0.0,0.0,0.0,0.0,0.0,0.0,0.0,0.0,0.0,0.0,0.0,-0.259,-0.5939,-0.756,-0.6555,-0.4199,-0.284,-0.284,-0.0988,0.0,0.0,0.0,0.0,0.0,0.0,0.0,0.0,0.0,0.0,0.0,0.0,0.0,0.0,0.0,0.0,0.0,0.0,0.0,0.0,0.0,0.0,0.0,0.0,0.0,0.0,0.0,0.0,0.0,0.0,0.0,0.0,0.0,0.0,0.0,0.0,0.0,0.0,0.0,0.0,0.0,0.0,0.0,0.0,0.0,0.0,0.0,0.0,0.0,0.0,0.0,0.0,0.0,0.0,0.0,0.0,0.0,0.0,0.0,0.0,0.0,0.0,0.0,0.0,0.0,0.0,0.0,0.0,0.0,0.0,0.0,0.0,-0.3906,-0.5522,0.0,0.0,0.0,0.0,0.0,0.0,0.0,0.0,0.0,0.0,0.0,0.0,0.0,0.0,0.0,0.0,0.0,0.0,0.0,0.0,0.0,0.0,0.0,0.0,0.0,0.0,0.0,0.0,0.0,0.0,0.0,-0.321,-0.5195,-0.5195,-0.1975,0.0,0.0,0.0,0.0,0.0,0.0,0.0,0.0,0.0,0.0,0.0,0.0,0.0,0.0,0.0,0.0,0.0,0.0,0.0,0.0,0.0,0.0,0.0,0.0,0.0,0.0,0.0,0.0,0.0,0.0,0.0,0.0,0.0,0.0,0.0,0.0,0.0,0.0,0.0,0.0,0.0,0.0,0.0,0.0,0.0,0.0,0.0,0.0,0.0,0.0,0.0,0.0,0.0,0.0,0.0,0.0,0.0,0.0,0.0,0.0,0.0,0.0,0.0,0.0,0.0,0.0,0.0,0.0,0.0,0.0,0.0,0.0,-0.0538,-0.0808,-0.0808,-0.2424,-0.4037,-0.5774,0.0,0.0,0.0,0.0,0.0,0.0,0.0,0.0,0.0,0.0,0.0,0.0,0.0,0.0,0.0,0.0,0.0,0.0,0.0,0.0,0.0,0.0,0.0,0.0,0.0,0.0,0.0,0.0,0.0,0.0,0.0,0.0,0.0,0.0,0.0,0.0,0.0,0.0,0.0,0.0,0.0,0.0,0.0,0.0,0.0,0.0,0.0,0.0,0.0,0.0,0.0,0.0,0.0,0.0,0.0,0.0,0.0,0.0,0.0,0.0,0.0,0.0,0.0,0.0,0.0,0.0,0.0,0.0,0.0,0.0,0.0,0.0,0.0,0.0,0.0,0.0,0.0,0.0,0.0,0.0,0.0,0.0,0.0,0.0,0.0,0.0,0.0,0.0,0.0,0.0,0.0,0.0,0.0,0.0,0.0,0.0,0.0,0.0,0.0,0.0,0.0,0.0,0.0,0.0,0.0,0.0,-0.1347,-0.2155,-0.2155,-0.1481,-0.2826,-0.6327,0.0,0.0,0.0,0.0,0.0,0.0,0.0,0.0,0.0,0.0,0.0,0.0,0.0,0.0,0.0,0.0,0.0,0.0,0.0,0.0,0.0,0.0,0.0,0.0,0.0,0.0,0.0,0.0,0.0,0.0,0.0,0.0,0.0,0.0,0.0,0.0,0.0,0.0,0.0,0.0,0.0,0.0,0.0,0.0,0.0,0.0,0.0,0.0,0.0,0.0,0.0,0.0,0.0,0.0,0.0,0.0,0.0,0.0,0.0,0.0,0.0,0.0,0.0,0.0,0.0,0.0,0.0,0.0,0.0,0.0,0.0,0.0,0.0,0.0,0.0,0.0,0.0,0.0,0.0,0.0,0.0,0.0,0.0,0.0,0.0,0.0,0.0,0.0,0.0,0.0,0.0,0.0,0.0,0.0,0.0,0.0,0.0,0.0,0.0,0.0,0.0,0.0,0.0,0.0,0.0,0.0,-0.041,-0.1088,-0.2155,-0.1479,-0.1881,0.0,0.0,0.0,0.0,0.0,0.0,0.0,0.0,0.0,0.0,0.0,0.0,0.0,0.0,0.0,0.0,0.0,0.0,0.0,0.0,0.0,0.0,0.0,0.0,0.0,0.0,0.0,0.0,0.0,0.0,0.0,0.0,0.0,0.0,0.0,0.0,0.0,0.0,0.0,0.0,0.0,0.0,0.0,0.0,0.0,0.0,0.0,0.0,0.0,0.0,0.0,0.0,0.0,0.0,0.0,0.0,0.0,0.0,0.0,0.0,0.0,0.0,0.0,0.0,0.0,0.0,0.0,0.0,0.0,0.0,0.0,0.0,0.0,0.0,0.0,0.0,0.0,0.0,0.0,0.0,0.0,0.0,0.0,0.0,0.0,0.0,0.0,0.0,0.0,0.0,0.0,0.0,0.0,0.0,0.0,0.0,0.0,0.0,0.0,0.0,0.0,0.0,0.0,0.0,0.0,0.0,0.0,0.0,0.0,0.0,0.0,-0.1505,-0.2191,0.0,0.0,0.0,-0.8867,-0.9646,0.0,0.0,0.0,0.0,0.0,0.0,0.0,0.0,0.0,0.0,0.0,0.0,0.0,0.0,0.0,0.0,0.0,0.0,0.0,0.0,0.0,0.0,0.0,0.0,0.0,0.0,0.0,0.0,0.0,0.0,0.0,0.0,0.0,0.0,0.0,0.0,0.0,0.0,0.0,0.0,0.0,0.0,0.0,0.0,0.0,0.0,0.0,0.0,0.0,0.0,0.0,0.0,0.0,0.0,0.0,0.0,0.0,0.0,0.0,0.0,0.0,0.0,0.0,0.0,0.0,0.0,0.0,0.0,0.0,0.0,0.0,0.0,0.0,0.0,0.0,0.0,0.0,0.0,0.0,0.0,0.0,0.0,0.0,0.0,0.0,0.0,0.0,0.0,0.0,0.0,0.0,0.0,0.0,0.0,0.0,0.0,0.0,0.0,0.0,0.0,0.0,0.0,0.0,0.0,-0.0701,-0.1403,-0.2105,-0.2356,-0.3714,-0.6035,-0.8907,-0.9779,0.0,0.0,0.0,0.0,0.0,0.0,0.0,0.0,0.0,0.0,0.0,0.0,0.0,0.0,0.0,0.0,0.0,0.0,0.0,0.0,0.0,0.0,0.0,0.0,0.0,0.0,0.0,0.0,0.0,0.0,0.0,0.0,0.0,0.0,0.0,0.0,0.0,0.0,0.0,0.0,0.0,0.0,0.0,0.0,0.0,0.0,0.0,0.0,0.0,0.0,0.0,0.0,0.0,0.0,0.0,0.0,0.0,0.0,0.0,0.0,0.0,0.0,0.0,0.0,0.0,0.0,0.0,0.0,0.0,0.0,0.0,0.0,0.0,0.0,0.0,0.0,0.0,0.0,0.0,0.0,0.0,0.0,0.0,0.0,0.0,0.0,0.0,0.0,0.0,0.0,0.0,0.0,0.0,0.0,0.0,0.0,0.0,0.0,0.0,0.0,0.0,0.0,0.0,0.0,-0.0842,-0.1263,-0.1403,-0.3073,-0.3626,-0.307,-0.597,-0.8304,0.0,0.0,0.0,0.0,0.0,0.0,0.0,0.0,0.0,0.0,0.0,0.0,0.0,0.0,0.0,0.0,0.0,0.0,0.0,0.0,0.0,0.0,0.0,0.0,0.0,0.0,0.0,0.0,0.0,0.0,0.0,0.0,0.0,0.0,0.0,0.0,0.0,0.0,0.0,0.0,0.0,0.0,0.0,0.0,0.0,0.0,0.0,0.0,0.0,0.0,0.0,0.0,0.0,0.0,0.0,0.0,0.0,0.0,0.0,0.0,0.0,0.0,0.0,0.0,0.0,0.0,0.0,0.0,0.0,0.0,0.0,0.0,0.0,0.0,0.0,0.0,0.0,0.0,0.0,0.0,0.0,0.0,0.0,0.0,0.0,0.0,0.0,0.0,0.0,0.0,0.0,0.0,0.0,0.0,0.0,0.0,0.0,0.0,0.0,0.0,0.0,0.0,-0.0429,-0.1145,-0.1575,-0.1717,-0.1716,-0.284,-0.3396,-0.3394,-0.4704,-0.6568,0.0,0.0,0.0,0.0,0.0,0.0,0.0,0.0,0.0,0.0,0.0,0.0,0.0,0.0,0.0,0.0,0.0,0.0,0.0,0.0,0.0,0.0,0.0,0.0,0.0,0.0,0.0,0.0,0.0,0.0,0.0,0.0,0.0,0.0,0.0,0.0,0.0,0.0,0.0,0.0,0.0,0.0,0.0,0.0,0.0,0.0,0.0,0.0,0.0,0.0,0.0,0.0,0.0,0.0,0.0,0.0,0.0,0.0,0.0,0.0,0.0,0.0,0.0,0.0,0.0,0.0,0.0,0.0,0.0,0.0,0.0,0.0,0.0,0.0,0.0,0.0,0.0,0.0,0.0,0.0,0.0,0.0,0.0,0.0,0.0,0.0,0.0,0.0,0.0,0.0,0.0,0.0,0.0,0.0,0.0,0.0,0.0,0.0,0.0,0.0,0.0,-0.0292,-0.1022,-0.2336,-0.2336,-0.2335,-0.2333,-0.231,-0.2871,-0.401,-0.3968,-0.4918,0.0,0.0,0.0,0.0,0.0,0.0,0.0,0.0,0.0,0.0,0.0,0.0,0.0,0.0,0.0,0.0,0.0,0.0,0.0,0.0,0.0,0.0,0.0,0.0,0.0,0.0,0.0,0.0,0.0,0.0,0.0,0.0,0.0,0.0,0.0,0.0,0.0,0.0,0.0,0.0,0.0,0.0,0.0,0.0,0.0,0.0,0.0,0.0,0.0,0.0,0.0,0.0,0.0,0.0,0.0,0.0,0.0,0.0,0.0,0.0,0.0,0.0,0.0,0.0,0.0,0.0,0.0,0.0,0.0,0.0,0.0,0.0,0.0,0.0,0.0,0.0,0.0,0.0,0.0,0.0,0.0,0.0,0.0,0.0,0.0,0.0,0.0,0.0,0.0,0.0,0.0,0.0,0.0,0.0,0.0,0.0,0.0,0.0,0.0,0.0,0.0,-0.1314,-0.219,-0.2336,-0.2334,-0.2333,-0.2333,-0.233,-0.2328,-0.2472,-0.2469,-0.4007,0.0,0.0,0.0,0.0,0.0,0.0,0.0,0.0,0.0,0.0,0.0,0.0,0.0,0.0,0.0,0.0,0.0,0.0,0.0,0.0,0.0,0.0,0.0,0.0,0.0,0.0,0.0,0.0,0.0,0.0,0.0,0.0,0.0,0.0,0.0,0.0,0.0,0.0,0.0,0.0,0.0,0.0,0.0,0.0,0.0,0.0,0.0,0.0,0.0,0.0,0.0,0.0,0.0,0.0,0.0,0.0,0.0,0.0,0.0,0.0,0.0,0.0,0.0,0.0,0.0,0.0,0.0,0.0,0.0,0.0,0.0,0.0,0.0,0.0,0.0,0.0,0.0,0.0,0.0,0.0,0.0,0.0,0.0,0.0,0.0,0.0,0.0,0.0,0.0,0.0,0.0,0.0,0.0,0.0,0.0,0.0,0.0,0.0,0.0,0.0,0.0,-0.146,-0.2336,-0.2336,-0.2334,-0.2333,-0.2333,-0.2333,-0.2333,-0.2333,-0.2333,-0.2897,0.0,0.0,0.0,0.0,0.0,0.0,0.0,0.0,0.0,0.0,0.0,0.0,0.0,0.0,0.0,0.0,0.0,0.0,0.0,0.0,0.0,0.0,0.0,0.0,0.0,0.0,0.0,0.0,0.0,0.0,0.0,0.0,0.0,0.0,0.0,0.0,0.0,0.0,0.0,0.0,0.0,0.0,0.0,0.0,0.0,0.0,0.0,0.0,0.0,0.0,0.0,0.0,0.0,0.0,0.0,0.0,0.0,0.0,0.0,0.0,0.0,0.0,0.0,0.0,0.0,0.0,0.0,0.0,0.0,0.0,0.0,0.0,0.0,0.0,0.0,0.0,0.0,0.0,0.0,0.0,0.0,0.0,0.0,0.0,0.0,0.0,0.0,0.0,0.0,0.0,0.0,0.0,0.0,0.0,0.0,0.0,0.0,0.0,0.0,-0.0146,-0.0584,-0.146,-0.2043,-0.2335,-0.2333,-0.2333,-0.2333,-0.2333,-0.2333,-0.2333,-0.2333,-0.2333,0.0,0.0,0.0,0.0,0.0,0.0,0.0,0.0,0.0,0.0,0.0,0.0,0.0,0.0,0.0,0.0,0.0,0.0,0.0,0.0,0.0,0.0,0.0,0.0,0.0,0.0,0.0,0.0,0.0,0.0,0.0,0.0,0.0,0.0,0.0,0.0,0.0,0.0,0.0,0.0,0.0,0.0,0.0,0.0,0.0,0.0,0.0,0.0,0.0,0.0,0.0,0.0,0.0,0.0,0.0,0.0,0.0,0.0,0.0,0.0,0.0,0.0,0.0,0.0,0.0,0.0,0.0,0.0,0.0,0.0,0.0,0.0,0.0,0.0,0.0,0.0,0.0,0.0,0.0,0.0,0.0,0.0,0.0,0.0,0.0,0.0,0.0,0.0,0.0,0.0,0.0,0.0,0.0,0.0,0.0,0.0,0.0,0.0,0.0,-0.073,-0.219,-0.1606,-0.1605,-0.2333,-0.2333,-0.2333,-0.2333,-0.2333,-0.2333,-0.2333,-0.2333,-0.2333,0.0,0.0,0.0,0.0,0.0,0.0,0.0,0.0,0.0,0.0,0.0,0.0,0.0,0.0,0.0,0.0,0.0,0.0,0.0,0.0,0.0,0.0,0.0,0.0,0.0,0.0,0.0,0.0,0.0,0.0,0.0,0.0,0.0,0.0,0.0,0.0,0.0,0.0,0.0,0.0,0.0,0.0,0.0,0.0,0.0,0.0,0.0,0.0,0.0,0.0,0.0,0.0,0.0,0.0,0.0,0.0,0.0,0.0,0.0,0.0,0.0,0.0,0.0,0.0,0.0,0.0,0.0,0.0,0.0,0.0,0.0,0.0,0.0,0.0,0.0,0.0,0.0,0.0,0.0,0.0,0.0,0.0,0.0,0.0,0.0,0.0,0.0,0.0,0.0,0.0,0.0,0.0,0.0,0.0,0.0,0.0,0.0,0.0,0.0,-0.073,-0.219,-0.2044,-0.2043,-0.2333,-0.2333,-0.2333,-0.2333,-0.2333,-0.2333,-0.2333,-0.2333,-0.2333,0.0,0.0,0.0,0.0,0.0,0.0,0.0,0.0,0.0,0.0,0.0,-0.0123,-0.0617,-0.037,-0.0123,-0.037,-0.0617,-0.0494,-0.0123,0.0,0.0,0.0,0.0,0.0,0.0,0.0,0.0,0.0,0.0,0.0,0.0,0.0,0.0,0.0,0.0,0.0,0.0,0.0,0.0,0.0,0.0,0.0,0.0,0.0,0.0,0.0,0.0,0.0,0.0,0.0,0.0,0.0,0.0,0.0,0.0,0.0,0.0,0.0,0.0,0.0,0.0,0.0,0.0,0.0,0.0,0.0,0.0,0.0,0.0,0.0,0.0,0.0,0.0,0.0,0.0,0.0,0.0,0.0,0.0,0.0,0.0,0.0,0.0,0.0,0.0,0.0,0.0,0.0,0.0,0.0,0.0,0.0,0.0,0.0,0.0,0.0,0.0,0.0,-0.0584,-0.1168,-0.1898,-0.2189,-0.2334,-0.2333,-0.2333,-0.2333,-0.2333,-0.2333,-0.2333,-0.2333,-0.2333,-0.2333,0.0,0.0,0.0,0.0,0.0,0.0,0.0,0.0,0.0,0.0,0.0,-0.037,-0.1729,0.0,-0.0247,-0.0864,-0.1606,-0.1606,-0.0247,-0.0,0.0,0.0,0.0,0.0,0.0,0.0,0.0,0.0,0.0,0.0,0.0,0.0,0.0,0.0,0.0,0.0,0.0,0.0,0.0,0.0,0.0,0.0,0.0,0.0,-0.0,-0.0135,-0.0135,-0.0135,-0.0,-0.0,-0.0,-0.0,-0.0,-0.0,-0.0,-0.0,-0.0,-0.0,-0.0,-0.0,0.0,0.0,0.0,0.0,0.0,0.0,0.0,0.0,0.0,0.0,0.0,0.0,0.0,0.0,0.0,0.0,0.0,0.0,0.0,0.0,0.0,0.0,0.0,0.0,0.0,0.0,0.0,0.0,0.0,0.0,0.0,0.0,0.0,0.0,0.0,0.0,-0.0,-0.0146,-0.146,-0.2044,-0.1314,-0.1896,-0.2333,-0.2333,-0.2333,-0.2333,-0.2333,-0.2333,-0.2333,-0.2335,-0.2335,-0.2336,0.0,0.0,0.0,0.0,0.0,0.0,0.0,0.0,0.0,0.0,0.0,-0.037,-0.1729,-0.1729,0.0,-0.1111,-0.1606,0.0,-0.1482,-0.0617,0.0,0.0,0.0,0.0,0.0,0.0,0.0,0.0,0.0,0.0,0.0,0.0,0.0,0.0,0.0,0.0,0.0,0.0,0.0,0.0,0.0,0.0,0.0,0.0,-0.0538,-0.1616,-0.1616,-0.1346,-0.0808,-0.0808,-0.0808,-0.0808,-0.0808,-0.0808,-0.0808,-0.0808,-0.0813,-0.0957,-0.0957,-0.0543,0.0,0.0,0.0,0.0,0.0,0.0,0.0,0.0,0.0,0.0,0.0,0.0,0.0,0.0,0.0,0.0,0.0,0.0,0.0,0.0,0.0,0.0,0.0,0.0,0.0,0.0,0.0,0.0,0.0,0.0,0.0,0.0,0.0,0.0,0.0,0.0,-0.0438,-0.1606,-0.2044,-0.2189,-0.2042,-0.2187,-0.2333,-0.2333,-0.2333,-0.2333,-0.2333,-0.2333,-0.2344,-0.2367,-0.2367,-0.2379,0.0,0.0,0.0,0.0,0.0,0.0,0.0,0.0,0.0,0.0,-0.0494,-0.0988,-0.1482,-0.1853,-0.1853,-0.1482,0.0,0.0,-0.1606,-0.0864,-0.037,0.0,0.0,0.0,0.0,0.0,0.0,0.0,0.0,0.0,0.0,0.0,0.0,0.0,0.0,0.0,0.0,0.0,0.0,0.0,0.0,-0.0404,-0.0942,-0.0942,-0.1212,-0.175,0.0,-0.202,-0.1616,-0.1616,-0.1622,-0.163,-0.163,-0.1637,-0.1645,-0.1645,-0.1653,-0.1665,-0.1665,-0.138,-0.0961,-0.0277,0.0,0.0,0.0,0.0,0.0,0.0,0.0,0.0,0.0,0.0,0.0,0.0,0.0,0.0,0.0,0.0,0.0,0.0,0.0,0.0,0.0,0.0,0.0,0.0,0.0,0.0,0.0,0.0,0.0,0.0,0.0,0.0,0.0,0.0,-0.073,-0.219,-0.2336,-0.2335,-0.2333,-0.2333,-0.2333,-0.2333,-0.2346,-0.2352,-0.2352,-0.2366,-0.2381,-0.2398,-0.2398,-0.2407,0.0,0.0,0.0,0.0,0.0,0.0,0.0,0.0,0.0,0.0,-0.1111,-0.1853,-0.1235,-0.1606,-0.1977,-0.1977,-0.1977,-0.1853,-0.1235,-0.0988,-0.0741,-0.0247,-0.0,0.0,0.0,0.0,0.0,0.0,0.0,0.0,0.0,-0.0134,-0.0269,-0.0269,-0.0135,-0.0135,-0.0135,-0.0135,-0.0135,-0.0135,-0.0135,-0.0808,-0.202,-0.2155,-0.1885,-0.1346,-0.1885,0.0,-0.2161,-0.2161,-0.2178,-0.2206,-0.2206,-0.2222,-0.2245,-0.2245,-0.2248,-0.2251,-0.2251,-0.2254,-0.2115,-0.0704,-0.0141,0.0,0.0,0.0,0.0,0.0,0.0,0.0,0.0,0.0,0.0,0.0,0.0,0.0,0.0,0.0,0.0,0.0,0.0,0.0,0.0,0.0,0.0,0.0,0.0,0.0,0.0,0.0,0.0,0.0,0.0,0.0,0.0,-0.0146,-0.0876,-0.2044,-0.219,-0.2335,-0.2333,-0.2333,-0.2335,-0.2339,-0.2365,-0.238,-0.2384,-0.241,-0.2425,-0.2429,-0.2429,-0.2431,0.0,0.0,0.0,0.0,0.0,0.0,0.0,0.0,0.0,0.0,-0.1111,-0.1977,-0.1853,-0.1977,-0.1977,-0.1977,-0.1977,-0.1977,-0.1853,-0.0864,-0.037,-0.0741,-0.037,0.0,0.0,0.0,0.0,0.0,0.0,0.0,0.0,-0.1203,-0.1885,-0.1885,-0.1212,-0.0942,-0.0942,-0.0942,-0.0942,-0.0942,-0.0942,-0.1077,-0.1346,-0.1885,-0.2155,-0.202,-0.2155,0.0,-0.2192,-0.2192,-0.221,-0.2237,-0.2237,-0.2241,-0.2245,-0.2245,-0.2262,-0.2283,-0.2283,-0.2298,-0.2313,-0.2004,-0.0998,0.0,0.0,0.0,0.0,0.0,0.0,0.0,0.0,0.0,0.0,0.0,0.0,0.0,0.0,0.0,0.0,0.0,0.0,0.0,0.0,0.0,0.0,0.0,0.0,0.0,0.0,0.0,0.0,0.0,0.0,0.0,0.0,-0.1168,-0.1752,-0.146,-0.1896,-0.2333,-0.2333,-0.2333,-0.2345,-0.237,-0.2375,-0.239,-0.2416,-0.2421,-0.2436,-0.2461,-0.2461,-0.2474,0.0,0.0,0.0,0.0,0.0,0.0,0.0,0.0,-0.0247,-0.0864,-0.1235,-0.1606,-0.1977,-0.1977,-0.1977,-0.1977,-0.1977,-0.1977,-0.1977,-0.1482,-0.0988,-0.0988,-0.0988,-0.0864,-0.0494,-0.0494,-0.05,-0.0515,0.0,-0.0782,-0.1065,-0.1475,-0.175,-0.2155,-0.1885,-0.1616,-0.1616,-0.1616,-0.1616,-0.1616,-0.1616,-0.1616,-0.175,-0.202,-0.2163,-0.2178,-0.2178,0.0,-0.2223,-0.2223,-0.2241,-0.2269,-0.2269,-0.2278,-0.2291,-0.2291,-0.23,-0.2313,-0.2313,-0.2322,-0.233,-0.2317,-0.1589,-0.0868,-0.0728,-0.0292,0.0,0.0,0.0,0.0,0.0,0.0,0.0,0.0,0.0,0.0,0.0,0.0,0.0,0.0,0.0,0.0,0.0,0.0,0.0,0.0,0.0,0.0,0.0,0.0,0.0,0.0,0.0,0.0,0.0,-0.146,-0.219,-0.1752,-0.2042,-0.2333,-0.2333,-0.2348,-0.2363,-0.2378,-0.2409,-0.2433,-0.2447,-0.2463,-0.2478,-0.2493,-0.2493,-0.25,0.0,0.0,0.0,0.0,0.0,0.0,0.0,0.0,-0.037,-0.1729,-0.1606,-0.1359,-0.1853,-0.2222,-0.2468,-0.2468,-0.2468,-0.2468,-0.2468,-0.2223,-0.1853,-0.1235,-0.1729,-0.1853,-0.1235,-0.1235,0.0,-0.1287,0.0,0.0,-0.2152,-0.1616,-0.1616,-0.2155,-0.2155,-0.2155,-0.2155,-0.2155,-0.2155,-0.2155,-0.2155,-0.2155,-0.2155,-0.2155,-0.2172,-0.22,-0.22,0.0,0.0,-0.2255,-0.2273,-0.23,-0.23,-0.2313,-0.2333,-0.2333,-0.2333,-0.2333,-0.2333,-0.2333,-0.2333,-0.2333,-0.2041,-0.175,-0.1459,-0.1022,-0.0438,-0.0292,-0.0292,-0.0292,-0.0292,-0.0292,-0.0146,-0.0,-0.0146,-0.0146,-0.0,0.0,0.0,0.0,0.0,0.0,0.0,0.0,0.0,0.0,-0.0292,-0.0438,-0.0,-0.0146,-0.0292,-0.0438,-0.0438,-0.0438,-0.0438,-0.1606,-0.2335,-0.2335,-0.2334,-0.2335,-0.2342,-0.2365,-0.2384,-0.2397,-0.2444,-0.2472,-0.2478,-0.2503,-0.2515,-0.2515,-0.2515,-0.2515,0.0,0.0,0.0,0.0,0.0,0.0,0.0,0.0,-0.037,-0.1729,-0.1977,-0.1977,-0.1977,-0.2958,-0.3692,-0.3692,-0.3692,-0.3692,-0.3692,-0.2713,-0.1977,-0.1977,-0.1977,-0.1977,-0.1853,-0.1853,-0.1876,-0.2059,0.0,0.0,-0.2155,-0.2155,-0.2155,-0.2155,-0.2155,-0.2155,-0.2155,-0.2155,-0.2155,-0.2155,-0.2155,-0.2155,-0.2155,-0.2155,-0.2172,-0.22,-0.22,0.0,0.0,-0.2287,-0.2303,-0.2329,-0.2329,-0.233,-0.2333,-0.2333,-0.2333,-0.2333,-0.2333,-0.2333,-0.2333,-0.2333,-0.2333,-0.2187,-0.2189,-0.219,-0.1898,-0.1314,-0.1022,-0.1022,-0.1022,-0.1022,-0.0876,-0.0146,-0.0584,-0.0876,-0.0146,0.0,0.0,0.0,0.0,0.0,0.0,0.0,0.0,0.0,-0.1168,-0.1606,-0.0146,-0.0584,-0.1314,-0.2044,-0.2044,-0.2044,-0.2044,-0.2188,-0.2333,-0.2333,-0.2333,-0.2345,-0.2373,-0.2377,-0.2404,-0.2459,-0.2466,-0.2482,-0.251,-0.2513,-0.2515,-0.2515,-0.2515,-0.2515,0.0,0.0,0.0,0.0,0.0,0.0,0.0,0.0,-0.0247,-0.1235,-0.1729,-0.1977,-0.1977,-0.3081,-0.3936,-0.3936,-0.4548,-0.5161,-0.5161,-0.3939,-0.3204,-0.3577,-0.2593,-0.1977,0.0,0.0,-0.2001,0.0,0.0,0.0,-0.2155,-0.2155,-0.2155,-0.2155,-0.2155,-0.2155,-0.2155,-0.2155,-0.2155,-0.2155,-0.2155,-0.2155,-0.2155,-0.2174,-0.2199,-0.2228,-0.2247,0.0,0.0,-0.2316,-0.2322,-0.2333,-0.2333,-0.2333,-0.2333,-0.2333,-0.2333,-0.2333,-0.2333,-0.2333,-0.2333,-0.2333,-0.2333,-0.2333,-0.2334,-0.2334,-0.2188,-0.1896,-0.1897,-0.1898,-0.1898,-0.1898,-0.1752,-0.146,-0.1314,-0.1168,-0.1314,-0.1022,-0.073,-0.073,-0.073,-0.073,-0.073,-0.073,-0.073,-0.073,-0.1314,-0.1606,-0.146,-0.1314,-0.146,-0.219,-0.1898,-0.1752,-0.219,-0.2334,-0.2333,-0.2333,-0.2333,-0.2346,-0.2377,-0.2395,-0.2426,-0.2468,-0.2487,-0.2502,-0.2515,-0.2515,-0.2515,-0.2515,-0.2515,-0.2515,0.0,0.0,0.0,0.0,0.0,-0.0123,-0.0494,-0.0617,-0.0741,-0.1235,-0.1729,-0.2099,-0.2468,-0.3571,-0.4673,-0.5039,-0.5896,-0.6508,-0.6508,-0.5039,-0.4062,-0.4312,-0.2961,-0.1977,0.0,-0.1992,0.0,0.0,0.0,0.0,-0.2155,-0.2155,-0.2155,-0.2155,-0.2155,-0.2155,-0.2155,-0.2155,-0.2155,-0.2155,-0.2155,-0.2155,-0.2156,-0.2186,-0.2217,-0.2247,-0.2277,0.0,0.0,-0.2333,-0.2333,-0.2333,-0.2333,-0.2333,-0.2333,-0.2333,-0.2333,-0.2333,-0.2333,-0.2333,-0.2333,-0.2333,-0.2333,-0.2333,-0.2333,-0.2333,-0.2333,-0.2333,-0.2334,-0.2335,-0.2335,-0.2335,-0.2335,-0.2335,-0.1897,-0.1605,-0.219,-0.1898,-0.1459,-0.146,-0.146,-0.146,-0.146,-0.146,-0.146,-0.146,-0.1459,-0.1751,-0.219,-0.1898,-0.1751,-0.2189,-0.1897,-0.1751,-0.2189,-0.2334,-0.2333,-0.2333,-0.2341,-0.236,-0.239,-0.242,-0.2451,-0.2482,-0.2504,-0.2515,-0.2515,-0.2515,-0.2515,-0.2515,-0.2515,-0.2515,0.0,0.0,0.0,0.0,0.0,-0.037,-0.1729,-0.1977,-0.1977,-0.1977,-0.1977,-0.2345,-0.3693,-0.4916,-0.6263,-0.7612,-0.7856,-0.7856,-0.7856,-0.5529,-0.3936,-0.3936,-0.2836,-0.1977,-0.1977,-0.2029,0.0,0.0,0.0,0.0,-0.2155,-0.2155,-0.2155,-0.2155,-0.2155,-0.2155,-0.2155,-0.2155,-0.2155,-0.2155,-0.2155,-0.2155,-0.2156,-0.2186,-0.2217,-0.2247,0.0,0.0,0.0,-0.2333,-0.2333,-0.2333,-0.2333,-0.2333,-0.2333,-0.2333,-0.2333,-0.2333,-0.2333,-0.2333,-0.2333,-0.2333,-0.2333,-0.2333,-0.2333,-0.2333,-0.2333,-0.2333,-0.2333,-0.2333,-0.2333,-0.2333,-0.2333,-0.2333,-0.2333,-0.2333,-0.2336,-0.2335,-0.2333,-0.2336,-0.2336,-0.2336,-0.2336,-0.2336,-0.2336,-0.2336,-0.2334,-0.2334,-0.2336,-0.2334,-0.2333,-0.2333,-0.2333,-0.2333,-0.2333,-0.2333,-0.2333,-0.2333,-0.2361,-0.2391,-0.2422,-0.2452,-0.2483,-0.2513,-0.2515,-0.2515,-0.2515,-0.2515,-0.2515,-0.2515,-0.2515,-0.2515,-0.1111,-0.0741,-0.0123,-0.0617,-0.0988,-0.1359,-0.1359,-0.1729,-0.1977,-0.1977,-0.1977,-0.2345,-0.3693,-0.5039,-0.6388,-0.7734,-0.8593,-0.9207,-0.9207,-0.7734,-0.6508,-0.6137,-0.5784,-0.5298,0.0,0.0,0.0,0.0,0.0,0.0,-0.2154,-0.2155,-0.2155,-0.2155,-0.2155,-0.2155,-0.2155,-0.2155,-0.2155,-0.2155,-0.2155,-0.2155,-0.2157,-0.2208,-0.2236,0.0,0.0,0.0,0.0,-0.2333,-0.2333,-0.2333,-0.2333,-0.2333,-0.2333,-0.2333,-0.2333,-0.2333,-0.2333,-0.2333,-0.2333,-0.2333,-0.2333,-0.2333,-0.2333,-0.2333,-0.2333,-0.2333,-0.2333,-0.2333,-0.2333,-0.2333,-0.2333,-0.2333,-0.2333,-0.2333,-0.2334,-0.2333,-0.2333,-0.2334,-0.2334,-0.2334,-0.2334,-0.2334,-0.2334,-0.2334,-0.2333,-0.2333,-0.2334,-0.2333,-0.2333,-0.2333,-0.2333,-0.2333,-0.2333,-0.2333,-0.2333,-0.2333,-0.2361,-0.2392,-0.2422,-0.2453,-0.2483,-0.2514,-0.2515,-0.2515,-0.2515,-0.2515,-0.2515,-0.2515,-0.2515,-0.2515,-0.1729,-0.1235,-0.0741,-0.0988,-0.1482,-0.1853,-0.1482,-0.1729,-0.2099,-0.259,-0.2714,-0.3328,-0.504,-0.6141,-0.7121,-0.8349,-0.9329,-0.9822,-0.9822,-0.8717,-0.7609,-0.675,0.0,0.0,0.0,0.0,0.0,0.0,0.0,0.0,-0.2958,-0.3495,-0.3762,-0.3762,-0.2691,-0.2155,-0.2155,-0.2155,-0.2155,-0.2155,-0.2155,-0.2155,-0.2157,-0.2218,-0.2245,0.0,0.0,0.0,0.0,-0.2333,-0.2333,-0.2333,-0.2333,-0.2333,-0.2333,-0.2333,-0.2333,-0.2333,-0.2333,-0.2333,-0.2333,-0.2333,-0.2333,-0.2333,-0.2333,-0.2333,-0.2333,-0.2333,-0.2333,-0.2333,-0.2333,-0.2333,-0.2333,-0.2333,-0.2333,-0.2333,-0.2333,-0.2333,-0.2333,-0.2333,-0.2333,-0.2333,-0.2333,-0.2333,-0.2333,-0.2333,-0.2333,-0.2333,-0.2333,-0.2333,-0.2333,-0.2333,-0.2333,-0.2333,-0.2333,-0.2333,-0.2337,-0.2349,-0.2378,-0.2409,-0.2439,-0.247,-0.2495,-0.2514,-0.2515,-0.2515,-0.2515,-0.2515,-0.2515,-0.2515,-0.2515,-0.2515,0.0,-0.1852,-0.2099,-0.1481,-0.1852,-0.2346,-0.2346,-0.2222,0.0,-0.3815,-0.4059,-0.4795,-0.7368,-0.7858,-0.8349,-0.9576,-0.9822,-0.9822,-0.9822,-0.8839,0.0,0.0,-0.6141,0.0,0.0,0.0,0.0,0.0,0.0,0.0,-0.4564,-0.5633,-0.6433,-0.6433,-0.3896,-0.2558,-0.2558,-0.2558,-0.2558,-0.2558,-0.2558,-0.2558,-0.256,-0.2353,-0.2383,0.0,0.0,0.0,0.0,-0.2333,-0.2333,-0.2333,-0.2333,-0.2333,-0.2333,-0.2333,-0.2333,-0.2333,-0.2333,-0.2333,-0.2333,-0.2333,-0.2333,-0.2333,-0.2333,-0.2333,-0.2333,-0.2333,-0.2333,-0.2333,-0.2333,-0.2333,-0.2333,-0.2333,-0.2333,-0.2333,-0.2333,-0.2333,-0.2333,-0.2333,-0.2333,-0.2333,-0.2333,-0.2333,-0.2333,-0.2333,-0.2333,-0.2333,-0.2333,-0.2333,-0.2333,-0.2333,-0.2333,-0.2333,-0.2333,-0.2333,-0.2345,-0.2376,-0.2407,-0.2437,-0.2467,-0.2498,-0.2515,-0.2515,-0.2515,-0.2515,-0.2515,-0.2515,-0.2515,-0.2515,-0.2515,-0.2515,-0.5284,0.0,-0.4925,-0.4795,-0.5418,-0.5792,0.0,-0.5042,-0.504,-0.5406,-0.5406,-0.5896,-0.7612,-0.7858,-0.8349,-0.9576,-0.9822,-0.9822,-0.9822,-0.9576,0.0,-0.8961,0.0,0.0,0.0,0.0,0.0,0.0,0.0,-0.6139,-0.5893,-0.6166,-0.6433,-0.6433,-0.5765,-0.5366,-0.5366,-0.5366,-0.5366,-0.5366,-0.5366,-0.5366,-0.5369,-0.424,-0.3883,0.0,0.0,0.0,-0.2333,-0.2333,-0.2333,-0.2333,-0.2333,-0.2333,-0.2333,-0.2333,-0.2333,-0.2333,-0.2333,-0.2333,-0.2333,-0.2333,-0.2333,-0.2333,-0.2333,-0.2333,-0.2333,-0.2333,-0.2333,-0.2333,-0.2333,-0.2333,-0.2333,-0.2333,-0.2333,-0.2333,-0.2333,-0.2333,-0.2333,-0.2333,-0.2333,-0.2333,-0.2333,-0.2333,-0.2333,-0.2333,-0.2333,-0.2333,-0.2333,-0.2333,-0.2333,-0.2333,-0.2333,-0.2333,-0.2333,-0.2333,-0.2345,-0.2376,-0.2407,-0.2437,-0.2467,-0.2498,-0.2515,-0.2515,-0.2515,-0.2515,-0.2515,-0.2515,-0.2515,-0.2515,-0.2515,-0.2515,-0.7121,-0.639,-0.5902,-0.5898,-0.6272,-0.6519,-0.602,-0.5896,-0.6018,-0.6632,-0.6877,-0.7243,-0.8471,-0.8717,-0.8961,-0.9697,-0.9822,-0.9822,-0.9822,0.0,-0.9822,-0.9822,0.0,0.0,0.0,0.0,0.0,0.0,0.0,-0.7912,-0.7292,-0.801,-0.8437,-0.8437,-0.8437,-0.7769,-0.6433,-0.6433,-0.6433,-0.6433,-0.6433,-0.6433,-0.6301,-0.4904,-0.4283,0.0,0.0,0.0,-0.2333,-0.2333,-0.2333,-0.2333,-0.2333,-0.2333,-0.2333,-0.2333,-0.2333,-0.2333,-0.2333,-0.2333,-0.2333,-0.2333,-0.2333,-0.2333,-0.2333,-0.2333,-0.2333,-0.2333,-0.2333,-0.2333,-0.2333,-0.2333,-0.2333,-0.2333,-0.2333,-0.2333,-0.2333,-0.2333,-0.2333,-0.2333,-0.2333,-0.2333,-0.2333,-0.2333,-0.2333,-0.2333,-0.2333,-0.2333,-0.2333,-0.2333,-0.2333,-0.2333,-0.2333,-0.2333,-0.2333,-0.2345,-0.2367,-0.2397,-0.2427,-0.2458,-0.2489,-0.2506,-0.2515,-0.2515,-0.2515,-0.2515,-0.2515,-0.2515,-0.2515,-0.2515,-0.2515,-0.2515,-0.8471,-0.7365,-0.6508,-0.6508,-0.6508,-0.6508,-0.6508,-0.6508,-0.6877,-0.7978,-0.8224,-0.8471,-0.9576,-0.9822,-0.9819,-0.97,-0.9822,-0.9822,-0.9822,-0.9822,-0.9822,-0.9822,0.0,0.0,0.0,0.0,0.0,0.0,0.0,-0.9829,-0.8787,-0.9974,-1.0721,-1.0721,-1.0721,-0.9513,-0.71,-0.71,-0.71,-0.71,-0.71,-0.71,-0.6969,-0.5569,-0.4818,-0.4604,0.0,0.0,-0.2326,-0.2331,-0.2333,-0.2333,-0.2333,-0.2333,-0.2333,-0.2333,-0.2333,-0.2333,-0.2333,-0.2333,-0.2333,-0.2333,-0.2333,-0.2333,-0.2333,-0.2333,-0.2333,-0.2333,-0.2333,-0.2333,-0.2333,-0.2333,-0.2333,-0.2333,-0.2333,-0.2333,-0.2333,-0.2333,-0.2333,-0.2333,-0.2333,-0.2333,-0.2333,-0.2333,-0.2333,-0.2333,-0.2333,-0.2333,-0.2333,-0.2333,-0.2333,-0.2333,-0.2333,-0.2333,-0.2333,-0.2365,-0.2396,-0.2422,-0.2452,-0.2482,-0.2513,-0.2515,-0.2515,-0.2515,-0.2515,-0.2515,-0.2515,-0.2515,-0.2515,-0.2515,-0.2515,-0.2517,-0.9576,-0.9329,-0.9207,-0.9207,-0.9207,-0.9207,-0.9207,-0.9207,-0.9207,-0.9451,-0.9454,-0.9454,-0.9335,-0.9579,-0.97,0.0,0.0,-0.9822,0.0,0.0,0.0,0.0,0.0,0.0,0.0,0.0,0.0,0.0,0.0,-1.0213,-1.0224,-1.0504,-1.0721,-1.0721,-1.0721,-1.0452,-1.0047,-1.0047,-1.0047,-1.0047,-1.0047,-1.0047,-1.0047,-0.8595,-0.7316,-0.6047,0.0,-0.3398,-0.2299,-0.2323,-0.2333,-0.2333,-0.2333,-0.2333,-0.2333,-0.2333,-0.2333,-0.2333,-0.2333,-0.2333,-0.2333,-0.2333,-0.2333,-0.2333,-0.2333,-0.2333,-0.2333,-0.2333,-0.2333,-0.2333,-0.2333,-0.2333,-0.2333,-0.2333,-0.2333,-0.2333,-0.2333,-0.2333,-0.2333,-0.2333,-0.2333,-0.2333,-0.2333,-0.2333,-0.2333,-0.2333,-0.2333,-0.2333,-0.2333,-0.2333,-0.2333,-0.2333,-0.2333,-0.2333,-0.2333,-0.2384,-0.2418,-0.2423,-0.2452,-0.2482,-0.2513,-0.2515,-0.2515,-0.2515,-0.2515,-0.2515,-0.2515,-0.2515,-0.2515,-0.2515,-0.2515,-0.2528,-0.9822,-0.9822,-0.9822,-0.9822,-0.97,-0.9579,-0.9579,-0.9457,-0.9339,-0.9457,-0.9579,-0.9579,-0.9579,0.0,-0.97,-0.9579,0.0,0.0,0.0,0.0,0.0,0.0,0.0,0.0,0.0,0.0,0.0,0.0,0.0,0.0,-1.0375,-1.0595,-1.0721,-1.0721,-1.0721,-1.0721,-1.0721,-1.0721,-1.0721,-1.0721,-1.0721,-1.0721,-1.0585,-0.9244,-0.8233,-0.7531,0.0,-0.4792,-0.3432,-0.3622,-0.3059,-0.2333,-0.2333,-0.2333,-0.2333,-0.2333,-0.2333,-0.2333,-0.2333,-0.2333,-0.2333,-0.2333,-0.2333,-0.2333,-0.2333,-0.2333,-0.2333,-0.2333,-0.2333,-0.2333,-0.2333,-0.2333,-0.2333,-0.2333,-0.2333,-0.2333,-0.2333,-0.2333,-0.2333,-0.2333,-0.2333,-0.2333,-0.2333,-0.2333,-0.2333,-0.2333,-0.2333,-0.2333,-0.2333,-0.2333,-0.2333,-0.2333,-0.2333,-0.2339,-0.2356,-0.2398,-0.2438,-0.2471,-0.2486,-0.25,-0.2514,-0.2515,-0.2515,-0.2515,-0.2515,-0.2515,-0.2515,-0.2515,-0.2515,-0.2515,-0.2515,-0.2531,-0.9822,-0.9822,-0.9822,-0.9822,-0.9579,-0.9457,-0.9457,-0.9217,-0.9095,-0.9217,-0.9335,-0.9335,-0.9579,-0.97,0.0,-0.9822,0.0,0.0,0.0,0.0,0.0,0.0,0.0,0.0,0.0,0.0,0.0,0.0,0.0,0.0,-1.028,-1.0527,-1.0683,-1.0717,-1.0721,-1.0721,-1.0721,-1.0721,-1.0721,-1.0721,-1.0721,-1.0721,-1.0717,-0.9646,-0.8893,-0.8582,-0.7624,-0.6185,-0.4409,-0.4627,-0.3786,-0.2333,-0.2333,-0.2333,-0.2333,-0.2333,-0.2333,-0.2333,-0.2333,-0.2333,-0.2333,-0.2333,-0.2333,-0.2333,-0.2333,-0.2333,-0.2333,-0.2333,-0.2333,-0.2333,-0.2333,-0.2333,-0.2333,-0.2333,-0.2333,-0.2333,-0.2333,-0.2333,-0.2333,-0.2333,-0.2333,-0.2333,-0.2333,-0.2333,-0.2333,-0.2333,-0.2333,-0.2333,-0.2333,-0.2333,-0.2333,-0.2333,-0.2333,-0.2348,-0.2386,-0.2416,-0.2457,-0.251,-0.2515,-0.2515,-0.2515,-0.2515,-0.2515,-0.2515,-0.2515,-0.2515,-0.2515,-0.2515,-0.2515,-0.2515,-0.2521,-0.2541,-0.9822,-0.9822,-0.9822,-0.9822,-0.9819,-0.9822,-0.9822,-0.9457,-0.9339,-0.9335,-0.9335,-0.9217,-0.8976,-0.9217,-0.9457,-0.97,0.0,0.0,0.0,0.0,0.0,0.0,0.0,0.0,0.0,0.0,0.0,0.0,0.0,0.0,-1.0273,-1.0426,-1.0571,-1.0714,-1.0721,-1.0721,-1.0721,-1.0721,-1.0721,-1.0721,-1.0721,-1.0721,-1.0721,-1.0585,-0.9785,-0.86,-0.8697,-0.6987,-0.435,-0.4609,-0.3786,-0.2333,-0.2333,-0.2333,-0.2333,-0.2333,-0.2333,-0.2333,-0.2333,-0.2333,-0.2333,-0.2333,-0.2333,-0.2333,-0.2333,-0.2333,-0.2333,-0.2333,-0.2333,-0.2333,-0.2333,-0.2333,-0.2333,-0.2333,-0.2333,-0.2333,-0.2333,-0.2333,-0.2333,-0.2333,-0.2333,-0.2333,-0.2333,-0.2333,-0.2333,-0.2333,-0.2333,-0.2333,-0.2333,-0.2333,-0.2333,-0.2333,-0.2333,-0.2356,-0.2415,-0.2448,-0.248,-0.2512,-0.2515,-0.2515,-0.2515,-0.2515,-0.2515,-0.2515,-0.2515,-0.2515,-0.2515,-0.2515,-0.2515,-0.2515,-0.2543,-0.2572,-0.9822,-0.9822,-0.9822,-0.9822,-0.9822,-0.97,-0.9579,-0.9095,-0.8854,-0.9217,-0.9217,0.0,0.0,0.0,-0.9457,0.0,0.0,0.0,0.0,0.0,0.0,0.0,0.0,0.0,0.0,0.0,0.0,0.0,0.0,0.0,-1.0273,-1.0415,-1.0561,-1.0714,-1.0721,-1.0721,-1.0721,-1.0721,-1.0721,-1.0721,-1.0721,-1.0721,-1.0721,-1.0721,-1.0452,-0.9924,-0.916,-0.7619,-0.5599,-0.4993,-0.3758,-0.2333,-0.2333,-0.2333,-0.2333,-0.2333,-0.2333,-0.2333,-0.2333,-0.2333,-0.2333,-0.2333,-0.2333,-0.2333,-0.2333,-0.2333,-0.2333,-0.2333,-0.2333,-0.2333,-0.2333,-0.2333,-0.2333,-0.2333,-0.2333,-0.2333,-0.2333,-0.2333,-0.2333,-0.2333,-0.2333,-0.2333,-0.2333,-0.2333,-0.2333,-0.2333,-0.2333,-0.2333,-0.2333,-0.2333,-0.2333,-0.2333,-0.2367,-0.2406,-0.2448,-0.248,-0.2502,-0.2514,-0.2515,-0.2515,-0.2515,-0.2515,-0.2515,-0.2515,-0.2515,-0.2515,-0.2515,-0.2515,-0.2524,-0.2543,-0.2555,-0.2585,-0.9822,-0.9822,-0.9822,-0.9822,-0.9822,-0.97,-0.9457,-0.9095,-0.8854,-0.9217,-0.9095,-0.9217,-0.97,0.0,0.0,0.0,0.0,0.0,0.0,0.0,0.0,0.0,0.0,0.0,0.0,0.0,0.0,0.0,0.0,0.0,0.0,-1.0344,-1.0493,-1.0643,-1.0697,-1.0721,-1.0721,-1.0721,-1.0721,-1.0721,-1.0721,-1.0721,-1.0721,-1.0721,-1.0721,-1.0595,-0.9792,-0.8273,-0.6432,-0.5672,-0.4171,-0.2333,-0.2333,-0.2333,-0.2333,-0.2333,-0.2333,-0.2333,-0.2333,-0.2333,-0.2333,-0.2333,-0.2333,-0.2333,-0.2333,-0.2333,-0.2333,-0.2333,-0.2333,-0.2333,-0.2333,-0.2333,-0.2333,-0.2333,-0.2333,-0.2333,-0.2333,-0.2333,-0.2333,-0.2333,-0.2333,-0.2333,-0.2333,-0.2333,-0.2333,-0.2333,-0.2333,-0.2333,-0.2333,-0.2333,-0.2337,-0.2346,-0.2393,-0.2435,-0.2467,-0.2497,-0.2515,-0.2515,-0.2515,-0.2515,-0.2515,-0.2515,-0.2515,-0.2515,-0.2515,-0.2515,-0.2515,-0.2515,-0.253,-0.256,-0.2569,-0.26,-0.9822,-0.9822,-0.9822,-0.9822,-0.9822,-0.9822,-0.9822,-0.9579,-0.9335,-0.9335,-0.9335,-0.9457,-0.97,-0.9822,0.0,0.0,0.0,0.0,0.0,0.0,0.0,0.0,0.0,0.0,0.0,0.0,0.0,0.0,0.0,0.0,0.0,-1.0072,-1.0344,-1.0487,-1.0639,-1.0721,-1.0721,-1.0721,-1.0721,-1.0721,-1.0721,-1.0721,-1.0721,-1.0721,-1.0721,-1.0727,-1.088,-0.9237,-0.6571,-0.6661,-0.5031,-0.2333,-0.2333,-0.2333,-0.2333,-0.2333,-0.2333,-0.2333,-0.2333,-0.2333,-0.2333,-0.2333,-0.2333,-0.2333,-0.2333,-0.2333,-0.2333,-0.2333,-0.2333,-0.2333,-0.2333,-0.2333,-0.2333,-0.2333,-0.2333,-0.2333,-0.2333,-0.2333,-0.2333,-0.2333,-0.2333,-0.2333,-0.2333,-0.2333,-0.2333,-0.2333,-0.2333,-0.2333,-0.2333,-0.2333,-0.2345,-0.2375,-0.2405,-0.2436,-0.2467,-0.2497,-0.2515,-0.2515,-0.2515,-0.2515,-0.2515,-0.2515,-0.2515,-0.2515,-0.2515,-0.2515,-0.2515,-0.2515,-0.253,-0.2561,-0.2589,-0.2618,-0.9822,-0.9822,0.0,-0.9822,-0.9822,-0.9822,-0.9822,-0.9579,-0.9335,-0.9335,-0.9335,-0.9457,-0.97,0.0,0.0,0.0,0.0,0.0,0.0,0.0,0.0,0.0,0.0,0.0,0.0,0.0,0.0,0.0,0.0,0.0,0.0,-1.0072,-1.0344,-1.0487,-1.0639,-1.0721,-1.0721,-1.0721,-1.0721,-1.0721,-1.0721,-1.0721,-1.0721,-1.0721,-1.0721,-1.0588,-0.9689,-0.8288,-0.6346,-0.4385,-0.3169,-0.2333,-0.2333,-0.2333,-0.2333,-0.2333,-0.2333,-0.2333,-0.2333,-0.2333,-0.2333,-0.2333,-0.2333,-0.2333,-0.2333,-0.2333,-0.2333,-0.2333,-0.2333,-0.2333,-0.2333,-0.2333,-0.2333,-0.2333,-0.2333,-0.2333,-0.2333,-0.2333,-0.2333,-0.2333,-0.2333,-0.2333,-0.2333,-0.2333,-0.2333,-0.2333,-0.2333,-0.2333,-0.2333,-0.2352,-0.2376,-0.2407,-0.2437,-0.2468,-0.2498,-0.2509,-0.2515,-0.2515,-0.2515,-0.2515,-0.2515,-0.2515,-0.2515,-0.2515,-0.2515,-0.2515,-0.2515,-0.2515,-0.254,-0.259,-0.2598,-0.263,-0.9822,-0.9822,0.0,-0.9822,-0.9822,-0.9822,-0.9822,0.0,0.0,0.0,-0.9457,-0.9579,-0.9822,0.0,0.0,0.0,0.0,0.0,0.0,0.0,0.0,0.0,0.0,0.0,0.0,0.0,0.0,0.0,0.0,0.0,0.0,-0.9735,-1.0129,-1.0402,-1.0551,-1.066,-1.0721,-1.0721,-1.0721,-1.0721,-1.0721,-1.0721,-1.0721,-1.0721,-1.0721,-1.0588,-0.8622,-0.7217,-0.622,-0.3401,-0.2307,-0.2333,-0.2333,-0.2333,-0.2333,-0.2333,-0.2333,-0.2333,-0.2333,-0.2333,-0.2333,-0.2333,-0.2333,-0.2333,-0.2333,-0.2333,-0.2333,-0.2333,-0.2333,-0.2333,-0.2333,-0.2333,-0.2333,-0.2333,-0.2333,-0.2333,-0.2333,-0.2333,-0.2333,-0.2333,-0.2333,-0.2333,-0.2333,-0.2333,-0.2333,-0.2333,-0.2333,-0.2333,-0.2333,-0.2359,-0.239,-0.242,-0.245,-0.2481,-0.2512,-0.2515,-0.2515,-0.2515,-0.2515,-0.2515,-0.2515,-0.2515,-0.2515,-0.2515,-0.2515,-0.2515,-0.2515,-0.2527,-0.2556,-0.2602,-0.2614,-0.2645,-0.9822,-0.9822,-0.9822,-0.9822,-0.9822,0.0,-0.9822,-0.9822,-0.9822,-0.9822,0.0,-0.9822,-0.9822,0.0,0.0,0.0,0.0,0.0,0.0,0.0,0.0,0.0,0.0,0.0,0.0,0.0,0.0,0.0,0.0,0.0,-0.8854,-0.9357,-0.9748,-1.0273,-1.0415,-1.0565,-1.0717,-1.0721,-1.0721,-1.0721,-1.0721,-1.0721,-1.0721,-1.0721,-1.0721,-1.0591,-0.774,-0.6471,-0.6281,-0.3406,-0.2303,-0.2329,-0.2332,-0.2333,-0.2333,-0.2333,-0.2333,-0.2333,-0.2333,-0.2333,-0.2333,-0.2333,-0.2333,-0.2333,-0.2333,-0.2333,-0.2333,-0.2333,-0.2333,-0.2333,-0.2333,-0.2333,-0.2333,-0.2333,-0.2333,-0.2333,-0.2333,-0.2333,-0.2333,-0.2333,-0.2333,-0.2333,-0.2333,-0.2333,-0.2333,-0.2333,-0.2333,-0.2334,-0.2337,-0.2363,-0.2394,-0.2425,-0.2455,-0.2485,-0.2512,-0.2515,-0.2515,-0.2515,-0.2515,-0.2515,-0.2515,-0.2515,-0.2515,-0.2515,-0.2515,-0.2515,-0.2515,-0.2545,-0.2574,-0.2602,-0.2632,-0.2663,-0.9822,-0.9822,-0.9822,-0.9822,-0.9822,-0.9822,-0.9822,-0.9822,-0.9822,-0.9822,-0.9822,-0.9822,-0.9822,0.0,0.0,0.0,0.0,0.0,0.0,0.0,0.0,0.0,0.0,0.0,0.0,0.0,0.0,0.0,-0.8607,-0.8732,-0.8491,-0.9233,-0.9745,-0.9882,-1.0283,-1.0565,-1.0717,-1.0721,-1.0721,-1.0721,-1.0721,-1.0721,-1.0721,-1.0721,-1.0721,-1.0588,-0.766,-0.6513,-0.633,-0.3359,-0.2273,-0.2302,-0.2324,-0.2333,-0.2333,-0.2333,-0.2333,-0.2333,-0.2333,-0.2333,-0.2333,-0.2333,-0.2333,-0.2333,-0.2333,-0.2333,-0.2333,-0.2333,-0.2333,-0.2333,-0.2333,-0.2333,-0.2333,-0.2333,-0.2333,-0.2333,-0.2333,-0.2333,-0.2333,-0.2333,-0.2333,-0.2333,-0.2333,-0.2333,-0.2333,-0.2333,-0.2333,-0.2341,-0.2365,-0.2395,-0.2425,-0.2456,-0.2487,-0.2507,-0.2514,-0.2515,-0.2515,-0.2515,-0.2515,-0.2515,-0.2515,-0.2515,-0.2515,-0.2515,-0.2515,-0.2515,-0.2515,-0.2545,-0.2574,-0.2602,-0.2632,-0.2663,-1.0668,-1.0304,-0.9822,-0.9822,-0.9822,-0.9822,-0.9822,-0.9822,-0.9822,-0.9822,-0.9822,-0.9822,-0.9822,0.0,0.0,0.0,0.0,0.0,0.0,0.0,0.0,0.0,0.0,-0.97,-0.9339,-0.9217,-0.8851,-0.8363,-0.8363,-0.8363,-0.8369,-0.8802,-0.9271,-0.9658,-1.0052,-1.0327,-1.0609,-1.0683,-1.0721,-1.0721,-1.0721,-1.0721,-1.0721,-1.0721,-1.0721,-1.0585,-0.7636,-0.6484,-0.6303,-0.3344,-0.2263,-0.2294,-0.2322,-0.2333,-0.2333,-0.2333,-0.2333,-0.2333,-0.2333,-0.2333,-0.2333,-0.2333,-0.2333,-0.2333,-0.2333,-0.2333,-0.2333,-0.2333,-0.2333,-0.2333,-0.2333,-0.2333,-0.2333,-0.2333,-0.2333,-0.2333,-0.2333,-0.2333,-0.2333,-0.2333,-0.2333,-0.2333,-0.2333,-0.2333,-0.2333,-0.2333,-0.2333,-0.2343,-0.2374,-0.2405,-0.2435,-0.2465,-0.2496,-0.2515,-0.2515,-0.2515,-0.2515,-0.2515,-0.2515,-0.2515,-0.2515,-0.2515,-0.2515,-0.2515,-0.2515,-0.2515,-0.2515,-0.2558,-0.2587,-0.2602,-0.2647,-0.2677,-1.1752,-1.0789,-0.9822,-0.9822,-0.9822,-0.9822,-0.9822,-0.9822,-0.9822,-0.9822,-0.9822,-0.9822,-0.9822,0.0,0.0,0.0,0.0,0.0,0.0,0.0,-0.9822,-0.9822,-0.9822,-0.97,-0.97,-0.9217,-0.8854,-0.8732,-0.8238,-0.7994,-0.8247,-0.8369,-0.8673,-0.9424,-0.9664,-0.9931,-1.036,-1.0616,-1.0694,-1.0721,-1.0721,-1.0721,-1.0721,-1.0721,-1.0721,-1.0585,-0.7902,-0.661,-0.6279,-0.3609,-0.2396,-0.2286,-0.2314,-0.2328,-0.2333,-0.2333,-0.2333,-0.2333,-0.2333,-0.2333,-0.2333,-0.2333,-0.2333,-0.2333,-0.2333,-0.2333,-0.2333,-0.2333,-0.2333,-0.2333,-0.2333,-0.2333,-0.2333,-0.2333,-0.2333,-0.2333,-0.2333,-0.2333,-0.2333,-0.2333,-0.2333,-0.2333,-0.2333,-0.2333,-0.2333,-0.2333,-0.2333,-0.2345,-0.2381,-0.2408,-0.2437,-0.2473,-0.25,-0.2515,-0.2515,-0.2515,-0.2515,-0.2515,-0.2515,-0.2515,-0.2515,-0.2515,-0.2515,-0.2515,-0.2515,-0.2515,-0.2515,-0.2573,-0.2602,-0.2603,-0.2664,-0.2692,-1.1989,-1.0789,-0.9822,-0.9822,-0.9822,-0.9822,-0.9822,-0.9822,-0.9822,0.0,-0.9822,-0.9822,-0.9822,-0.9822,-0.9822,-0.9822,-0.9822,-0.9822,-0.9822,-0.9822,-0.9822,-0.9822,-0.9822,-0.9579,-0.9095,-0.8976,-0.8607,-0.8116,-0.7991,-0.7872,-0.7994,-0.8244,-0.8547,-0.867,-0.9321,-0.9709,-1.01,-1.038,-1.0588,-1.0721,-1.0721,-1.0721,-1.0721,-1.0721,-1.0721,-1.0588,-0.8975,-0.7643,-0.6323,-0.4649,-0.3332,-0.2254,-0.2285,-0.2311,-0.2333,-0.2333,-0.2333,-0.2333,-0.2333,-0.2333,-0.2333,-0.2333,-0.2333,-0.2333,-0.2333,-0.2333,-0.2333,-0.2333,-0.2333,-0.2333,-0.2333,-0.2333,-0.2333,-0.2333,-0.2333,-0.2333,-0.2333,-0.2333,-0.2333,-0.2333,-0.2333,-0.2333,-0.2333,-0.2333,-0.2333,-0.2333,-0.2333,-0.2353,-0.241,-0.2421,-0.2445,-0.2502,-0.2512,-0.2515,-0.2515,-0.2515,-0.2515,-0.2515,-0.2515,-0.2515,-0.2515,-0.2515,-0.2515,-0.2515,-0.2515,-0.2515,-0.2515,-0.2573,-0.2602,-0.2603,-0.2664,-0.2692,-1.223,-1.1269,-1.0664,-0.994,-0.9822,-0.9822,-0.9822,-0.9822,-0.9822,-0.9822,-0.9822,-0.9822,-0.9822,-0.9822,-0.9822,-0.9822,-0.9822,-0.9822,-0.9822,-0.9822,-0.9822,-0.9822,-0.9822,-0.9579,-0.9217,-0.8976,-0.8732,-0.8241,-0.7994,-0.7872,-0.7872,-0.7997,-0.8267,-0.8447,-0.9019,-0.9491,-0.9738,-1.028,-1.0568,-1.0721,-1.0721,-1.0721,-1.0721,-1.0721,-1.0721,-1.0588,-0.9244,-0.8171,-0.7512,-0.5179,-0.4012,-0.3366,-0.2563,-0.2308,-0.2333,-0.2333,-0.2333,-0.2333,-0.2333,-0.2333,-0.2333,-0.2333,-0.2333,-0.2333,-0.2333,-0.2333,-0.2333,-0.2333,-0.2333,-0.2333,-0.2333,-0.2333,-0.2333,-0.2333,-0.2333,-0.2333,-0.2333,-0.2333,-0.2333,-0.2333,-0.2333,-0.2333,-0.2333,-0.2333,-0.2333,-0.2333,-0.2348,-0.2374,-0.2418,-0.2438,-0.2465,-0.251,-0.2515,-0.2515,-0.2515,-0.2515,-0.2515,-0.2515,-0.2515,-0.2515,-0.2515,-0.2515,-0.2515,-0.2515,-0.2515,-0.2515,-0.2515,-0.2573,-0.2602,-0.2603,-0.2664,-0.2692,-1.3186,-1.223,-1.1511,-1.0547,-1.0061,-0.9822,-0.9822,-0.9822,-0.9822,0.0,-0.9822,-0.9822,-0.9822,-0.9822,-0.9822,-0.9822,-0.9822,-0.9822,-0.9822,-0.9822,-0.9822,-0.9822,-0.9822,-0.97,-0.9217,-0.8976,-0.8732,-0.8244,-0.7997,-0.7872,-0.7872,-0.7872,-0.7994,-0.8244,-0.8708,-0.9147,-0.9427,-1.0216,-1.0568,-1.0721,-1.0721,-1.0721,-1.0721,-1.0721,-1.0721,-1.0588,-0.9646,-0.8706,-0.791,-0.5699,-0.441,-0.3784,-0.2694,-0.2301,-0.2333,-0.2333,-0.2333,-0.2333,-0.2333,-0.2333,-0.2333,-0.2333,-0.2333,-0.2333,-0.2333,-0.2333,-0.2333,-0.2333,-0.2333,-0.2333,-0.2333,-0.2333,-0.2333,-0.2333,-0.2333,-0.2333,-0.2333,-0.2333,-0.2333,-0.2333,-0.2333,-0.2333,-0.2333,-0.2333,-0.2335,-0.2343,-0.2363,-0.2392,-0.243,-0.2455,-0.248,-0.2511,-0.2515,-0.2515,-0.2515,-0.2515,-0.2515,-0.2515,-0.2515,-0.2515,-0.2515,-0.2515,-0.2515,-0.2515,-0.2515,-0.2515,-0.2515,-0.2573,-0.2602,-0.2603,-0.2664,-0.2692,-1.5451,-1.3545,-1.1631,-1.1631,-1.0664,-0.9822,-0.9822,-0.9822,-0.9822,-0.9822,-0.9822,-0.9822,-0.9822,-0.9822,-0.9822,-0.9822,-0.9822,-0.9822,-0.9822,-0.9822,-0.9822,-0.9822,-0.9822,-0.9579,-0.8976,-0.8854,-0.8607,-0.7994,-0.7872,-0.7872,-0.7872,-0.7872,-0.7872,-0.7872,-0.825,-0.8682,-0.9168,-1.0085,-1.0568,-1.0721,-1.0721,-1.0721,-1.0721,-1.0721,-1.0721,-1.0721,-1.0588,-0.8975,-0.6566,-0.6303,-0.478,-0.2245,-0.2247,-0.2282,-0.2333,-0.2333,-0.2333,-0.2333,-0.2333,-0.2333,-0.2333,-0.2333,-0.2333,-0.2333,-0.2333,-0.2333,-0.2333,-0.2333,-0.2333,-0.2333,-0.2333,-0.2333,-0.2333,-0.2333,-0.2333,-0.2333,-0.2333,-0.2333,-0.2333,-0.2333,-0.2333,-0.2333,-0.2333,-0.2333,-0.2343,-0.2371,-0.2377,-0.2399,-0.2459,-0.2468,-0.248,-0.2511,-0.2515,-0.2515,-0.2515,-0.2515,-0.2515,-0.2515,-0.2515,-0.2515,-0.2515,-0.2515,-0.2515,-0.2515,-0.2515,-0.2515,-0.2515,-0.2573,-0.2602,-0.2603,-0.2664,-0.2692,-1.5811,-1.4976,-1.378,-1.2109,-1.139,-1.0785,-0.994,-0.9822,-0.9822,-0.9822,-0.9822,-0.9822,-0.9822,-0.9822,-0.9822,-0.9822,-0.9579,-0.9579,-0.9822,-0.9457,-0.9339,-0.9457,-0.9339,-0.9095,-0.8613,-0.8613,-0.8366,-0.7994,-0.7872,-0.7872,-0.7872,-0.7872,-0.7872,-0.7872,-0.8244,-0.8673,-0.9044,-0.9735,-1.0164,-1.0316,-1.0541,-1.0721,-1.0721,-1.0721,-1.0721,-1.0721,-1.0721,-0.9646,-0.7769,-0.6833,-0.5291,-0.3461,-0.2517,-0.227,-0.2308,-0.2326,-0.2333,-0.2333,-0.2333,-0.2333,-0.2333,-0.2333,-0.2333,-0.2333,-0.2333,-0.2333,-0.2333,-0.2333,-0.2333,-0.2333,-0.2333,-0.2333,-0.2333,-0.2333,-0.2333,-0.2333,-0.2333,-0.2333,-0.2333,-0.2333,-0.2333,-0.2339,-0.2358,-0.2362,-0.2372,-0.2403,-0.2424,-0.2444,-0.2466,-0.2486,-0.2502,-0.2513,-0.2515,-0.2515,-0.2515,-0.2515,-0.2515,-0.2515,-0.2515,-0.2515,-0.2515,-0.2515,-0.2515,-0.2515,-0.2515,-0.2524,-0.2544,-0.2583,-0.2612,-0.2632,-0.2673,-0.2692,-1.6526,-1.593,-1.5213,-1.3421,-1.235,-1.1511,-1.0668,-1.0061,-0.9822,-0.9822,-0.9822,-0.9822,-0.9822,-0.9822,-0.9822,-0.9822,-0.9579,-0.9335,-0.9579,-0.9217,-0.8976,-0.9095,-0.8973,-0.8735,-0.8491,-0.8369,-0.8244,-0.7872,-0.7872,0.0,-0.7872,-0.7872,-0.7872,-0.7872,-0.8244,-0.855,-0.8922,-0.9516,-0.9787,-0.9977,-1.0464,-1.067,-1.0721,-1.0721,-1.0721,-1.0721,-1.0721,-0.9915,-0.844,-0.6967,-0.5546,-0.4123,-0.279,-0.2264,-0.2294,-0.2322,-0.2333,-0.2333,-0.2333,-0.2333,-0.2333,-0.2333,-0.2333,-0.2333,-0.2333,-0.2333,-0.2333,-0.2333,-0.2333,-0.2333,-0.2333,-0.2333,-0.2333,-0.2333,-0.2333,-0.2333,-0.2333,-0.2333,-0.2333,-0.2333,-0.2333,-0.2343,-0.2373,-0.2378,-0.2392,-0.2433,-0.2456,-0.2473,-0.2483,-0.2502,-0.2515,-0.2515,-0.2515,-0.2515,-0.2515,-0.2515,-0.2515,-0.2515,-0.2515,-0.2515,-0.2515,-0.2515,-0.2515,-0.2515,-0.2515,-0.2534,-0.2574,-0.2592,-0.2617,-0.2647,-0.2678,-0.2692,0.0,0.0,0.0,-1.5575,-1.366,-1.1752,-1.1752,-1.0785,-0.9822,-0.9822,-0.9822,-0.9822,-0.9822,-0.9822,-0.9822,-0.9822,-0.9457,-0.9335,-0.9335,-0.9095,-0.8854,-0.8854,-0.8854,-0.8732,-0.8369,-0.8369,-0.8244,-0.7872,-0.7872,-0.7872,-0.7872,-0.7872,-0.7872,-0.7872,-0.8244,-0.8424,-0.8542,-0.9302,-0.9693,-0.9961,-1.0357,-1.0568,-1.0714,-1.0717,-1.0721,-1.0721,-1.0721,-0.9915,-0.8573,-0.71,-0.5545,-0.412,-0.2788,-0.2262,-0.2293,-0.2321,-0.2332,-0.2333,-0.2333,-0.2333,-0.2333,-0.2333,-0.2333,-0.2333,-0.2333,-0.2333,-0.2333,-0.2333,-0.2333,-0.2333,-0.2333,-0.2333,-0.2333,-0.2333,-0.2333,-0.2333,-0.2333,-0.2333,-0.2333,-0.2333,-0.2333,-0.2344,-0.2374,-0.238,-0.2401,-0.2461,-0.247,-0.248,-0.251,-0.2515,-0.2515,-0.2515,-0.2515,-0.2515,-0.2515,-0.2515,-0.2515,-0.2515,-0.2515,-0.2515,-0.2515,-0.2515,-0.2515,-0.2515,-0.2515,-0.2543,-0.2602,-0.2602,-0.2617,-0.2649,-0.2679,-0.2692,-1.7485,0.0,0.0,0.0,0.0,0.0,-1.2109,-1.139,-1.0906,-0.994,-0.9822,-0.9822,-0.9822,-0.9579,-0.9457,-0.9457,-0.9217,-0.8976,-0.8976,-0.8485,-0.8241,-0.8491,-0.8363,-0.8116,-0.7997,-0.7997,-0.7994,0.0,-0.7872,-0.7872,-0.7872,-0.7872,-0.7872,-0.7872,-0.7994,-0.8011,-0.8044,-0.8883,-0.9224,-0.9298,-1.0134,-1.0514,-1.0558,-1.067,-1.0721,-1.0721,-1.0721,-1.0452,-1.0047,-0.8573,-0.6585,-0.4196,-0.3845,-0.3065,-0.2262,-0.2292,-0.2315,-0.2333,-0.2333,-0.2333,-0.2333,-0.2333,-0.2333,-0.2333,-0.2333,-0.2333,-0.2333,-0.2333,-0.2333,-0.2333,-0.2333,-0.2333,-0.2333,-0.2333,-0.2333,-0.2333,-0.2333,-0.2333,-0.2333,-0.2333,-0.235,-0.2375,-0.2405,-0.2429,-0.2457,-0.2495,-0.2502,-0.2505,-0.2513,-0.2515,-0.2515,-0.2515,-0.2515,-0.2515,-0.2515,-0.2515,-0.2515,-0.2515,-0.2515,-0.2515,-0.2515,-0.2515,-0.2515,-0.2515,-0.2515,-0.2544,-0.2604,-0.2602,-0.2628,-0.268,-0.2688,-0.2692,0.0,0.0,0.0,0.0,0.0,0.0,-1.2946,-1.2109,-1.1269,-0.994,-0.9579,-0.9579,-0.946,-0.9217,-0.9095,-0.8973,-0.8732,-0.8732,-0.8732,-0.8241,-0.7994,-0.8122,-0.7994,-0.7872,-0.7872,-0.7872,-0.7872,-0.7872,-0.7872,-0.7872,-0.7872,-0.7872,-0.7872,-0.7872,-0.7872,-0.7872,-0.7872,-0.8685,-0.9004,-0.9062,-1.0039,-1.0436,-1.0497,-1.0649,-1.0721,-1.0721,-1.0721,-1.0721,-1.0588,-0.9779,-0.8174,-0.6046,-0.5451,-0.4425,-0.3088,-0.313,-0.2739,-0.2333,-0.2333,-0.2333,-0.2333,-0.2333,-0.2333,-0.2333,-0.2333,-0.2333,-0.2333,-0.2333,-0.2333,-0.2333,-0.2333,-0.2333,-0.2333,-0.2333,-0.2333,-0.2333,-0.2333,-0.2333,-0.2333,-0.2333,-0.2357,-0.2388,-0.2418,-0.2448,-0.2479,-0.251,-0.2515,-0.2515,-0.2515,-0.2515,-0.2515,-0.2515,-0.2515,-0.2515,-0.2515,-0.2515,-0.2515,-0.2515,-0.2515,-0.2515,-0.2515,-0.2515,-0.2515,-0.2515,-0.2515,-0.2544,-0.2604,-0.2602,-0.2633,-0.2692,-0.2692,-0.2692,0.0,0.0,0.0,0.0,0.0,0.0,-1.4143,-1.2826,-1.1511,-0.994,-0.9457,-0.9339,-0.9098,-0.8976,-0.8854,-0.8491,-0.8369,-0.8369,-0.8369,-0.8119,-0.7872,-0.7872,-0.7872,-0.7872,-0.7872,-0.7872,-0.7872,-0.7872,-0.7872,-0.7872,-0.7872,-0.7872,-0.7872,-0.7872,-0.7872,-0.7872,-0.7872,-0.8607,-0.8916,-0.9038,-0.9929,-1.0331,-1.0473,-1.0626,-1.0704,-1.0721,-1.0721,-1.0721,-1.0721,-1.0721,-0.9915,-0.8451,-0.7199,-0.579,-0.4341,-0.4394,-0.3595,-0.2624,-0.2624,-0.2624,-0.2624,-0.2624,-0.2478,-0.2333,-0.2333,-0.2333,-0.2333,-0.2333,-0.2333,-0.2333,-0.2333,-0.2333,-0.2333,-0.2333,-0.2333,-0.2333,-0.2333,-0.2333,-0.2333,-0.2333,-0.236,-0.2392,-0.2419,-0.2451,-0.2483,-0.251,-0.2515,-0.2515,-0.2515,-0.2515,-0.2515,-0.2515,-0.2515,-0.2515,-0.2515,-0.2515,-0.2515,-0.2515,-0.2515,-0.2515,-0.2515,-0.2515,-0.2515,-0.2515,-0.2521,-0.2551,-0.2607,-0.261,-0.264,-0.2692,-0.2692,-0.2692,0.0,0.0,0.0,0.0,0.0,0.0,-1.5569,-1.4262,-1.2946,-1.1511,-1.0425,-0.97,-0.9579,-0.9457,-0.9095,-0.8854,-0.8613,-0.8247,-0.7997,-0.7994,-0.7872,-0.7872,-0.7872,-0.7872,-0.7872,-0.7872,-0.7872,-0.7872,-0.7872,-0.7872,-0.7872,-0.7872,-0.7872,-0.7872,-0.7872,-0.7872,-0.7872,-0.8607,-0.887,-0.8897,-0.965,-1.0175,-1.0327,-1.047,-1.0605,-1.0721,-1.0721,-1.0721,-1.0721,-1.0721,-0.9915,-0.8576,-0.8331,-0.6696,-0.4337,-0.4348,-0.4278,-0.4222,-0.4222,-0.4222,-0.4222,-0.4222,-0.335,-0.2333,-0.2333,-0.2333,-0.2333,-0.2333,-0.2333,-0.2333,-0.2333,-0.2333,-0.2333,-0.2333,-0.2333,-0.2333,-0.2333,-0.2333,-0.2333,-0.2333,-0.2377,-0.2416,-0.2423,-0.2469,-0.2507,-0.2513,-0.2515,-0.2515,-0.2515,-0.2515,-0.2515,-0.2515,-0.2515,-0.2515,-0.2515,-0.2515,-0.2515,-0.2515,-0.2515,-0.2515,-0.2515,-0.2515,-0.2515,-0.2515,-0.256,-0.2602,-0.2638,-0.2662,-0.2681,-0.2692,-0.2692,-0.2692,0.0,0.0,0.0,-1.7485,0.0,0.0,0.0,-1.5095,-1.4018,-1.1985,-1.102,-1.0297,-0.9457,-0.9217,-0.8973,-0.8735,-0.8491,-0.8244,-0.7994,-0.7872,-0.7872,-0.7872,-0.7872,-0.7872,-0.7872,-0.7872,-0.7872,-0.7872,-0.7872,-0.7872,-0.7872,-0.7872,-0.7872,-0.7872,-0.7872,-0.7872,-0.7872,-0.8607,-0.8854,-0.8857,-0.9607,-1.0131,-1.0287,-1.0426,-1.0575,-1.0721,-1.0721,-1.0721,-1.0721,-1.0721,-1.0316,-0.9646,-0.9646,-0.8412,-0.6503,-0.6549,-0.6226,-0.5622,-0.4937,-0.4657,-0.4511,-0.3786,-0.2914,-0.2333,-0.2333,-0.2333,-0.2333,-0.2333,-0.2333,-0.2333,-0.2333,-0.2333,-0.2333,-0.2333,-0.2333,-0.2333,-0.2333,-0.2333,-0.2333,-0.2333,-0.2382,-0.2423,-0.2423,-0.2474,-0.2515,-0.2515,-0.2515,-0.2515,-0.2515,-0.2515,-0.2515,-0.2515,-0.2515,-0.2515,-0.2515,-0.2515,-0.2515,-0.2515,-0.2515,-0.2515,-0.2515,-0.2515,-0.2521,-0.2536,-0.2579,-0.2617,-0.2647,-0.2677,-0.2692,-0.2692,-0.2692,-0.2692,0.0,0.0,0.0,0.0,0.0,-1.7244,0.0,0.0,0.0,-1.2333,-1.1619,-1.0899,-0.9335,-0.9098,-0.8967,-0.8578,-0.8474,-0.8358,-0.7964,-0.7856,-0.7872,-0.7872,-0.7872,-0.7872,-0.7872,-0.7872,-0.7872,-0.7872,-0.7872,-0.7872,-0.7872,-0.7872,-0.7872,-0.7872,-0.7872,-0.7872,-0.7872,-0.8488,-0.8854,-0.8857,-0.9578,-0.9962,-1.0243,-1.0385,-1.0534,-1.0677,-1.0707,-1.0721,-1.0721,-1.0721,-1.0721,-1.0721,-1.0721,-0.9862,-0.8633,-0.8753,-0.8168,-0.6996,-0.5645,-0.5091,-0.4947,-0.335,-0.2624,-0.2333,-0.2333,-0.2333,-0.2333,-0.2333,-0.2333,-0.2333,-0.2333,-0.2333,-0.2333,-0.2333,-0.2333,-0.2333,-0.2333,-0.2333,-0.2333,-0.2333,-0.2382,-0.2423,-0.2423,-0.2474,-0.2515,-0.2515,-0.2515,-0.2515,-0.2515,-0.2515,-0.2515,-0.2515,-0.2515,-0.2515,-0.2515,-0.2515,-0.2515,-0.2515,-0.2515,-0.2515,-0.2515,-0.2515,-0.2531,-0.2567,-0.259,-0.262,-0.2656,-0.268,-0.2692,-0.2692,-0.2692,-0.2692,0.0,0.0,0.0,0.0,-1.7485,0.0,0.0,0.0,-1.5213,-1.378,0.0,-1.1269,-0.994,0.0,0.0,-0.9048,-0.8896,-0.869,-0.809,-0.7925,-0.7872,-0.7872,-0.7872,-0.7872,-0.7872,-0.7872,-0.7872,-0.7872,-0.7872,-0.7872,-0.7872,-0.7872,-0.7872,-0.7872,-0.7872,-0.7872,-0.7872,-0.8244,-0.8613,-0.8854,-0.9233,-0.9558,-1.008,-1.0232,-1.0382,-1.0524,-1.066,-1.0721,-1.0721,-1.0721,-1.0721,-1.0721,-1.0721,-0.9862,-0.8633,-0.8753,-0.8868,-0.8697,-0.7227,-0.668,-0.6536,-0.4946,-0.3496,-0.2333,-0.2333,-0.2333,-0.2333,-0.2333,-0.2333,-0.2333,-0.2333,-0.2333,-0.2333,-0.2333,-0.2333,-0.2333,-0.2333,-0.2333,-0.2333,-0.2333,-0.2382,-0.2423,-0.2423,-0.2474,-0.2515,-0.2515,-0.2515,-0.2515,-0.2515,-0.2515,-0.2515,-0.2515,-0.2515,-0.2515,-0.2515,-0.2515,-0.2515,-0.2515,-0.2515,-0.2515,-0.2515,-0.2515,-0.254,-0.2596,-0.26,-0.263,-0.2687,-0.269,-0.2692,-0.2692,-0.2692,-0.2692,0.0,0.0,0.0,0.0,0.0,0.0,0.0,0.0,-1.629,0.0,0.0,0.0,0.0,0.0,0.0,0.0,-0.9176,-0.8955,-0.8415,-0.821,-0.8119,-0.7872,-0.7872,-0.7872,-0.7872,-0.7872,-0.7872,-0.7872,-0.7872,-0.7872,-0.7872,-0.7872,-0.7872,-0.7872,-0.7872,-0.7872,-0.7872,-0.8244,-0.8491,-0.8613,-0.9095,-0.9413,-0.981,-1.0086,-1.0358,-1.05,-1.0653,-1.0721,-1.0721,-1.0721,-1.0721,-1.0721,-1.0721,-1.0355,-0.9884,-1.0023,-1.0156,-1.0007,-0.7718,-0.6927,-0.6536,-0.4075,-0.2914,-0.2333,-0.2333,-0.2333,-0.2333,-0.2333,-0.2333,-0.2333,-0.2333,-0.2333,-0.2333,-0.2333,-0.2333,-0.2333,-0.2333,-0.2333,-0.2333,-0.2333,-0.2367,-0.2403,-0.242,-0.2474,-0.2515,-0.2515,-0.2515,-0.2515,-0.2515,-0.2515,-0.2515,-0.2515,-0.2515,-0.2515,-0.2515,-0.2515,-0.2515,-0.2515,-0.2515,-0.2515,-0.2515,-0.2515,-0.2542,-0.26,-0.2602,-0.2632,-0.2692,-0.2692,-0.2692,-0.2692,-0.2692,-0.2692,-1.6762,0.0,0.0,0.0,0.0,0.0,0.0,0.0,0.0,0.0,0.0,0.0,0.0,0.0,0.0,0.0,0.0,-0.9083,-0.8563,-0.8468,-0.8244,-0.7994,-0.7872,-0.7872,-0.7872,-0.7872,-0.7872,-0.7872,-0.7872,-0.7872,-0.7872,-0.7872,-0.7872,-0.7872,-0.7872,-0.7872,-0.7872,-0.8119,-0.8369,-0.8369,-0.8973,-0.9271,-0.9503,-1.0066,-1.0337,-1.0443,-1.0636,-1.0721,-1.0721,-1.0721,-1.0721,-1.0721,-1.0721,-1.0721,-1.0741,-1.0894,-1.0763,-1.0206,-0.7658,-0.6325,-0.5378,-0.3059,-0.2624,-0.2914,-0.2914,-0.2914,-0.2914,-0.2914,-0.2623,-0.2333,-0.2333,-0.2333,-0.2333,-0.2333,-0.2333,-0.2333,-0.2333,-0.2333,-0.2333,-0.2333,-0.2357,-0.2388,-0.2418,-0.2467,-0.2504,-0.2513,-0.2515,-0.2515,-0.2515,-0.2515,-0.2515,-0.2515,-0.2515,-0.2515,-0.2515,-0.2515,-0.2515,-0.2515,-0.2515,-0.2515,-0.2515,-0.2522,-0.255,-0.26,-0.2609,-0.264,-0.2692,-0.2692,-0.2692,-0.2692,-0.2692,-0.2692,0.0,0.0,0.0,-1.712,0.0,0.0,0.0,0.0,-1.7126,0.0,0.0,0.0,0.0,0.0,0.0,0.0,0.0,0.0,0.0,-0.853,-0.8244,-0.7994,-0.7872,-0.7872,-0.7872,-0.7872,-0.7872,-0.7872,-0.7872,-0.7872,-0.7872,-0.7872,-0.7872,-0.7872,-0.7872,-0.7872,-0.7872,-0.7872,-0.8119,-0.8369,-0.8732,-0.9098,-0.9355,-1.0019,-1.0283,-1.0304,-1.0595,-1.0721,-1.0721,-1.0721,-1.0721,-1.0721,-1.0721,-1.0721,-1.0741,-1.0894,-1.0076,-0.8676,-0.7235,-0.4892,-0.2478,-0.2333,-0.335,-0.4658,-0.4658,-0.4658,-0.4658,-0.4658,-0.3496,-0.2333,-0.2333,-0.2333,-0.2333,-0.2333,-0.2333,-0.2333,-0.2333,-0.2333,-0.2333,-0.2333,-0.2357,-0.2388,-0.2418,-0.245,-0.248,-0.251,-0.2515,-0.2515,-0.2515,-0.2515,-0.2515,-0.2515,-0.2515,-0.2515,-0.2515,-0.2515,-0.2515,-0.2515,-0.2515,-0.2515,-0.2515,-0.2542,-0.2572,-0.2601,-0.263,-0.2661,-0.2692,-0.2692,-0.2692,-0.2692,-0.2692,-0.2692,0.0,0.0,-1.2444,-1.4718,0.0,0.0,0.0,0.0,0.0,0.0,0.0,0.0,0.0,0.0,0.0,0.0,0.0,0.0,0.0,-0.8216,-0.7997,-0.7872,-0.7872,-0.7872,-0.7872,-0.7872,-0.7872,-0.7872,-0.7872,-0.7872,-0.7872,-0.7872,-0.7872,-0.7872,-0.7872,-0.7872,-0.7872,-0.7872,-0.7994,-0.8119,-0.861,-0.8976,-0.9101,-0.9787,-1.0181,-1.029,-1.0483,-1.0626,-1.0721,-1.0721,-1.0721,-1.0721,-1.0721,-1.0721,-1.0727,-1.0778,-1.0486,-0.9951,-0.876,-0.6325,-0.4077,-0.5088,-0.509,-0.4947,-0.5958,-0.6248,-0.5958,-0.4946,-0.5091,-0.4943,-0.2768,-0.3059,-0.3641,-0.2624,-0.2333,-0.2333,-0.2333,-0.2333,-0.2333,-0.2333,-0.2341,-0.2364,-0.2415,-0.2432,-0.2456,-0.2506,-0.2515,-0.2515,-0.2515,-0.2515,-0.2515,-0.2515,-0.2515,-0.2515,-0.2515,-0.2515,-0.2515,-0.2515,-0.2515,-0.2515,-0.2515,-0.2544,-0.2573,-0.2601,-0.2632,-0.2662,-0.2692,-0.2692,-0.2692,-0.2692,-0.2692,-0.2692,-1.1719,-1.1125,0.0,-1.3039,-1.3154,0.0,-1.4723,0.0,0.0,0.0,0.0,0.0,0.0,0.0,0.0,0.0,0.0,-0.8732,0.0,-0.8119,-0.7872,-0.7872,-0.7872,-0.7872,-0.7872,-0.7872,-0.7872,-0.7872,-0.7872,-0.7872,-0.7872,-0.7872,-0.7872,-0.7872,-0.7872,-0.7872,-0.7872,-0.7872,-0.7872,-0.7872,-0.8488,-0.8732,-0.8983,-0.9614,-1.0009,-1.0287,-1.0429,-1.0578,-1.0721,-1.0721,-1.0721,-1.0721,-1.0721,-1.0721,-1.0721,-1.0721,-1.0443,-0.9954,-0.862,-0.704,-0.567,-0.668,-0.6682,-0.654,-0.7551,-0.784,-0.7557,-0.6722,-0.6706,-0.6398,-0.3953,-0.3945,-0.4222,-0.2623,-0.2333,-0.2333,-0.2333,-0.2333,-0.2333,-0.2333,-0.2333,-0.2352,-0.2413,-0.2423,-0.2444,-0.2505,-0.2515,-0.2515,-0.2515,-0.2515,-0.2515,-0.2515,-0.2515,-0.2515,-0.2515,-0.2515,-0.2515,-0.2515,-0.2515,-0.2515,-0.2515,-0.2553,-0.2583,-0.2601,-0.2642,-0.2673,-0.2692,-0.2692,-0.2692,-0.2692,-0.2692,-0.2692]}]]